<?xml version="1.0" encoding="UTF-8"?>
<gpx version="1.0" creator="GPSBabel - https://www.gpsbabel.org" xmlns="http://www.topografix.com/GPX/1/0">
  <time>2021-11-14T00:45:02.881Z</time>
  <bounds minlat="35.165511000" minlon="-106.473191000" maxlat="35.195076000" maxlon="-106.442437000"/>
  <trk>
    <name>Domingo Baca-TWA Hike.Jay.2015-03-15</name>
    <trkseg>
      <trkpt lat="35.166126000" lon="-106.472659000">
        <ele>1946.590</ele>
        <time>2015-03-15T16:00:24.798Z</time>
        <name>WPT</name>
      </trkpt>
      <trkpt lat="35.166126000" lon="-106.472659000">
        <ele>1946.130</ele>
        <time>2015-03-15T16:00:24.898Z</time>
        <name>WPT.1</name>
      </trkpt>
      <trkpt lat="35.166040000" lon="-106.472786000">
        <ele>1945.720</ele>
        <time>2015-03-15T16:00:39.425Z</time>
        <name>WPT.2</name>
      </trkpt>
      <trkpt lat="35.166033000" lon="-106.472801000">
        <ele>1945.560</ele>
        <time>2015-03-15T16:00:40.679Z</time>
        <name>WPT.3</name>
      </trkpt>
      <trkpt lat="35.165979000" lon="-106.472904000">
        <ele>1945.640</ele>
        <time>2015-03-15T16:00:49.475Z</time>
        <name>WPT.4</name>
      </trkpt>
      <trkpt lat="35.165907000" lon="-106.472988000">
        <ele>1945.780</ele>
        <time>2015-03-15T16:00:57.130Z</time>
        <name>WPT.5</name>
      </trkpt>
      <trkpt lat="35.165933000" lon="-106.473096000">
        <ele>1945.740</ele>
        <time>2015-03-15T16:01:04.661Z</time>
        <name>WPT.6</name>
      </trkpt>
      <trkpt lat="35.166015000" lon="-106.473043000">
        <ele>1945.430</ele>
        <time>2015-03-15T16:01:11.390Z</time>
        <name>WPT.7</name>
      </trkpt>
      <trkpt lat="35.166083000" lon="-106.472969000">
        <ele>1944.950</ele>
        <time>2015-03-15T16:01:16.829Z</time>
        <name>WPT.8</name>
      </trkpt>
      <trkpt lat="35.166171000" lon="-106.472919000">
        <ele>1944.590</ele>
        <time>2015-03-15T16:01:23.339Z</time>
        <name>WPT.9</name>
      </trkpt>
      <trkpt lat="35.166264000" lon="-106.472932000">
        <ele>1944.500</ele>
        <time>2015-03-15T16:01:30.098Z</time>
        <name>WPT.10</name>
      </trkpt>
      <trkpt lat="35.166335000" lon="-106.473015000">
        <ele>1944.610</ele>
        <time>2015-03-15T16:01:37.028Z</time>
        <name>WPT.11</name>
      </trkpt>
      <trkpt lat="35.166384000" lon="-106.473115000">
        <ele>1944.850</ele>
        <time>2015-03-15T16:01:43.321Z</time>
        <name>WPT.12</name>
      </trkpt>
      <trkpt lat="35.166453000" lon="-106.473191000">
        <ele>1945.140</ele>
        <time>2015-03-15T16:01:49.436Z</time>
        <name>WPT.13</name>
      </trkpt>
      <trkpt lat="35.166552000" lon="-106.473188000">
        <ele>1945.370</ele>
        <time>2015-03-15T16:01:56.141Z</time>
        <name>WPT.14</name>
      </trkpt>
      <trkpt lat="35.166640000" lon="-106.473164000">
        <ele>1945.550</ele>
        <time>2015-03-15T16:02:02.222Z</time>
        <name>WPT.15</name>
      </trkpt>
      <trkpt lat="35.166721000" lon="-106.473112000">
        <ele>1945.710</ele>
        <time>2015-03-15T16:02:08.350Z</time>
        <name>WPT.16</name>
      </trkpt>
      <trkpt lat="35.166806000" lon="-106.473044000">
        <ele>1945.880</ele>
        <time>2015-03-15T16:02:15.067Z</time>
        <name>WPT.17</name>
      </trkpt>
      <trkpt lat="35.166806000" lon="-106.473044000">
        <ele>1945.740</ele>
        <time>2015-03-15T16:02:23.168Z</time>
        <name>WPT.18</name>
      </trkpt>
      <trkpt lat="35.166905000" lon="-106.472931000">
        <ele>1944.930</ele>
        <time>2015-03-15T16:02:32.724Z</time>
        <name>WPT.19</name>
      </trkpt>
      <trkpt lat="35.166981000" lon="-106.472863000">
        <ele>1944.550</ele>
        <time>2015-03-15T16:02:37.172Z</time>
        <name>WPT.20</name>
      </trkpt>
      <trkpt lat="35.167041000" lon="-106.472781000">
        <ele>1945.430</ele>
        <time>2015-03-15T16:02:41.075Z</time>
        <name>WPT.21</name>
      </trkpt>
      <trkpt lat="35.167041000" lon="-106.472781000">
        <ele>1947.180</ele>
        <time>2015-03-15T16:02:54.182Z</time>
        <name>WPT.22</name>
      </trkpt>
      <trkpt lat="35.167132000" lon="-106.472816000">
        <ele>1946.310</ele>
        <time>2015-03-15T16:03:05.733Z</time>
        <name>WPT.23</name>
      </trkpt>
      <trkpt lat="35.167208000" lon="-106.472901000">
        <ele>1945.580</ele>
        <time>2015-03-15T16:03:13.237Z</time>
        <name>WPT.24</name>
      </trkpt>
      <trkpt lat="35.167296000" lon="-106.472931000">
        <ele>1946.200</ele>
        <time>2015-03-15T16:03:19.374Z</time>
        <name>WPT.25</name>
      </trkpt>
      <trkpt lat="35.167391000" lon="-106.472941000">
        <ele>1947.490</ele>
        <time>2015-03-15T16:03:25.825Z</time>
        <name>WPT.26</name>
      </trkpt>
      <trkpt lat="35.167483000" lon="-106.472923000">
        <ele>1948.380</ele>
        <time>2015-03-15T16:03:32.970Z</time>
        <name>WPT.27</name>
      </trkpt>
      <trkpt lat="35.167561000" lon="-106.472844000">
        <ele>1948.770</ele>
        <time>2015-03-15T16:03:41.618Z</time>
        <name>WPT.28</name>
      </trkpt>
      <trkpt lat="35.167563000" lon="-106.472728000">
        <ele>1948.970</ele>
        <time>2015-03-15T16:03:50.854Z</time>
        <name>WPT.29</name>
      </trkpt>
      <trkpt lat="35.167617000" lon="-106.472635000">
        <ele>1949.200</ele>
        <time>2015-03-15T16:03:58.888Z</time>
        <name>WPT.30</name>
      </trkpt>
      <trkpt lat="35.167631000" lon="-106.472524000">
        <ele>1949.500</ele>
        <time>2015-03-15T16:04:07.073Z</time>
        <name>WPT.31</name>
      </trkpt>
      <trkpt lat="35.167631000" lon="-106.472524000">
        <ele>1949.680</ele>
        <time>2015-03-15T16:04:18.065Z</time>
        <name>WPT.32</name>
      </trkpt>
      <trkpt lat="35.167685000" lon="-106.472298000">
        <ele>1948.860</ele>
        <time>2015-03-15T16:04:39.367Z</time>
        <name>WPT.33</name>
      </trkpt>
      <trkpt lat="35.167722000" lon="-106.472192000">
        <ele>1948.540</ele>
        <time>2015-03-15T16:04:45.884Z</time>
        <name>WPT.34</name>
      </trkpt>
      <trkpt lat="35.167760000" lon="-106.472087000">
        <ele>1949.810</ele>
        <time>2015-03-15T16:04:52.110Z</time>
        <name>WPT.35</name>
      </trkpt>
      <trkpt lat="35.167754000" lon="-106.471975000">
        <ele>1951.740</ele>
        <time>2015-03-15T16:04:58.757Z</time>
        <name>WPT.36</name>
      </trkpt>
      <trkpt lat="35.167716000" lon="-106.471866000">
        <ele>1953.060</ele>
        <time>2015-03-15T16:05:06.512Z</time>
        <name>WPT.37</name>
      </trkpt>
      <trkpt lat="35.167645000" lon="-106.471792000">
        <ele>1953.610</ele>
        <time>2015-03-15T16:05:13.553Z</time>
        <name>WPT.38</name>
      </trkpt>
      <trkpt lat="35.167626000" lon="-106.471674000">
        <ele>1953.790</ele>
        <time>2015-03-15T16:05:21.055Z</time>
        <name>WPT.39</name>
      </trkpt>
      <trkpt lat="35.167626000" lon="-106.471674000">
        <ele>1953.740</ele>
        <time>2015-03-15T16:05:30.776Z</time>
        <name>WPT.40</name>
      </trkpt>
      <trkpt lat="35.167707000" lon="-106.471484000">
        <ele>1952.920</ele>
        <time>2015-03-15T16:05:42.068Z</time>
        <name>WPT.41</name>
      </trkpt>
      <trkpt lat="35.167707000" lon="-106.471484000">
        <ele>1951.460</ele>
        <time>2015-03-15T16:05:52.771Z</time>
        <name>WPT.42</name>
      </trkpt>
      <trkpt lat="35.167734000" lon="-106.471368000">
        <ele>1951.020</ele>
        <time>2015-03-15T16:06:06.132Z</time>
        <name>WPT.43</name>
      </trkpt>
      <trkpt lat="35.167797000" lon="-106.471283000">
        <ele>1951.500</ele>
        <time>2015-03-15T16:06:13.173Z</time>
        <name>WPT.44</name>
      </trkpt>
      <trkpt lat="35.167847000" lon="-106.471189000">
        <ele>1953.560</ele>
        <time>2015-03-15T16:06:19.077Z</time>
        <name>WPT.45</name>
      </trkpt>
      <trkpt lat="35.167847000" lon="-106.471189000">
        <ele>1956.890</ele>
        <time>2015-03-15T16:06:30.642Z</time>
        <name>WPT.46</name>
      </trkpt>
      <trkpt lat="35.167870000" lon="-106.471074000">
        <ele>1954.520</ele>
        <time>2015-03-15T16:06:48.149Z</time>
        <name>WPT.47</name>
      </trkpt>
      <trkpt lat="35.167925000" lon="-106.470982000">
        <ele>1954.380</ele>
        <time>2015-03-15T16:06:57.057Z</time>
        <name>WPT.48</name>
      </trkpt>
      <trkpt lat="35.167851000" lon="-106.470894000">
        <ele>1956.010</ele>
        <time>2015-03-15T16:07:06.188Z</time>
        <name>WPT.49</name>
      </trkpt>
      <trkpt lat="35.167858000" lon="-106.470773000">
        <ele>1958.130</ele>
        <time>2015-03-15T16:07:14.312Z</time>
        <name>WPT.50</name>
      </trkpt>
      <trkpt lat="35.167855000" lon="-106.470663000">
        <ele>1959.560</ele>
        <time>2015-03-15T16:07:20.173Z</time>
        <name>WPT.51</name>
      </trkpt>
      <trkpt lat="35.167883000" lon="-106.470547000">
        <ele>1960.480</ele>
        <time>2015-03-15T16:07:25.690Z</time>
        <name>WPT.52</name>
      </trkpt>
      <trkpt lat="35.167946000" lon="-106.470444000">
        <ele>1961.200</ele>
        <time>2015-03-15T16:07:31.567Z</time>
        <name>WPT.53</name>
      </trkpt>
      <trkpt lat="35.167992000" lon="-106.470345000">
        <ele>1961.700</ele>
        <time>2015-03-15T16:07:37.629Z</time>
        <name>WPT.54</name>
      </trkpt>
      <trkpt lat="35.167971000" lon="-106.470231000">
        <ele>1961.970</ele>
        <time>2015-03-15T16:07:45.643Z</time>
        <name>WPT.55</name>
      </trkpt>
      <trkpt lat="35.167953000" lon="-106.470114000">
        <ele>1962.220</ele>
        <time>2015-03-15T16:07:54.451Z</time>
        <name>WPT.56</name>
      </trkpt>
      <trkpt lat="35.167925000" lon="-106.470004000">
        <ele>1962.660</ele>
        <time>2015-03-15T16:08:02.446Z</time>
        <name>WPT.57</name>
      </trkpt>
      <trkpt lat="35.167961000" lon="-106.469889000">
        <ele>1963.330</ele>
        <time>2015-03-15T16:08:10.310Z</time>
        <name>WPT.58</name>
      </trkpt>
      <trkpt lat="35.167938000" lon="-106.469775000">
        <ele>1964.090</ele>
        <time>2015-03-15T16:08:17.020Z</time>
        <name>WPT.59</name>
      </trkpt>
      <trkpt lat="35.167983000" lon="-106.469675000">
        <ele>1964.770</ele>
        <time>2015-03-15T16:08:22.309Z</time>
        <name>WPT.60</name>
      </trkpt>
      <trkpt lat="35.168033000" lon="-106.469559000">
        <ele>1965.270</ele>
        <time>2015-03-15T16:08:28.956Z</time>
        <name>WPT.61</name>
      </trkpt>
      <trkpt lat="35.168022000" lon="-106.469444000">
        <ele>1965.590</ele>
        <time>2015-03-15T16:08:36.027Z</time>
        <name>WPT.62</name>
      </trkpt>
      <trkpt lat="35.167998000" lon="-106.469329000">
        <ele>1965.910</ele>
        <time>2015-03-15T16:08:43.794Z</time>
        <name>WPT.63</name>
      </trkpt>
      <trkpt lat="35.168016000" lon="-106.469221000">
        <ele>1966.540</ele>
        <time>2015-03-15T16:08:51.365Z</time>
        <name>WPT.64</name>
      </trkpt>
      <trkpt lat="35.168039000" lon="-106.469110000">
        <ele>1967.540</ele>
        <time>2015-03-15T16:08:59.173Z</time>
        <name>WPT.65</name>
      </trkpt>
      <trkpt lat="35.168086000" lon="-106.469001000">
        <ele>1968.570</ele>
        <time>2015-03-15T16:09:06.126Z</time>
        <name>WPT.66</name>
      </trkpt>
      <trkpt lat="35.168144000" lon="-106.468897000">
        <ele>1969.370</ele>
        <time>2015-03-15T16:09:11.344Z</time>
        <name>WPT.67</name>
      </trkpt>
      <trkpt lat="35.168215000" lon="-106.468804000">
        <ele>1969.880</ele>
        <time>2015-03-15T16:09:16.611Z</time>
        <name>WPT.68</name>
      </trkpt>
      <trkpt lat="35.168242000" lon="-106.468696000">
        <ele>1970.240</ele>
        <time>2015-03-15T16:09:22.107Z</time>
        <name>WPT.69</name>
      </trkpt>
      <trkpt lat="35.168277000" lon="-106.468595000">
        <ele>1970.640</ele>
        <time>2015-03-15T16:09:28.483Z</time>
        <name>WPT.70</name>
      </trkpt>
      <trkpt lat="35.168229000" lon="-106.468486000">
        <ele>1971.240</ele>
        <time>2015-03-15T16:09:38.068Z</time>
        <name>WPT.71</name>
      </trkpt>
      <trkpt lat="35.168229000" lon="-106.468486000">
        <ele>1972.010</ele>
        <time>2015-03-15T16:10:11.095Z</time>
        <name>WPT.72</name>
      </trkpt>
      <trkpt lat="35.168202000" lon="-106.468314000">
        <ele>1971.170</ele>
        <time>2015-03-15T16:10:31.724Z</time>
        <name>WPT.73</name>
      </trkpt>
      <trkpt lat="35.168258000" lon="-106.468219000">
        <ele>1970.690</ele>
        <time>2015-03-15T16:10:38.922Z</time>
        <name>WPT.74</name>
      </trkpt>
      <trkpt lat="35.168326000" lon="-106.468126000">
        <ele>1971.640</ele>
        <time>2015-03-15T16:10:45.341Z</time>
        <name>WPT.75</name>
      </trkpt>
      <trkpt lat="35.168387000" lon="-106.468043000">
        <ele>1973.090</ele>
        <time>2015-03-15T16:10:50.821Z</time>
        <name>WPT.76</name>
      </trkpt>
      <trkpt lat="35.168443000" lon="-106.467940000">
        <ele>1973.930</ele>
        <time>2015-03-15T16:10:57.082Z</time>
        <name>WPT.77</name>
      </trkpt>
      <trkpt lat="35.168481000" lon="-106.467839000">
        <ele>1974.210</ele>
        <time>2015-03-15T16:11:03.024Z</time>
        <name>WPT.78</name>
      </trkpt>
      <trkpt lat="35.168534000" lon="-106.467733000">
        <ele>1974.280</ele>
        <time>2015-03-15T16:11:10.244Z</time>
        <name>WPT.79</name>
      </trkpt>
      <trkpt lat="35.168588000" lon="-106.467635000">
        <ele>1974.420</ele>
        <time>2015-03-15T16:11:17.564Z</time>
        <name>WPT.80</name>
      </trkpt>
      <trkpt lat="35.168646000" lon="-106.467537000">
        <ele>1974.820</ele>
        <time>2015-03-15T16:11:25.721Z</time>
        <name>WPT.81</name>
      </trkpt>
      <trkpt lat="35.168697000" lon="-106.467445000">
        <ele>1975.490</ele>
        <time>2015-03-15T16:11:32.262Z</time>
        <name>WPT.82</name>
      </trkpt>
      <trkpt lat="35.168727000" lon="-106.467336000">
        <ele>1976.280</ele>
        <time>2015-03-15T16:11:38.472Z</time>
        <name>WPT.83</name>
      </trkpt>
      <trkpt lat="35.168771000" lon="-106.467230000">
        <ele>1977.060</ele>
        <time>2015-03-15T16:11:45.292Z</time>
        <name>WPT.84</name>
      </trkpt>
      <trkpt lat="35.168867000" lon="-106.467176000">
        <ele>1977.890</ele>
        <time>2015-03-15T16:11:53.732Z</time>
        <name>WPT.85</name>
      </trkpt>
      <trkpt lat="35.168938000" lon="-106.467089000">
        <ele>1978.790</ele>
        <time>2015-03-15T16:12:01.089Z</time>
        <name>WPT.86</name>
      </trkpt>
      <trkpt lat="35.168938000" lon="-106.467089000">
        <ele>1979.730</ele>
        <time>2015-03-15T16:12:13.629Z</time>
        <name>WPT.87</name>
      </trkpt>
      <trkpt lat="35.169032000" lon="-106.467001000">
        <ele>1978.870</ele>
        <time>2015-03-15T16:12:26.522Z</time>
        <name>WPT.88</name>
      </trkpt>
      <trkpt lat="35.169053000" lon="-106.466894000">
        <ele>1978.380</ele>
        <time>2015-03-15T16:12:34.334Z</time>
        <name>WPT.89</name>
      </trkpt>
      <trkpt lat="35.169084000" lon="-106.466778000">
        <ele>1979.450</ele>
        <time>2015-03-15T16:12:42.908Z</time>
        <name>WPT.90</name>
      </trkpt>
      <trkpt lat="35.169109000" lon="-106.466655000">
        <ele>1981.410</ele>
        <time>2015-03-15T16:12:50.670Z</time>
        <name>WPT.91</name>
      </trkpt>
      <trkpt lat="35.169178000" lon="-106.466578000">
        <ele>1983.220</ele>
        <time>2015-03-15T16:12:56.632Z</time>
        <name>WPT.92</name>
      </trkpt>
      <trkpt lat="35.169199000" lon="-106.466467000">
        <ele>1984.580</ele>
        <time>2015-03-15T16:13:03.056Z</time>
        <name>WPT.93</name>
      </trkpt>
      <trkpt lat="35.169254000" lon="-106.466379000">
        <ele>1985.360</ele>
        <time>2015-03-15T16:13:09.480Z</time>
        <name>WPT.94</name>
      </trkpt>
      <trkpt lat="35.169346000" lon="-106.466371000">
        <ele>1985.650</ele>
        <time>2015-03-15T16:13:16.199Z</time>
        <name>WPT.95</name>
      </trkpt>
      <trkpt lat="35.169443000" lon="-106.466386000">
        <ele>1985.680</ele>
        <time>2015-03-15T16:13:23.422Z</time>
        <name>WPT.96</name>
      </trkpt>
      <trkpt lat="35.169528000" lon="-106.466431000">
        <ele>1985.770</ele>
        <time>2015-03-15T16:13:30.764Z</time>
        <name>WPT.97</name>
      </trkpt>
      <trkpt lat="35.169575000" lon="-106.466547000">
        <ele>1986.080</ele>
        <time>2015-03-15T16:13:39.879Z</time>
        <name>WPT.98</name>
      </trkpt>
      <trkpt lat="35.169659000" lon="-106.466606000">
        <ele>1986.500</ele>
        <time>2015-03-15T16:13:48.304Z</time>
        <name>WPT.99</name>
      </trkpt>
      <trkpt lat="35.169724000" lon="-106.466529000">
        <ele>1986.840</ele>
        <time>2015-03-15T16:13:54.801Z</time>
        <name>WPT.100</name>
      </trkpt>
      <trkpt lat="35.169822000" lon="-106.466484000">
        <ele>1986.990</ele>
        <time>2015-03-15T16:14:00.871Z</time>
        <name>WPT.101</name>
      </trkpt>
      <trkpt lat="35.169914000" lon="-106.466480000">
        <ele>1986.960</ele>
        <time>2015-03-15T16:14:06.114Z</time>
        <name>WPT.102</name>
      </trkpt>
      <trkpt lat="35.169997000" lon="-106.466398000">
        <ele>1986.770</ele>
        <time>2015-03-15T16:14:12.615Z</time>
        <name>WPT.103</name>
      </trkpt>
      <trkpt lat="35.170072000" lon="-106.466335000">
        <ele>1986.330</ele>
        <time>2015-03-15T16:14:18.829Z</time>
        <name>WPT.104</name>
      </trkpt>
      <trkpt lat="35.170155000" lon="-106.466278000">
        <ele>1985.710</ele>
        <time>2015-03-15T16:14:25.537Z</time>
        <name>WPT.105</name>
      </trkpt>
      <trkpt lat="35.170250000" lon="-106.466264000">
        <ele>1985.220</ele>
        <time>2015-03-15T16:14:32.707Z</time>
        <name>WPT.106</name>
      </trkpt>
      <trkpt lat="35.170339000" lon="-106.466323000">
        <ele>1985.020</ele>
        <time>2015-03-15T16:14:41.367Z</time>
        <name>WPT.107</name>
      </trkpt>
      <trkpt lat="35.170432000" lon="-106.466323000">
        <ele>1984.990</ele>
        <time>2015-03-15T16:14:49.483Z</time>
        <name>WPT.108</name>
      </trkpt>
      <trkpt lat="35.170500000" lon="-106.466409000">
        <ele>1984.990</ele>
        <time>2015-03-15T16:14:58.055Z</time>
        <name>WPT.109</name>
      </trkpt>
      <trkpt lat="35.170500000" lon="-106.466409000">
        <ele>1984.500</ele>
        <time>2015-03-15T16:14:59.159Z</time>
        <name>WPT.110</name>
      </trkpt>
      <trkpt lat="35.170596000" lon="-106.466501000">
        <ele>1983.680</ele>
        <time>2015-03-15T16:15:11.455Z</time>
        <name>WPT.111</name>
      </trkpt>
      <trkpt lat="35.170684000" lon="-106.466571000">
        <ele>1983.300</ele>
        <time>2015-03-15T16:15:17.970Z</time>
        <name>WPT.112</name>
      </trkpt>
      <trkpt lat="35.170770000" lon="-106.466641000">
        <ele>1984.000</ele>
        <time>2015-03-15T16:15:24.748Z</time>
        <name>WPT.113</name>
      </trkpt>
      <trkpt lat="35.170854000" lon="-106.466698000">
        <ele>1985.160</ele>
        <time>2015-03-15T16:15:31.958Z</time>
        <name>WPT.114</name>
      </trkpt>
      <trkpt lat="35.170942000" lon="-106.466732000">
        <ele>1986.130</ele>
        <time>2015-03-15T16:15:40.734Z</time>
        <name>WPT.115</name>
      </trkpt>
      <trkpt lat="35.171029000" lon="-106.466669000">
        <ele>1986.970</ele>
        <time>2015-03-15T16:15:53.050Z</time>
        <name>WPT.116</name>
      </trkpt>
      <trkpt lat="35.171029000" lon="-106.466669000">
        <ele>1987.690</ele>
        <time>2015-03-15T16:16:02.032Z</time>
        <name>WPT.117</name>
      </trkpt>
      <trkpt lat="35.171125000" lon="-106.466675000">
        <ele>1986.830</ele>
        <time>2015-03-15T16:16:16.969Z</time>
        <name>WPT.118</name>
      </trkpt>
      <trkpt lat="35.171197000" lon="-106.466598000">
        <ele>1986.210</ele>
        <time>2015-03-15T16:16:25.150Z</time>
        <name>WPT.119</name>
      </trkpt>
      <trkpt lat="35.171306000" lon="-106.466644000">
        <ele>1986.750</ele>
        <time>2015-03-15T16:16:31.776Z</time>
        <name>WPT.120</name>
      </trkpt>
      <trkpt lat="35.171400000" lon="-106.466649000">
        <ele>1987.750</ele>
        <time>2015-03-15T16:16:37.164Z</time>
        <name>WPT.121</name>
      </trkpt>
      <trkpt lat="35.171498000" lon="-106.466618000">
        <ele>1988.430</ele>
        <time>2015-03-15T16:16:44.328Z</time>
        <name>WPT.122</name>
      </trkpt>
      <trkpt lat="35.171595000" lon="-106.466581000">
        <ele>1988.810</ele>
        <time>2015-03-15T16:16:52.411Z</time>
        <name>WPT.123</name>
      </trkpt>
      <trkpt lat="35.171691000" lon="-106.466579000">
        <ele>1989.180</ele>
        <time>2015-03-15T16:17:00.323Z</time>
        <name>WPT.124</name>
      </trkpt>
      <trkpt lat="35.171784000" lon="-106.466522000">
        <ele>1989.640</ele>
        <time>2015-03-15T16:17:08.920Z</time>
        <name>WPT.125</name>
      </trkpt>
      <trkpt lat="35.171864000" lon="-106.466466000">
        <ele>1990.200</ele>
        <time>2015-03-15T16:17:16.549Z</time>
        <name>WPT.126</name>
      </trkpt>
      <trkpt lat="35.171965000" lon="-106.466455000">
        <ele>1990.880</ele>
        <time>2015-03-15T16:17:24.409Z</time>
        <name>WPT.127</name>
      </trkpt>
      <trkpt lat="35.172068000" lon="-106.466498000">
        <ele>1991.730</ele>
        <time>2015-03-15T16:17:32.356Z</time>
        <name>WPT.128</name>
      </trkpt>
      <trkpt lat="35.172136000" lon="-106.466572000">
        <ele>1992.700</ele>
        <time>2015-03-15T16:17:39.435Z</time>
        <name>WPT.129</name>
      </trkpt>
      <trkpt lat="35.172230000" lon="-106.466561000">
        <ele>1993.510</ele>
        <time>2015-03-15T16:17:46.454Z</time>
        <name>WPT.130</name>
      </trkpt>
      <trkpt lat="35.172324000" lon="-106.466577000">
        <ele>1994.010</ele>
        <time>2015-03-15T16:17:52.140Z</time>
        <name>WPT.131</name>
      </trkpt>
      <trkpt lat="35.172417000" lon="-106.466633000">
        <ele>1994.390</ele>
        <time>2015-03-15T16:17:58.974Z</time>
        <name>WPT.132</name>
      </trkpt>
      <trkpt lat="35.172510000" lon="-106.466643000">
        <ele>1994.800</ele>
        <time>2015-03-15T16:18:06.088Z</time>
        <name>WPT.133</name>
      </trkpt>
      <trkpt lat="35.172581000" lon="-106.466712000">
        <ele>1995.290</ele>
        <time>2015-03-15T16:18:14.460Z</time>
        <name>WPT.134</name>
      </trkpt>
      <trkpt lat="35.172676000" lon="-106.466712000">
        <ele>1995.950</ele>
        <time>2015-03-15T16:18:22.713Z</time>
        <name>WPT.135</name>
      </trkpt>
      <trkpt lat="35.172774000" lon="-106.466685000">
        <ele>1996.740</ele>
        <time>2015-03-15T16:18:31.097Z</time>
        <name>WPT.136</name>
      </trkpt>
      <trkpt lat="35.172855000" lon="-106.466757000">
        <ele>1997.420</ele>
        <time>2015-03-15T16:18:39.264Z</time>
        <name>WPT.137</name>
      </trkpt>
      <trkpt lat="35.172949000" lon="-106.466771000">
        <ele>1997.900</ele>
        <time>2015-03-15T16:18:48.107Z</time>
        <name>WPT.138</name>
      </trkpt>
      <trkpt lat="35.173016000" lon="-106.466848000">
        <ele>1998.230</ele>
        <time>2015-03-15T16:18:58.121Z</time>
        <name>WPT.139</name>
      </trkpt>
      <trkpt lat="35.173110000" lon="-106.466848000">
        <ele>1998.540</ele>
        <time>2015-03-15T16:19:08.693Z</time>
        <name>WPT.140</name>
      </trkpt>
      <trkpt lat="35.173208000" lon="-106.466825000">
        <ele>1999.040</ele>
        <time>2015-03-15T16:19:19.334Z</time>
        <name>WPT.141</name>
      </trkpt>
      <trkpt lat="35.173303000" lon="-106.466811000">
        <ele>1999.810</ele>
        <time>2015-03-15T16:19:29.258Z</time>
        <name>WPT.142</name>
      </trkpt>
      <trkpt lat="35.173401000" lon="-106.466797000">
        <ele>2000.850</ele>
        <time>2015-03-15T16:19:38.227Z</time>
        <name>WPT.143</name>
      </trkpt>
      <trkpt lat="35.173494000" lon="-106.466807000">
        <ele>2002.100</ele>
        <time>2015-03-15T16:19:45.392Z</time>
        <name>WPT.144</name>
      </trkpt>
      <trkpt lat="35.173588000" lon="-106.466774000">
        <ele>2003.240</ele>
        <time>2015-03-15T16:19:52.227Z</time>
        <name>WPT.145</name>
      </trkpt>
      <trkpt lat="35.173679000" lon="-106.466790000">
        <ele>2004.080</ele>
        <time>2015-03-15T16:19:59.199Z</time>
        <name>WPT.146</name>
      </trkpt>
      <trkpt lat="35.173764000" lon="-106.466853000">
        <ele>2004.860</ele>
        <time>2015-03-15T16:20:07.885Z</time>
        <name>WPT.147</name>
      </trkpt>
      <trkpt lat="35.173802000" lon="-106.466956000">
        <ele>2005.730</ele>
        <time>2015-03-15T16:20:18.060Z</time>
        <name>WPT.148</name>
      </trkpt>
      <trkpt lat="35.173802000" lon="-106.466956000">
        <ele>2006.460</ele>
        <time>2015-03-15T16:20:31Z</time>
        <name>WPT.149</name>
      </trkpt>
      <trkpt lat="35.173839000" lon="-106.467123000">
        <ele>2005.590</ele>
        <time>2015-03-15T16:20:49.443Z</time>
        <name>WPT.150</name>
      </trkpt>
      <trkpt lat="35.173933000" lon="-106.467133000">
        <ele>2005.190</ele>
        <time>2015-03-15T16:20:56.255Z</time>
        <name>WPT.151</name>
      </trkpt>
      <trkpt lat="35.174005000" lon="-106.467216000">
        <ele>2006.390</ele>
        <time>2015-03-15T16:21:03.196Z</time>
        <name>WPT.152</name>
      </trkpt>
      <trkpt lat="35.174065000" lon="-106.467311000">
        <ele>2008.330</ele>
        <time>2015-03-15T16:21:10.079Z</time>
        <name>WPT.153</name>
      </trkpt>
      <trkpt lat="35.174116000" lon="-106.467404000">
        <ele>2009.920</ele>
        <time>2015-03-15T16:21:16.468Z</time>
        <name>WPT.154</name>
      </trkpt>
      <trkpt lat="35.174042000" lon="-106.467498000">
        <ele>2010.950</ele>
        <time>2015-03-15T16:21:23.437Z</time>
        <name>WPT.155</name>
      </trkpt>
      <trkpt lat="35.173996000" lon="-106.467602000">
        <ele>2011.460</ele>
        <time>2015-03-15T16:21:28.234Z</time>
        <name>WPT.156</name>
      </trkpt>
      <trkpt lat="35.174084000" lon="-106.467663000">
        <ele>2011.750</ele>
        <time>2015-03-15T16:21:33.306Z</time>
        <name>WPT.157</name>
      </trkpt>
      <trkpt lat="35.174177000" lon="-106.467718000">
        <ele>2012.070</ele>
        <time>2015-03-15T16:21:39.063Z</time>
        <name>WPT.158</name>
      </trkpt>
      <trkpt lat="35.174177000" lon="-106.467718000">
        <ele>2012.240</ele>
        <time>2015-03-15T16:21:44.148Z</time>
        <name>WPT.159</name>
      </trkpt>
      <trkpt lat="35.174290000" lon="-106.467696000">
        <ele>2011.390</ele>
        <time>2015-03-15T16:21:58.889Z</time>
        <name>WPT.160</name>
      </trkpt>
      <trkpt lat="35.174374000" lon="-106.467761000">
        <ele>2011.040</ele>
        <time>2015-03-15T16:22:07.479Z</time>
        <name>WPT.161</name>
      </trkpt>
      <trkpt lat="35.174434000" lon="-106.467857000">
        <ele>2012.200</ele>
        <time>2015-03-15T16:22:17.807Z</time>
        <name>WPT.162</name>
      </trkpt>
      <trkpt lat="35.174434000" lon="-106.467970000">
        <ele>2014.080</ele>
        <time>2015-03-15T16:22:28.679Z</time>
        <name>WPT.163</name>
      </trkpt>
      <trkpt lat="35.174472000" lon="-106.468084000">
        <ele>2015.720</ele>
        <time>2015-03-15T16:22:35.971Z</time>
        <name>WPT.164</name>
      </trkpt>
      <trkpt lat="35.174512000" lon="-106.468185000">
        <ele>2016.960</ele>
        <time>2015-03-15T16:22:41.621Z</time>
        <name>WPT.165</name>
      </trkpt>
      <trkpt lat="35.174559000" lon="-106.468280000">
        <ele>2017.730</ele>
        <time>2015-03-15T16:22:47.451Z</time>
        <name>WPT.166</name>
      </trkpt>
      <trkpt lat="35.174641000" lon="-106.468333000">
        <ele>2018.160</ele>
        <time>2015-03-15T16:22:55.031Z</time>
        <name>WPT.167</name>
      </trkpt>
      <trkpt lat="35.174731000" lon="-106.468310000">
        <ele>2018.580</ele>
        <time>2015-03-15T16:23:02.048Z</time>
        <name>WPT.168</name>
      </trkpt>
      <trkpt lat="35.174731000" lon="-106.468310000">
        <ele>2019.080</ele>
        <time>2015-03-15T16:23:24.514Z</time>
        <name>WPT.169</name>
      </trkpt>
      <trkpt lat="35.174798000" lon="-106.468385000">
        <ele>2017.200</ele>
        <time>2015-03-15T16:23:40.108Z</time>
        <name>WPT.170</name>
      </trkpt>
      <trkpt lat="35.174898000" lon="-106.468411000">
        <ele>2017.430</ele>
        <time>2015-03-15T16:23:48.697Z</time>
        <name>WPT.171</name>
      </trkpt>
      <trkpt lat="35.174991000" lon="-106.468423000">
        <ele>2019.300</ele>
        <time>2015-03-15T16:23:55.928Z</time>
        <name>WPT.172</name>
      </trkpt>
      <trkpt lat="35.175082000" lon="-106.468425000">
        <ele>2021.550</ele>
        <time>2015-03-15T16:24:03.552Z</time>
        <name>WPT.173</name>
      </trkpt>
      <trkpt lat="35.175170000" lon="-106.468451000">
        <ele>2023.070</ele>
        <time>2015-03-15T16:24:12.199Z</time>
        <name>WPT.174</name>
      </trkpt>
      <trkpt lat="35.175269000" lon="-106.468432000">
        <ele>2024.020</ele>
        <time>2015-03-15T16:24:22.083Z</time>
        <name>WPT.175</name>
      </trkpt>
      <trkpt lat="35.175365000" lon="-106.468451000">
        <ele>2024.840</ele>
        <time>2015-03-15T16:24:31.759Z</time>
        <name>WPT.176</name>
      </trkpt>
      <trkpt lat="35.175439000" lon="-106.468380000">
        <ele>2025.840</ele>
        <time>2015-03-15T16:24:42.181Z</time>
        <name>WPT.177</name>
      </trkpt>
      <trkpt lat="35.175533000" lon="-106.468344000">
        <ele>2026.900</ele>
        <time>2015-03-15T16:24:51.437Z</time>
        <name>WPT.178</name>
      </trkpt>
      <trkpt lat="35.175621000" lon="-106.468298000">
        <ele>2027.650</ele>
        <time>2015-03-15T16:24:59.058Z</time>
        <name>WPT.179</name>
      </trkpt>
      <trkpt lat="35.175691000" lon="-106.468217000">
        <ele>2028.030</ele>
        <time>2015-03-15T16:25:08.136Z</time>
        <name>WPT.180</name>
      </trkpt>
      <trkpt lat="35.175779000" lon="-106.468142000">
        <ele>2028.420</ele>
        <time>2015-03-15T16:25:18.220Z</time>
        <name>WPT.181</name>
      </trkpt>
      <trkpt lat="35.175868000" lon="-106.468092000">
        <ele>2029.210</ele>
        <time>2015-03-15T16:25:26.070Z</time>
        <name>WPT.182</name>
      </trkpt>
      <trkpt lat="35.175868000" lon="-106.468092000">
        <ele>2030.400</ele>
        <time>2015-03-15T16:25:49.128Z</time>
        <name>WPT.183</name>
      </trkpt>
      <trkpt lat="35.175908000" lon="-106.467986000">
        <ele>2029.520</ele>
        <time>2015-03-15T16:26:02.418Z</time>
        <name>WPT.184</name>
      </trkpt>
      <trkpt lat="35.175992000" lon="-106.467944000">
        <ele>2029.100</ele>
        <time>2015-03-15T16:26:10.987Z</time>
        <name>WPT.185</name>
      </trkpt>
      <trkpt lat="35.176092000" lon="-106.467926000">
        <ele>2030.550</ele>
        <time>2015-03-15T16:26:17.734Z</time>
        <name>WPT.186</name>
      </trkpt>
      <trkpt lat="35.176178000" lon="-106.467891000">
        <ele>2032.820</ele>
        <time>2015-03-15T16:26:23.610Z</time>
        <name>WPT.187</name>
      </trkpt>
      <trkpt lat="35.176270000" lon="-106.467904000">
        <ele>2034.410</ele>
        <time>2015-03-15T16:26:29.995Z</time>
        <name>WPT.188</name>
      </trkpt>
      <trkpt lat="35.176368000" lon="-106.467898000">
        <ele>2035.190</ele>
        <time>2015-03-15T16:26:39.269Z</time>
        <name>WPT.189</name>
      </trkpt>
      <trkpt lat="35.176451000" lon="-106.467856000">
        <ele>2035.650</ele>
        <time>2015-03-15T16:26:46.713Z</time>
        <name>WPT.190</name>
      </trkpt>
      <trkpt lat="35.176549000" lon="-106.467839000">
        <ele>2036.060</ele>
        <time>2015-03-15T16:26:54.067Z</time>
        <name>WPT.191</name>
      </trkpt>
      <trkpt lat="35.176549000" lon="-106.467839000">
        <ele>2036.210</ele>
        <time>2015-03-15T16:27:16.478Z</time>
        <name>WPT.192</name>
      </trkpt>
      <trkpt lat="35.176608000" lon="-106.467735000">
        <ele>2034.410</ele>
        <time>2015-03-15T16:27:35.284Z</time>
        <name>WPT.193</name>
      </trkpt>
      <trkpt lat="35.176631000" lon="-106.467628000">
        <ele>2034.680</ele>
        <time>2015-03-15T16:27:48.128Z</time>
        <name>WPT.194</name>
      </trkpt>
      <trkpt lat="35.176660000" lon="-106.467519000">
        <ele>2036.770</ele>
        <time>2015-03-15T16:28:02.400Z</time>
        <name>WPT.195</name>
      </trkpt>
      <trkpt lat="35.176639000" lon="-106.467407000">
        <ele>2039.630</ele>
        <time>2015-03-15T16:28:13.954Z</time>
        <name>WPT.196</name>
      </trkpt>
      <trkpt lat="35.176704000" lon="-106.467320000">
        <ele>2041.870</ele>
        <time>2015-03-15T16:28:24.242Z</time>
        <name>WPT.197</name>
      </trkpt>
      <trkpt lat="35.176766000" lon="-106.467238000">
        <ele>2043.180</ele>
        <time>2015-03-15T16:28:34.963Z</time>
        <name>WPT.198</name>
      </trkpt>
      <trkpt lat="35.176864000" lon="-106.467279000">
        <ele>2043.760</ele>
        <time>2015-03-15T16:28:48.058Z</time>
        <name>WPT.199</name>
      </trkpt>
      <trkpt lat="35.176953000" lon="-106.467297000">
        <ele>2043.800</ele>
        <time>2015-03-15T16:28:57.793Z</time>
        <name>WPT.200</name>
      </trkpt>
      <trkpt lat="35.177037000" lon="-106.467235000">
        <ele>2043.500</ele>
        <time>2015-03-15T16:29:06.969Z</time>
        <name>WPT.201</name>
      </trkpt>
      <trkpt lat="35.177096000" lon="-106.467145000">
        <ele>2043.370</ele>
        <time>2015-03-15T16:29:16.608Z</time>
        <name>WPT.202</name>
      </trkpt>
      <trkpt lat="35.177124000" lon="-106.467029000">
        <ele>2043.880</ele>
        <time>2015-03-15T16:29:31.378Z</time>
        <name>WPT.203</name>
      </trkpt>
      <trkpt lat="35.177168000" lon="-106.466931000">
        <ele>2045.280</ele>
        <time>2015-03-15T16:29:45.076Z</time>
        <name>WPT.204</name>
      </trkpt>
      <trkpt lat="35.177168000" lon="-106.466931000">
        <ele>2048.170</ele>
        <time>2015-03-15T16:30:12.669Z</time>
        <name>WPT.205</name>
      </trkpt>
      <trkpt lat="35.177165000" lon="-106.466758000">
        <ele>2047.260</ele>
        <time>2015-03-15T16:30:28.069Z</time>
        <name>WPT.206</name>
      </trkpt>
      <trkpt lat="35.177165000" lon="-106.466758000">
        <ele>2044.850</ele>
        <time>2015-03-15T16:30:35.741Z</time>
        <name>WPT.207</name>
      </trkpt>
      <trkpt lat="35.177213000" lon="-106.466665000">
        <ele>2044.630</ele>
        <time>2015-03-15T16:30:49.588Z</time>
        <name>WPT.208</name>
      </trkpt>
      <trkpt lat="35.177223000" lon="-106.466544000">
        <ele>2045.800</ele>
        <time>2015-03-15T16:30:59.587Z</time>
        <name>WPT.209</name>
      </trkpt>
      <trkpt lat="35.177255000" lon="-106.466426000">
        <ele>2048.800</ele>
        <time>2015-03-15T16:31:09.452Z</time>
        <name>WPT.210</name>
      </trkpt>
      <trkpt lat="35.177328000" lon="-106.466361000">
        <ele>2052.020</ele>
        <time>2015-03-15T16:31:18.068Z</time>
        <name>WPT.211</name>
      </trkpt>
      <trkpt lat="35.177421000" lon="-106.466350000">
        <ele>2053.990</ele>
        <time>2015-03-15T16:31:26.912Z</time>
        <name>WPT.212</name>
      </trkpt>
      <trkpt lat="35.177513000" lon="-106.466366000">
        <ele>2055.120</ele>
        <time>2015-03-15T16:31:35.506Z</time>
        <name>WPT.213</name>
      </trkpt>
      <trkpt lat="35.177594000" lon="-106.466443000">
        <ele>2055.960</ele>
        <time>2015-03-15T16:31:44.510Z</time>
        <name>WPT.214</name>
      </trkpt>
      <trkpt lat="35.177687000" lon="-106.466468000">
        <ele>2056.800</ele>
        <time>2015-03-15T16:31:52.920Z</time>
        <name>WPT.215</name>
      </trkpt>
      <trkpt lat="35.177785000" lon="-106.466444000">
        <ele>2057.630</ele>
        <time>2015-03-15T16:32:01.944Z</time>
        <name>WPT.216</name>
      </trkpt>
      <trkpt lat="35.177876000" lon="-106.466458000">
        <ele>2058.450</ele>
        <time>2015-03-15T16:32:11.094Z</time>
        <name>WPT.217</name>
      </trkpt>
      <trkpt lat="35.177937000" lon="-106.466376000">
        <ele>2059.340</ele>
        <time>2015-03-15T16:32:20.983Z</time>
        <name>WPT.218</name>
      </trkpt>
      <trkpt lat="35.178029000" lon="-106.466336000">
        <ele>2060.330</ele>
        <time>2015-03-15T16:32:31.414Z</time>
        <name>WPT.219</name>
      </trkpt>
      <trkpt lat="35.178123000" lon="-106.466307000">
        <ele>2061.340</ele>
        <time>2015-03-15T16:32:40.602Z</time>
        <name>WPT.220</name>
      </trkpt>
      <trkpt lat="35.178213000" lon="-106.466274000">
        <ele>2062.350</ele>
        <time>2015-03-15T16:32:49.118Z</time>
        <name>WPT.221</name>
      </trkpt>
      <trkpt lat="35.178274000" lon="-106.466189000">
        <ele>2063.240</ele>
        <time>2015-03-15T16:32:58.209Z</time>
        <name>WPT.222</name>
      </trkpt>
      <trkpt lat="35.178338000" lon="-106.466106000">
        <ele>2063.840</ele>
        <time>2015-03-15T16:33:08.044Z</time>
        <name>WPT.223</name>
      </trkpt>
      <trkpt lat="35.178413000" lon="-106.466044000">
        <ele>2064.540</ele>
        <time>2015-03-15T16:33:16.952Z</time>
        <name>WPT.224</name>
      </trkpt>
      <trkpt lat="35.178516000" lon="-106.466054000">
        <ele>2065.840</ele>
        <time>2015-03-15T16:33:28Z</time>
        <name>WPT.225</name>
      </trkpt>
      <trkpt lat="35.178528000" lon="-106.465943000">
        <ele>2067.610</ele>
        <time>2015-03-15T16:33:39.052Z</time>
        <name>WPT.226</name>
      </trkpt>
      <trkpt lat="35.178528000" lon="-106.465943000">
        <ele>2069.910</ele>
        <time>2015-03-15T16:36:02.600Z</time>
        <name>WPT.227</name>
      </trkpt>
      <trkpt lat="35.178549000" lon="-106.465831000">
        <ele>2067.620</ele>
        <time>2015-03-15T16:36:35.474Z</time>
        <name>WPT.228</name>
      </trkpt>
      <trkpt lat="35.178519000" lon="-106.465724000">
        <ele>2067.800</ele>
        <time>2015-03-15T16:36:46.258Z</time>
        <name>WPT.229</name>
      </trkpt>
      <trkpt lat="35.178504000" lon="-106.465606000">
        <ele>2070.180</ele>
        <time>2015-03-15T16:36:56.071Z</time>
        <name>WPT.230</name>
      </trkpt>
      <trkpt lat="35.178552000" lon="-106.465513000">
        <ele>2073.340</ele>
        <time>2015-03-15T16:37:03.602Z</time>
        <name>WPT.231</name>
      </trkpt>
      <trkpt lat="35.178615000" lon="-106.465434000">
        <ele>2075.710</ele>
        <time>2015-03-15T16:37:11.165Z</time>
        <name>WPT.232</name>
      </trkpt>
      <trkpt lat="35.178633000" lon="-106.465315000">
        <ele>2077.160</ele>
        <time>2015-03-15T16:37:20.707Z</time>
        <name>WPT.233</name>
      </trkpt>
      <trkpt lat="35.178668000" lon="-106.465213000">
        <ele>2078.110</ele>
        <time>2015-03-15T16:37:31.139Z</time>
        <name>WPT.234</name>
      </trkpt>
      <trkpt lat="35.178632000" lon="-106.465099000">
        <ele>2078.910</ele>
        <time>2015-03-15T16:37:43.143Z</time>
        <name>WPT.235</name>
      </trkpt>
      <trkpt lat="35.178676000" lon="-106.464987000">
        <ele>2079.800</ele>
        <time>2015-03-15T16:37:52.282Z</time>
        <name>WPT.236</name>
      </trkpt>
      <trkpt lat="35.178715000" lon="-106.464880000">
        <ele>2081.000</ele>
        <time>2015-03-15T16:37:59.783Z</time>
        <name>WPT.237</name>
      </trkpt>
      <trkpt lat="35.178723000" lon="-106.464767000">
        <ele>2082.240</ele>
        <time>2015-03-15T16:38:07.096Z</time>
        <name>WPT.238</name>
      </trkpt>
      <trkpt lat="35.178717000" lon="-106.464645000">
        <ele>2083.300</ele>
        <time>2015-03-15T16:38:14.610Z</time>
        <name>WPT.239</name>
      </trkpt>
      <trkpt lat="35.178777000" lon="-106.464542000">
        <ele>2084.160</ele>
        <time>2015-03-15T16:38:22.552Z</time>
        <name>WPT.240</name>
      </trkpt>
      <trkpt lat="35.178753000" lon="-106.464433000">
        <ele>2084.790</ele>
        <time>2015-03-15T16:38:31.333Z</time>
        <name>WPT.241</name>
      </trkpt>
      <trkpt lat="35.178831000" lon="-106.464361000">
        <ele>2085.380</ele>
        <time>2015-03-15T16:38:43.077Z</time>
        <name>WPT.242</name>
      </trkpt>
      <trkpt lat="35.178831000" lon="-106.464361000">
        <ele>2086.120</ele>
        <time>2015-03-15T16:39:06.709Z</time>
        <name>WPT.243</name>
      </trkpt>
      <trkpt lat="35.178861000" lon="-106.464135000">
        <ele>2085.230</ele>
        <time>2015-03-15T16:39:24.053Z</time>
        <name>WPT.244</name>
      </trkpt>
      <trkpt lat="35.178861000" lon="-106.464135000">
        <ele>2083.440</ele>
        <time>2015-03-15T16:39:41.032Z</time>
        <name>WPT.245</name>
      </trkpt>
      <trkpt lat="35.178952000" lon="-106.464095000">
        <ele>2082.260</ele>
        <time>2015-03-15T16:39:58.834Z</time>
        <name>WPT.246</name>
      </trkpt>
      <trkpt lat="35.178972000" lon="-106.463974000">
        <ele>2082.780</ele>
        <time>2015-03-15T16:40:08.896Z</time>
        <name>WPT.247</name>
      </trkpt>
      <trkpt lat="35.179017000" lon="-106.463864000">
        <ele>2085.250</ele>
        <time>2015-03-15T16:40:17.159Z</time>
        <name>WPT.248</name>
      </trkpt>
      <trkpt lat="35.179077000" lon="-106.463771000">
        <ele>2088.210</ele>
        <time>2015-03-15T16:40:25.537Z</time>
        <name>WPT.249</name>
      </trkpt>
      <trkpt lat="35.179139000" lon="-106.463676000">
        <ele>2090.140</ele>
        <time>2015-03-15T16:40:34.784Z</time>
        <name>WPT.250</name>
      </trkpt>
      <trkpt lat="35.179219000" lon="-106.463624000">
        <ele>2091.240</ele>
        <time>2015-03-15T16:40:45.006Z</time>
        <name>WPT.251</name>
      </trkpt>
      <trkpt lat="35.179319000" lon="-106.463650000">
        <ele>2092.040</ele>
        <time>2015-03-15T16:40:56.641Z</time>
        <name>WPT.252</name>
      </trkpt>
      <trkpt lat="35.179381000" lon="-106.463567000">
        <ele>2092.940</ele>
        <time>2015-03-15T16:41:08.452Z</time>
        <name>WPT.253</name>
      </trkpt>
      <trkpt lat="35.179397000" lon="-106.463450000">
        <ele>2094.160</ele>
        <time>2015-03-15T16:41:20.414Z</time>
        <name>WPT.254</name>
      </trkpt>
      <trkpt lat="35.179439000" lon="-106.463331000">
        <ele>2095.540</ele>
        <time>2015-03-15T16:41:31.890Z</time>
        <name>WPT.255</name>
      </trkpt>
      <trkpt lat="35.179465000" lon="-106.463214000">
        <ele>2096.840</ele>
        <time>2015-03-15T16:41:39.631Z</time>
        <name>WPT.256</name>
      </trkpt>
      <trkpt lat="35.179538000" lon="-106.463148000">
        <ele>2097.990</ele>
        <time>2015-03-15T16:41:46.147Z</time>
        <name>WPT.257</name>
      </trkpt>
      <trkpt lat="35.179597000" lon="-106.463056000">
        <ele>2098.870</ele>
        <time>2015-03-15T16:41:53.421Z</time>
        <name>WPT.258</name>
      </trkpt>
      <trkpt lat="35.179622000" lon="-106.462941000">
        <ele>2099.510</ele>
        <time>2015-03-15T16:42:01.570Z</time>
        <name>WPT.259</name>
      </trkpt>
      <trkpt lat="35.179658000" lon="-106.462830000">
        <ele>2100.030</ele>
        <time>2015-03-15T16:42:10.343Z</time>
        <name>WPT.260</name>
      </trkpt>
      <trkpt lat="35.179703000" lon="-106.462730000">
        <ele>2100.610</ele>
        <time>2015-03-15T16:42:19.878Z</time>
        <name>WPT.261</name>
      </trkpt>
      <trkpt lat="35.179765000" lon="-106.462636000">
        <ele>2101.490</ele>
        <time>2015-03-15T16:42:30.105Z</time>
        <name>WPT.262</name>
      </trkpt>
      <trkpt lat="35.179839000" lon="-106.462570000">
        <ele>2102.770</ele>
        <time>2015-03-15T16:42:39.056Z</time>
        <name>WPT.263</name>
      </trkpt>
      <trkpt lat="35.179901000" lon="-106.462478000">
        <ele>2104.150</ele>
        <time>2015-03-15T16:42:48.103Z</time>
        <name>WPT.264</name>
      </trkpt>
      <trkpt lat="35.179950000" lon="-106.462375000">
        <ele>2105.290</ele>
        <time>2015-03-15T16:42:56.396Z</time>
        <name>WPT.265</name>
      </trkpt>
      <trkpt lat="35.179990000" lon="-106.462263000">
        <ele>2106.220</ele>
        <time>2015-03-15T16:43:05.191Z</time>
        <name>WPT.266</name>
      </trkpt>
      <trkpt lat="35.180041000" lon="-106.462155000">
        <ele>2107.090</ele>
        <time>2015-03-15T16:43:14.648Z</time>
        <name>WPT.267</name>
      </trkpt>
      <trkpt lat="35.180099000" lon="-106.462060000">
        <ele>2107.970</ele>
        <time>2015-03-15T16:43:22.889Z</time>
        <name>WPT.268</name>
      </trkpt>
      <trkpt lat="35.180173000" lon="-106.461986000">
        <ele>2108.870</ele>
        <time>2015-03-15T16:43:31.061Z</time>
        <name>WPT.269</name>
      </trkpt>
      <trkpt lat="35.180173000" lon="-106.461986000">
        <ele>2109.680</ele>
        <time>2015-03-15T16:45:21.088Z</time>
        <name>WPT.270</name>
      </trkpt>
      <trkpt lat="35.180145000" lon="-106.461817000">
        <ele>2108.770</ele>
        <time>2015-03-15T16:46:23.900Z</time>
        <name>WPT.271</name>
      </trkpt>
      <trkpt lat="35.180158000" lon="-106.461703000">
        <ele>2108.210</ele>
        <time>2015-03-15T16:47:04.159Z</time>
        <name>WPT.272</name>
      </trkpt>
      <trkpt lat="35.180183000" lon="-106.461596000">
        <ele>2109.100</ele>
        <time>2015-03-15T16:47:43.109Z</time>
        <name>WPT.273</name>
      </trkpt>
      <trkpt lat="35.180183000" lon="-106.461596000">
        <ele>2110.860</ele>
        <time>2015-03-15T16:48:37.975Z</time>
        <name>WPT.274</name>
      </trkpt>
      <trkpt lat="35.180236000" lon="-106.461466000">
        <ele>2109.890</ele>
        <time>2015-03-15T16:48:51.092Z</time>
        <name>WPT.275</name>
      </trkpt>
      <trkpt lat="35.180236000" lon="-106.461466000">
        <ele>2107.920</ele>
        <time>2015-03-15T16:49:06.994Z</time>
        <name>WPT.276</name>
      </trkpt>
      <trkpt lat="35.180349000" lon="-106.461362000">
        <ele>2107.550</ele>
        <time>2015-03-15T16:49:45.753Z</time>
        <name>WPT.277</name>
      </trkpt>
      <trkpt lat="35.180400000" lon="-106.461269000">
        <ele>2108.570</ele>
        <time>2015-03-15T16:50:07.514Z</time>
        <name>WPT.278</name>
      </trkpt>
      <trkpt lat="35.180438000" lon="-106.461165000">
        <ele>2111.680</ele>
        <time>2015-03-15T16:50:29.572Z</time>
        <name>WPT.279</name>
      </trkpt>
      <trkpt lat="35.180540000" lon="-106.461139000">
        <ele>2115.460</ele>
        <time>2015-03-15T16:50:53.103Z</time>
        <name>WPT.280</name>
      </trkpt>
      <trkpt lat="35.180540000" lon="-106.461139000">
        <ele>2118.060</ele>
        <time>2015-03-15T16:51:25.188Z</time>
        <name>WPT.281</name>
      </trkpt>
      <trkpt lat="35.180652000" lon="-106.461142000">
        <ele>2116.670</ele>
        <time>2015-03-15T16:51:40.507Z</time>
        <name>WPT.282</name>
      </trkpt>
      <trkpt lat="35.180738000" lon="-106.461090000">
        <ele>2116.940</ele>
        <time>2015-03-15T16:51:51.066Z</time>
        <name>WPT.283</name>
      </trkpt>
      <trkpt lat="35.180738000" lon="-106.461090000">
        <ele>2120.750</ele>
        <time>2015-03-15T16:51:59.207Z</time>
        <name>WPT.284</name>
      </trkpt>
      <trkpt lat="35.180798000" lon="-106.460938000">
        <ele>2119.850</ele>
        <time>2015-03-15T16:52:17.077Z</time>
        <name>WPT.285</name>
      </trkpt>
      <trkpt lat="35.180859000" lon="-106.460846000">
        <ele>2119.230</ele>
        <time>2015-03-15T16:52:24.042Z</time>
        <name>WPT.286</name>
      </trkpt>
      <trkpt lat="35.180859000" lon="-106.460846000">
        <ele>2123.580</ele>
        <time>2015-03-15T16:52:32.780Z</time>
        <name>WPT.287</name>
      </trkpt>
      <trkpt lat="35.180916000" lon="-106.460761000">
        <ele>2120.500</ele>
        <time>2015-03-15T16:53:03.504Z</time>
        <name>WPT.288</name>
      </trkpt>
      <trkpt lat="35.180971000" lon="-106.460672000">
        <ele>2120.500</ele>
        <time>2015-03-15T16:53:16.575Z</time>
        <name>WPT.289</name>
      </trkpt>
      <trkpt lat="35.180977000" lon="-106.460560000">
        <ele>2123.810</ele>
        <time>2015-03-15T16:53:28.116Z</time>
        <name>WPT.290</name>
      </trkpt>
      <trkpt lat="35.180957000" lon="-106.460452000">
        <ele>2127.580</ele>
        <time>2015-03-15T16:53:36.286Z</time>
        <name>WPT.291</name>
      </trkpt>
      <trkpt lat="35.181003000" lon="-106.460356000">
        <ele>2129.170</ele>
        <time>2015-03-15T16:53:43.686Z</time>
        <name>WPT.292</name>
      </trkpt>
      <trkpt lat="35.181084000" lon="-106.460275000">
        <ele>2129.220</ele>
        <time>2015-03-15T16:53:54.279Z</time>
        <name>WPT.293</name>
      </trkpt>
      <trkpt lat="35.181109000" lon="-106.460162000">
        <ele>2129.140</ele>
        <time>2015-03-15T16:54:05.649Z</time>
        <name>WPT.294</name>
      </trkpt>
      <trkpt lat="35.181188000" lon="-106.460102000">
        <ele>2129.510</ele>
        <time>2015-03-15T16:54:17.230Z</time>
        <name>WPT.295</name>
      </trkpt>
      <trkpt lat="35.181259000" lon="-106.460030000">
        <ele>2130.240</ele>
        <time>2015-03-15T16:54:27.068Z</time>
        <name>WPT.296</name>
      </trkpt>
      <trkpt lat="35.181356000" lon="-106.460023000">
        <ele>2131.200</ele>
        <time>2015-03-15T16:54:37.745Z</time>
        <name>WPT.297</name>
      </trkpt>
      <trkpt lat="35.181440000" lon="-106.459964000">
        <ele>2132.450</ele>
        <time>2015-03-15T16:54:48.064Z</time>
        <name>WPT.298</name>
      </trkpt>
      <trkpt lat="35.181440000" lon="-106.459964000">
        <ele>2133.990</ele>
        <time>2015-03-15T16:54:53.169Z</time>
        <name>WPT.299</name>
      </trkpt>
      <trkpt lat="35.181536000" lon="-106.459939000">
        <ele>2131.810</ele>
        <time>2015-03-15T16:55:11.236Z</time>
        <name>WPT.300</name>
      </trkpt>
      <trkpt lat="35.181633000" lon="-106.459936000">
        <ele>2132.000</ele>
        <time>2015-03-15T16:55:21.074Z</time>
        <name>WPT.301</name>
      </trkpt>
      <trkpt lat="35.181633000" lon="-106.459936000">
        <ele>2135.640</ele>
        <time>2015-03-15T16:59:08.820Z</time>
        <name>WPT.302</name>
      </trkpt>
      <trkpt lat="35.181850000" lon="-106.459775000">
        <ele>2134.740</ele>
        <time>2015-03-15T16:59:46.065Z</time>
        <name>WPT.303</name>
      </trkpt>
      <trkpt lat="35.181850000" lon="-106.459775000">
        <ele>2131.970</ele>
        <time>2015-03-15T17:00:14.514Z</time>
        <name>WPT.304</name>
      </trkpt>
      <trkpt lat="35.181981000" lon="-106.459733000">
        <ele>2131.870</ele>
        <time>2015-03-15T17:00:32.097Z</time>
        <name>WPT.305</name>
      </trkpt>
      <trkpt lat="35.181981000" lon="-106.459733000">
        <ele>2131.180</ele>
        <time>2015-03-15T17:00:40.197Z</time>
        <name>WPT.306</name>
      </trkpt>
      <trkpt lat="35.182183000" lon="-106.459845000">
        <ele>2130.210</ele>
        <time>2015-03-15T17:02:14.070Z</time>
        <name>WPT.307</name>
      </trkpt>
      <trkpt lat="35.182183000" lon="-106.459845000">
        <ele>2129.010</ele>
        <time>2015-03-15T17:02:47.158Z</time>
        <name>WPT.308</name>
      </trkpt>
      <trkpt lat="35.182060000" lon="-106.459780000">
        <ele>2128.420</ele>
        <time>2015-03-15T17:03:06.969Z</time>
        <name>WPT.309</name>
      </trkpt>
      <trkpt lat="35.181973000" lon="-106.459740000">
        <ele>2132.380</ele>
        <time>2015-03-15T17:03:16.067Z</time>
        <name>WPT.310</name>
      </trkpt>
      <trkpt lat="35.181973000" lon="-106.459740000">
        <ele>2153.200</ele>
        <time>2015-03-15T17:03:38.096Z</time>
        <name>WPT.311</name>
      </trkpt>
      <trkpt lat="35.181973000" lon="-106.459740000">
        <ele>2152.160</ele>
        <time>2015-03-15T17:03:43.366Z</time>
        <name>WPT.312</name>
      </trkpt>
      <trkpt lat="35.181881000" lon="-106.459766000">
        <ele>2146.530</ele>
        <time>2015-03-15T17:03:59.506Z</time>
        <name>WPT.313</name>
      </trkpt>
      <trkpt lat="35.181807000" lon="-106.459703000">
        <ele>2149.400</ele>
        <time>2015-03-15T17:04:08.085Z</time>
        <name>WPT.314</name>
      </trkpt>
      <trkpt lat="35.181807000" lon="-106.459703000">
        <ele>2155.740</ele>
        <time>2015-03-15T17:04:33.263Z</time>
        <name>WPT.315</name>
      </trkpt>
      <trkpt lat="35.181719000" lon="-106.459557000">
        <ele>2154.710</ele>
        <time>2015-03-15T17:04:59.072Z</time>
        <name>WPT.316</name>
      </trkpt>
      <trkpt lat="35.181719000" lon="-106.459557000">
        <ele>2151.640</ele>
        <time>2015-03-15T17:05:05.157Z</time>
        <name>WPT.317</name>
      </trkpt>
      <trkpt lat="35.181707000" lon="-106.459437000">
        <ele>2150.940</ele>
        <time>2015-03-15T17:05:28.106Z</time>
        <name>WPT.318</name>
      </trkpt>
      <trkpt lat="35.181707000" lon="-106.459437000">
        <ele>2149.860</ele>
        <time>2015-03-15T17:05:32.165Z</time>
        <name>WPT.319</name>
      </trkpt>
      <trkpt lat="35.181702000" lon="-106.459298000">
        <ele>2149.200</ele>
        <time>2015-03-15T17:05:46.838Z</time>
        <name>WPT.320</name>
      </trkpt>
      <trkpt lat="35.181713000" lon="-106.459184000">
        <ele>2150.280</ele>
        <time>2015-03-15T17:05:54.392Z</time>
        <name>WPT.321</name>
      </trkpt>
      <trkpt lat="35.181687000" lon="-106.459063000">
        <ele>2154.480</ele>
        <time>2015-03-15T17:06:01.968Z</time>
        <name>WPT.322</name>
      </trkpt>
      <trkpt lat="35.181683000" lon="-106.458951000">
        <ele>2159.330</ele>
        <time>2015-03-15T17:06:09.135Z</time>
        <name>WPT.323</name>
      </trkpt>
      <trkpt lat="35.181684000" lon="-106.458828000">
        <ele>2162.330</ele>
        <time>2015-03-15T17:06:18.076Z</time>
        <name>WPT.324</name>
      </trkpt>
      <trkpt lat="35.181688000" lon="-106.458716000">
        <ele>2163.840</ele>
        <time>2015-03-15T17:06:27.141Z</time>
        <name>WPT.325</name>
      </trkpt>
      <trkpt lat="35.181677000" lon="-106.458601000">
        <ele>2164.940</ele>
        <time>2015-03-15T17:06:37.099Z</time>
        <name>WPT.326</name>
      </trkpt>
      <trkpt lat="35.181692000" lon="-106.458485000">
        <ele>2166.270</ele>
        <time>2015-03-15T17:06:45.650Z</time>
        <name>WPT.327</name>
      </trkpt>
      <trkpt lat="35.181693000" lon="-106.458367000">
        <ele>2167.700</ele>
        <time>2015-03-15T17:06:53.684Z</time>
        <name>WPT.328</name>
      </trkpt>
      <trkpt lat="35.181683000" lon="-106.458246000">
        <ele>2169.020</ele>
        <time>2015-03-15T17:07:02.091Z</time>
        <name>WPT.329</name>
      </trkpt>
      <trkpt lat="35.181683000" lon="-106.458246000">
        <ele>2170.470</ele>
        <time>2015-03-15T17:08:02.521Z</time>
        <name>WPT.330</name>
      </trkpt>
      <trkpt lat="35.181671000" lon="-106.458116000">
        <ele>2169.520</ele>
        <time>2015-03-15T17:08:20.794Z</time>
        <name>WPT.331</name>
      </trkpt>
      <trkpt lat="35.181658000" lon="-106.458007000">
        <ele>2168.990</ele>
        <time>2015-03-15T17:08:29.778Z</time>
        <name>WPT.332</name>
      </trkpt>
      <trkpt lat="35.181626000" lon="-106.457896000">
        <ele>2170.320</ele>
        <time>2015-03-15T17:08:38.898Z</time>
        <name>WPT.333</name>
      </trkpt>
      <trkpt lat="35.181579000" lon="-106.457802000">
        <ele>2172.660</ele>
        <time>2015-03-15T17:08:47.078Z</time>
        <name>WPT.334</name>
      </trkpt>
      <trkpt lat="35.181579000" lon="-106.457802000">
        <ele>2175.170</ele>
        <time>2015-03-15T17:09:11.674Z</time>
        <name>WPT.335</name>
      </trkpt>
      <trkpt lat="35.181509000" lon="-106.457731000">
        <ele>2172.780</ele>
        <time>2015-03-15T17:09:22.921Z</time>
        <name>WPT.336</name>
      </trkpt>
      <trkpt lat="35.181474000" lon="-106.457626000">
        <ele>2172.430</ele>
        <time>2015-03-15T17:09:29.480Z</time>
        <name>WPT.337</name>
      </trkpt>
      <trkpt lat="35.181471000" lon="-106.457505000">
        <ele>2173.430</ele>
        <time>2015-03-15T17:09:35.568Z</time>
        <name>WPT.338</name>
      </trkpt>
      <trkpt lat="35.181495000" lon="-106.457394000">
        <ele>2175.090</ele>
        <time>2015-03-15T17:09:41.054Z</time>
        <name>WPT.339</name>
      </trkpt>
      <trkpt lat="35.181495000" lon="-106.457394000">
        <ele>2171.910</ele>
        <time>2015-03-15T17:10:14.039Z</time>
        <name>WPT.340</name>
      </trkpt>
      <trkpt lat="35.181465000" lon="-106.457258000">
        <ele>2170.460</ele>
        <time>2015-03-15T17:10:28.070Z</time>
        <name>WPT.341</name>
      </trkpt>
      <trkpt lat="35.181465000" lon="-106.457258000">
        <ele>2169.650</ele>
        <time>2015-03-15T17:10:34.185Z</time>
        <name>WPT.342</name>
      </trkpt>
      <trkpt lat="35.181504000" lon="-106.457118000">
        <ele>2168.930</ele>
        <time>2015-03-15T17:10:44.091Z</time>
        <name>WPT.343</name>
      </trkpt>
      <trkpt lat="35.181504000" lon="-106.457118000">
        <ele>2167.510</ele>
        <time>2015-03-15T17:10:51.191Z</time>
        <name>WPT.344</name>
      </trkpt>
      <trkpt lat="35.181582000" lon="-106.456935000">
        <ele>2166.910</ele>
        <time>2015-03-15T17:11:09.485Z</time>
        <name>WPT.345</name>
      </trkpt>
      <trkpt lat="35.181668000" lon="-106.456899000">
        <ele>2168.300</ele>
        <time>2015-03-15T17:11:16.048Z</time>
        <name>WPT.346</name>
      </trkpt>
      <trkpt lat="35.181668000" lon="-106.456899000">
        <ele>2176.480</ele>
        <time>2015-03-15T17:11:26.426Z</time>
        <name>WPT.347</name>
      </trkpt>
      <trkpt lat="35.181725000" lon="-106.456803000">
        <ele>2172.510</ele>
        <time>2015-03-15T17:11:38.763Z</time>
        <name>WPT.348</name>
      </trkpt>
      <trkpt lat="35.181774000" lon="-106.456703000">
        <ele>2171.990</ele>
        <time>2015-03-15T17:11:44.885Z</time>
        <name>WPT.349</name>
      </trkpt>
      <trkpt lat="35.181848000" lon="-106.456634000">
        <ele>2175.340</ele>
        <time>2015-03-15T17:11:50.071Z</time>
        <name>WPT.350</name>
      </trkpt>
      <trkpt lat="35.181848000" lon="-106.456634000">
        <ele>2180.450</ele>
        <time>2015-03-15T17:12:14.156Z</time>
        <name>WPT.351</name>
      </trkpt>
      <trkpt lat="35.181990000" lon="-106.456637000">
        <ele>2178.670</ele>
        <time>2015-03-15T17:12:50.036Z</time>
        <name>WPT.352</name>
      </trkpt>
      <trkpt lat="35.181990000" lon="-106.456637000">
        <ele>2178.060</ele>
        <time>2015-03-15T17:12:59.184Z</time>
        <name>WPT.353</name>
      </trkpt>
      <trkpt lat="35.182097000" lon="-106.456599000">
        <ele>2177.430</ele>
        <time>2015-03-15T17:13:11.298Z</time>
        <name>WPT.354</name>
      </trkpt>
      <trkpt lat="35.182185000" lon="-106.456554000">
        <ele>2178.250</ele>
        <time>2015-03-15T17:13:20.038Z</time>
        <name>WPT.355</name>
      </trkpt>
      <trkpt lat="35.182185000" lon="-106.456554000">
        <ele>2185.290</ele>
        <time>2015-03-15T17:13:22.162Z</time>
        <name>WPT.356</name>
      </trkpt>
      <trkpt lat="35.182281000" lon="-106.456388000">
        <ele>2184.360</ele>
        <time>2015-03-15T17:14:19.993Z</time>
        <name>WPT.357</name>
      </trkpt>
      <trkpt lat="35.182358000" lon="-106.456316000">
        <ele>2183.520</ele>
        <time>2015-03-15T17:14:29.851Z</time>
        <name>WPT.358</name>
      </trkpt>
      <trkpt lat="35.182364000" lon="-106.456200000">
        <ele>2186.900</ele>
        <time>2015-03-15T17:14:39.133Z</time>
        <name>WPT.359</name>
      </trkpt>
      <trkpt lat="35.182393000" lon="-106.456091000">
        <ele>2191.970</ele>
        <time>2015-03-15T17:14:47.724Z</time>
        <name>WPT.360</name>
      </trkpt>
      <trkpt lat="35.182451000" lon="-106.455993000">
        <ele>2195.200</ele>
        <time>2015-03-15T17:14:57.429Z</time>
        <name>WPT.361</name>
      </trkpt>
      <trkpt lat="35.182502000" lon="-106.455900000">
        <ele>2196.480</ele>
        <time>2015-03-15T17:15:07.504Z</time>
        <name>WPT.362</name>
      </trkpt>
      <trkpt lat="35.182576000" lon="-106.455828000">
        <ele>2196.870</ele>
        <time>2015-03-15T17:15:18.776Z</time>
        <name>WPT.363</name>
      </trkpt>
      <trkpt lat="35.182613000" lon="-106.455725000">
        <ele>2197.320</ele>
        <time>2015-03-15T17:15:31.221Z</time>
        <name>WPT.364</name>
      </trkpt>
      <trkpt lat="35.182669000" lon="-106.455639000">
        <ele>2198.270</ele>
        <time>2015-03-15T17:15:45.319Z</time>
        <name>WPT.365</name>
      </trkpt>
      <trkpt lat="35.182707000" lon="-106.455539000">
        <ele>2199.530</ele>
        <time>2015-03-15T17:15:58.598Z</time>
        <name>WPT.366</name>
      </trkpt>
      <trkpt lat="35.182778000" lon="-106.455470000">
        <ele>2200.840</ele>
        <time>2015-03-15T17:16:07.451Z</time>
        <name>WPT.367</name>
      </trkpt>
      <trkpt lat="35.182874000" lon="-106.455446000">
        <ele>2202.220</ele>
        <time>2015-03-15T17:16:16.044Z</time>
        <name>WPT.368</name>
      </trkpt>
      <trkpt lat="35.182874000" lon="-106.455446000">
        <ele>2203.930</ele>
        <time>2015-03-15T17:17:30.612Z</time>
        <name>WPT.369</name>
      </trkpt>
      <trkpt lat="35.182988000" lon="-106.455405000">
        <ele>2202.950</ele>
        <time>2015-03-15T17:18:50.710Z</time>
        <name>WPT.370</name>
      </trkpt>
      <trkpt lat="35.183076000" lon="-106.455356000">
        <ele>2202.760</ele>
        <time>2015-03-15T17:19:04.055Z</time>
        <name>WPT.371</name>
      </trkpt>
      <trkpt lat="35.183076000" lon="-106.455356000">
        <ele>2206.870</ele>
        <time>2015-03-15T17:19:08.165Z</time>
        <name>WPT.372</name>
      </trkpt>
      <trkpt lat="35.183245000" lon="-106.455394000">
        <ele>2205.970</ele>
        <time>2015-03-15T17:19:29.056Z</time>
        <name>WPT.373</name>
      </trkpt>
      <trkpt lat="35.183245000" lon="-106.455394000">
        <ele>2202.970</ele>
        <time>2015-03-15T17:19:39.175Z</time>
        <name>WPT.374</name>
      </trkpt>
      <trkpt lat="35.183395000" lon="-106.455420000">
        <ele>2202.930</ele>
        <time>2015-03-15T17:19:57.403Z</time>
        <name>WPT.375</name>
      </trkpt>
      <trkpt lat="35.183473000" lon="-106.455356000">
        <ele>2204.650</ele>
        <time>2015-03-15T17:20:04.611Z</time>
        <name>WPT.376</name>
      </trkpt>
      <trkpt lat="35.183555000" lon="-106.455305000">
        <ele>2208.800</ele>
        <time>2015-03-15T17:20:11.066Z</time>
        <name>WPT.377</name>
      </trkpt>
      <trkpt lat="35.183555000" lon="-106.455305000">
        <ele>2214.720</ele>
        <time>2015-03-15T17:20:18.997Z</time>
        <name>WPT.378</name>
      </trkpt>
      <trkpt lat="35.183638000" lon="-106.455252000">
        <ele>2211.650</ele>
        <time>2015-03-15T17:20:39.275Z</time>
        <name>WPT.379</name>
      </trkpt>
      <trkpt lat="35.183732000" lon="-106.455268000">
        <ele>2211.430</ele>
        <time>2015-03-15T17:20:52.081Z</time>
        <name>WPT.380</name>
      </trkpt>
      <trkpt lat="35.183732000" lon="-106.455268000">
        <ele>2215.100</ele>
        <time>2015-03-15T17:21:04.183Z</time>
        <name>WPT.381</name>
      </trkpt>
      <trkpt lat="35.183892000" lon="-106.455212000">
        <ele>2214.190</ele>
        <time>2015-03-15T17:22:01.068Z</time>
        <name>WPT.382</name>
      </trkpt>
      <trkpt lat="35.183892000" lon="-106.455212000">
        <ele>2211.300</ele>
        <time>2015-03-15T17:22:58.927Z</time>
        <name>WPT.383</name>
      </trkpt>
      <trkpt lat="35.184030000" lon="-106.455135000">
        <ele>2211.200</ele>
        <time>2015-03-15T17:23:16.058Z</time>
        <name>WPT.384</name>
      </trkpt>
      <trkpt lat="35.184030000" lon="-106.455135000">
        <ele>2210.490</ele>
        <time>2015-03-15T17:23:27.185Z</time>
        <name>WPT.385</name>
      </trkpt>
      <trkpt lat="35.184119000" lon="-106.455032000">
        <ele>2209.480</ele>
        <time>2015-03-15T17:23:39.720Z</time>
        <name>WPT.386</name>
      </trkpt>
      <trkpt lat="35.184196000" lon="-106.454968000">
        <ele>2210.480</ele>
        <time>2015-03-15T17:23:47.044Z</time>
        <name>WPT.387</name>
      </trkpt>
      <trkpt lat="35.184196000" lon="-106.454968000">
        <ele>2218.110</ele>
        <time>2015-03-15T17:23:48.917Z</time>
        <name>WPT.388</name>
      </trkpt>
      <trkpt lat="35.184245000" lon="-106.454868000">
        <ele>2214.220</ele>
        <time>2015-03-15T17:24:02.028Z</time>
        <name>WPT.389</name>
      </trkpt>
      <trkpt lat="35.184324000" lon="-106.454793000">
        <ele>2213.740</ele>
        <time>2015-03-15T17:24:09.110Z</time>
        <name>WPT.390</name>
      </trkpt>
      <trkpt lat="35.184324000" lon="-106.454793000">
        <ele>2219.680</ele>
        <time>2015-03-15T17:24:20.194Z</time>
        <name>WPT.391</name>
      </trkpt>
      <trkpt lat="35.184469000" lon="-106.454719000">
        <ele>2218.770</ele>
        <time>2015-03-15T17:24:48.061Z</time>
        <name>WPT.392</name>
      </trkpt>
      <trkpt lat="35.184545000" lon="-106.454641000">
        <ele>2218.110</ele>
        <time>2015-03-15T17:24:54.995Z</time>
        <name>WPT.393</name>
      </trkpt>
      <trkpt lat="35.184537000" lon="-106.454525000">
        <ele>2221.770</ele>
        <time>2015-03-15T17:25:01.062Z</time>
        <name>WPT.394</name>
      </trkpt>
      <trkpt lat="35.184537000" lon="-106.454525000">
        <ele>2229.610</ele>
        <time>2015-03-15T17:26:35.377Z</time>
        <name>WPT.395</name>
      </trkpt>
      <trkpt lat="35.184586000" lon="-106.454383000">
        <ele>2228.440</ele>
        <time>2015-03-15T17:26:53.037Z</time>
        <name>WPT.396</name>
      </trkpt>
      <trkpt lat="35.184669000" lon="-106.454317000">
        <ele>2227.020</ele>
        <time>2015-03-15T17:27:01.793Z</time>
        <name>WPT.397</name>
      </trkpt>
      <trkpt lat="35.184737000" lon="-106.454244000">
        <ele>2228.280</ele>
        <time>2015-03-15T17:27:09.783Z</time>
        <name>WPT.398</name>
      </trkpt>
      <trkpt lat="35.184829000" lon="-106.454192000">
        <ele>2231.220</ele>
        <time>2015-03-15T17:27:19.010Z</time>
        <name>WPT.399</name>
      </trkpt>
      <trkpt lat="35.184857000" lon="-106.454086000">
        <ele>2233.920</ele>
        <time>2015-03-15T17:27:29.542Z</time>
        <name>WPT.400</name>
      </trkpt>
      <trkpt lat="35.184901000" lon="-106.453977000">
        <ele>2235.750</ele>
        <time>2015-03-15T17:27:40.917Z</time>
        <name>WPT.401</name>
      </trkpt>
      <trkpt lat="35.184955000" lon="-106.453875000">
        <ele>2236.610</ele>
        <time>2015-03-15T17:27:49.058Z</time>
        <name>WPT.402</name>
      </trkpt>
      <trkpt lat="35.184955000" lon="-106.453875000">
        <ele>2236.180</ele>
        <time>2015-03-15T17:28:09.549Z</time>
        <name>WPT.403</name>
      </trkpt>
      <trkpt lat="35.184961000" lon="-106.453739000">
        <ele>2235.210</ele>
        <time>2015-03-15T17:28:23.700Z</time>
        <name>WPT.404</name>
      </trkpt>
      <trkpt lat="35.184990000" lon="-106.453625000">
        <ele>2234.910</ele>
        <time>2015-03-15T17:28:32.151Z</time>
        <name>WPT.405</name>
      </trkpt>
      <trkpt lat="35.185025000" lon="-106.453519000">
        <ele>2236.150</ele>
        <time>2015-03-15T17:28:40.578Z</time>
        <name>WPT.406</name>
      </trkpt>
      <trkpt lat="35.185067000" lon="-106.453410000">
        <ele>2238.110</ele>
        <time>2015-03-15T17:28:50.376Z</time>
        <name>WPT.407</name>
      </trkpt>
      <trkpt lat="35.185097000" lon="-106.453303000">
        <ele>2239.670</ele>
        <time>2015-03-15T17:29:00.572Z</time>
        <name>WPT.408</name>
      </trkpt>
      <trkpt lat="35.185097000" lon="-106.453192000">
        <ele>2240.900</ele>
        <time>2015-03-15T17:29:11.427Z</time>
        <name>WPT.409</name>
      </trkpt>
      <trkpt lat="35.185065000" lon="-106.453083000">
        <ele>2242.340</ele>
        <time>2015-03-15T17:29:24.061Z</time>
        <name>WPT.410</name>
      </trkpt>
      <trkpt lat="35.185065000" lon="-106.453083000">
        <ele>2244.470</ele>
        <time>2015-03-15T17:29:33.172Z</time>
        <name>WPT.411</name>
      </trkpt>
      <trkpt lat="35.185044000" lon="-106.452975000">
        <ele>2242.050</ele>
        <time>2015-03-15T17:29:48.087Z</time>
        <name>WPT.412</name>
      </trkpt>
      <trkpt lat="35.185044000" lon="-106.452975000">
        <ele>2240.810</ele>
        <time>2015-03-15T17:29:48.478Z</time>
        <name>WPT.413</name>
      </trkpt>
      <trkpt lat="35.185025000" lon="-106.452867000">
        <ele>2239.260</ele>
        <time>2015-03-15T17:30:24.355Z</time>
        <name>WPT.414</name>
      </trkpt>
      <trkpt lat="35.185021000" lon="-106.452748000">
        <ele>2240.930</ele>
        <time>2015-03-15T17:30:37.638Z</time>
        <name>WPT.415</name>
      </trkpt>
      <trkpt lat="35.184979000" lon="-106.452638000">
        <ele>2246.730</ele>
        <time>2015-03-15T17:30:49.528Z</time>
        <name>WPT.416</name>
      </trkpt>
      <trkpt lat="35.184953000" lon="-106.452526000">
        <ele>2253.150</ele>
        <time>2015-03-15T17:30:58.906Z</time>
        <name>WPT.417</name>
      </trkpt>
      <trkpt lat="35.184969000" lon="-106.452409000">
        <ele>2256.640</ele>
        <time>2015-03-15T17:31:07.362Z</time>
        <name>WPT.418</name>
      </trkpt>
      <trkpt lat="35.184976000" lon="-106.452295000">
        <ele>2257.850</ele>
        <time>2015-03-15T17:31:15.749Z</time>
        <name>WPT.419</name>
      </trkpt>
      <trkpt lat="35.184903000" lon="-106.452229000">
        <ele>2258.500</ele>
        <time>2015-03-15T17:31:24.783Z</time>
        <name>WPT.420</name>
      </trkpt>
      <trkpt lat="35.184902000" lon="-106.452117000">
        <ele>2259.430</ele>
        <time>2015-03-15T17:31:34.605Z</time>
        <name>WPT.421</name>
      </trkpt>
      <trkpt lat="35.184901000" lon="-106.452000000">
        <ele>2260.650</ele>
        <time>2015-03-15T17:31:44.199Z</time>
        <name>WPT.422</name>
      </trkpt>
      <trkpt lat="35.184919000" lon="-106.451888000">
        <ele>2261.980</ele>
        <time>2015-03-15T17:31:53.055Z</time>
        <name>WPT.423</name>
      </trkpt>
      <trkpt lat="35.184919000" lon="-106.451888000">
        <ele>2263.340</ele>
        <time>2015-03-15T17:32:02.176Z</time>
        <name>WPT.424</name>
      </trkpt>
      <trkpt lat="35.184999000" lon="-106.451671000">
        <ele>2262.350</ele>
        <time>2015-03-15T17:33:43.084Z</time>
        <name>WPT.425</name>
      </trkpt>
      <trkpt lat="35.185054000" lon="-106.451573000">
        <ele>2262.570</ele>
        <time>2015-03-15T17:33:59.879Z</time>
        <name>WPT.426</name>
      </trkpt>
      <trkpt lat="35.185049000" lon="-106.451462000">
        <ele>2265.950</ele>
        <time>2015-03-15T17:34:12.273Z</time>
        <name>WPT.427</name>
      </trkpt>
      <trkpt lat="35.185093000" lon="-106.451357000">
        <ele>2272.830</ele>
        <time>2015-03-15T17:34:24.830Z</time>
        <name>WPT.428</name>
      </trkpt>
      <trkpt lat="35.185050000" lon="-106.451257000">
        <ele>2273.870</ele>
        <time>2015-03-15T17:34:36.051Z</time>
        <name>WPT.429</name>
      </trkpt>
      <trkpt lat="35.185050000" lon="-106.451257000">
        <ele>2274.170</ele>
        <time>2015-03-15T17:34:39.536Z</time>
        <name>WPT.430</name>
      </trkpt>
      <trkpt lat="35.185128000" lon="-106.451191000">
        <ele>2272.130</ele>
        <time>2015-03-15T17:34:58.137Z</time>
        <name>WPT.431</name>
      </trkpt>
      <trkpt lat="35.185213000" lon="-106.451148000">
        <ele>2272.380</ele>
        <time>2015-03-15T17:35:10.285Z</time>
        <name>WPT.432</name>
      </trkpt>
      <trkpt lat="35.185246000" lon="-106.451042000">
        <ele>2274.490</ele>
        <time>2015-03-15T17:35:23.041Z</time>
        <name>WPT.433</name>
      </trkpt>
      <trkpt lat="35.185318000" lon="-106.450957000">
        <ele>2277.290</ele>
        <time>2015-03-15T17:35:37.362Z</time>
        <name>WPT.434</name>
      </trkpt>
      <trkpt lat="35.185381000" lon="-106.450870000">
        <ele>2279.650</ele>
        <time>2015-03-15T17:35:50.107Z</time>
        <name>WPT.435</name>
      </trkpt>
      <trkpt lat="35.185467000" lon="-106.450827000">
        <ele>2281.640</ele>
        <time>2015-03-15T17:36:03.812Z</time>
        <name>WPT.436</name>
      </trkpt>
      <trkpt lat="35.185554000" lon="-106.450773000">
        <ele>2283.580</ele>
        <time>2015-03-15T17:36:16.910Z</time>
        <name>WPT.437</name>
      </trkpt>
      <trkpt lat="35.185644000" lon="-106.450737000">
        <ele>2285.630</ele>
        <time>2015-03-15T17:36:26.047Z</time>
        <name>WPT.438</name>
      </trkpt>
      <trkpt lat="35.185730000" lon="-106.450701000">
        <ele>2287.590</ele>
        <time>2015-03-15T17:36:34.281Z</time>
        <name>WPT.439</name>
      </trkpt>
      <trkpt lat="35.185827000" lon="-106.450659000">
        <ele>2289.290</ele>
        <time>2015-03-15T17:36:43.647Z</time>
        <name>WPT.440</name>
      </trkpt>
      <trkpt lat="35.185920000" lon="-106.450673000">
        <ele>2290.780</ele>
        <time>2015-03-15T17:36:51.729Z</time>
        <name>WPT.441</name>
      </trkpt>
      <trkpt lat="35.186010000" lon="-106.450640000">
        <ele>2292.110</ele>
        <time>2015-03-15T17:37:00.881Z</time>
        <name>WPT.442</name>
      </trkpt>
      <trkpt lat="35.186102000" lon="-106.450613000">
        <ele>2293.430</ele>
        <time>2015-03-15T17:37:11.043Z</time>
        <name>WPT.443</name>
      </trkpt>
      <trkpt lat="35.186102000" lon="-106.450613000">
        <ele>2295.110</ele>
        <time>2015-03-15T17:38:48.665Z</time>
        <name>WPT.444</name>
      </trkpt>
      <trkpt lat="35.186194000" lon="-106.450592000">
        <ele>2292.740</ele>
        <time>2015-03-15T17:39:26.300Z</time>
        <name>WPT.445</name>
      </trkpt>
      <trkpt lat="35.186284000" lon="-106.450600000">
        <ele>2292.970</ele>
        <time>2015-03-15T17:39:48.902Z</time>
        <name>WPT.446</name>
      </trkpt>
      <trkpt lat="35.186350000" lon="-106.450525000">
        <ele>2295.520</ele>
        <time>2015-03-15T17:40:23.359Z</time>
        <name>WPT.447</name>
      </trkpt>
      <trkpt lat="35.186406000" lon="-106.450418000">
        <ele>2299.120</ele>
        <time>2015-03-15T17:41:05.070Z</time>
        <name>WPT.448</name>
      </trkpt>
      <trkpt lat="35.186406000" lon="-106.450418000">
        <ele>2302.980</ele>
        <time>2015-03-15T17:41:19.154Z</time>
        <name>WPT.449</name>
      </trkpt>
      <trkpt lat="35.186607000" lon="-106.450248000">
        <ele>2301.880</ele>
        <time>2015-03-15T17:42:22.037Z</time>
        <name>WPT.450</name>
      </trkpt>
      <trkpt lat="35.186607000" lon="-106.450248000">
        <ele>2298.770</ele>
        <time>2015-03-15T17:42:38.163Z</time>
        <name>WPT.451</name>
      </trkpt>
      <trkpt lat="35.186685000" lon="-106.450183000">
        <ele>2298.220</ele>
        <time>2015-03-15T17:43:54.257Z</time>
        <name>WPT.452</name>
      </trkpt>
      <trkpt lat="35.186767000" lon="-106.450234000">
        <ele>2301.150</ele>
        <time>2015-03-15T17:44:51.335Z</time>
        <name>WPT.453</name>
      </trkpt>
      <trkpt lat="35.186838000" lon="-106.450156000">
        <ele>2310.240</ele>
        <time>2015-03-15T17:45:50.929Z</time>
        <name>WPT.454</name>
      </trkpt>
      <trkpt lat="35.186885000" lon="-106.450056000">
        <ele>2320.370</ele>
        <time>2015-03-15T17:46:46.068Z</time>
        <name>WPT.455</name>
      </trkpt>
      <trkpt lat="35.186885000" lon="-106.450056000">
        <ele>2326.410</ele>
        <time>2015-03-15T17:46:51.983Z</time>
        <name>WPT.456</name>
      </trkpt>
      <trkpt lat="35.186968000" lon="-106.449998000">
        <ele>2323.530</ele>
        <time>2015-03-15T17:47:17.064Z</time>
        <name>WPT.457</name>
      </trkpt>
      <trkpt lat="35.186968000" lon="-106.449998000">
        <ele>2322.430</ele>
        <time>2015-03-15T17:47:24.143Z</time>
        <name>WPT.458</name>
      </trkpt>
      <trkpt lat="35.187059000" lon="-106.449846000">
        <ele>2321.770</ele>
        <time>2015-03-15T17:47:46.801Z</time>
        <name>WPT.459</name>
      </trkpt>
      <trkpt lat="35.187025000" lon="-106.449720000">
        <ele>2322.170</ele>
        <time>2015-03-15T17:47:55.609Z</time>
        <name>WPT.460</name>
      </trkpt>
      <trkpt lat="35.186985000" lon="-106.449613000">
        <ele>2324.780</ele>
        <time>2015-03-15T17:48:03.275Z</time>
        <name>WPT.461</name>
      </trkpt>
      <trkpt lat="35.187078000" lon="-106.449588000">
        <ele>2329.900</ele>
        <time>2015-03-15T17:48:12.070Z</time>
        <name>WPT.462</name>
      </trkpt>
      <trkpt lat="35.187078000" lon="-106.449588000">
        <ele>2329.250</ele>
        <time>2015-03-15T17:48:24.027Z</time>
        <name>WPT.463</name>
      </trkpt>
      <trkpt lat="35.187149000" lon="-106.449518000">
        <ele>2328.020</ele>
        <time>2015-03-15T17:48:35.038Z</time>
        <name>WPT.464</name>
      </trkpt>
      <trkpt lat="35.187149000" lon="-106.449518000">
        <ele>2327.020</ele>
        <time>2015-03-15T17:48:50.137Z</time>
        <name>WPT.465</name>
      </trkpt>
      <trkpt lat="35.187231000" lon="-106.449394000">
        <ele>2326.320</ele>
        <time>2015-03-15T17:49:22.015Z</time>
        <name>WPT.466</name>
      </trkpt>
      <trkpt lat="35.187297000" lon="-106.449318000">
        <ele>2327.110</ele>
        <time>2015-03-15T17:49:34.317Z</time>
        <name>WPT.467</name>
      </trkpt>
      <trkpt lat="35.187338000" lon="-106.449219000">
        <ele>2331.230</ele>
        <time>2015-03-15T17:49:44.075Z</time>
        <name>WPT.468</name>
      </trkpt>
      <trkpt lat="35.187338000" lon="-106.449219000">
        <ele>2339.070</ele>
        <time>2015-03-15T17:50:36.938Z</time>
        <name>WPT.469</name>
      </trkpt>
      <trkpt lat="35.187398000" lon="-106.449046000">
        <ele>2337.870</ele>
        <time>2015-03-15T17:50:56.041Z</time>
        <name>WPT.470</name>
      </trkpt>
      <trkpt lat="35.187398000" lon="-106.449046000">
        <ele>2334.530</ele>
        <time>2015-03-15T17:51:24.206Z</time>
        <name>WPT.471</name>
      </trkpt>
      <trkpt lat="35.187495000" lon="-106.448894000">
        <ele>2334.580</ele>
        <time>2015-03-15T17:51:55.467Z</time>
        <name>WPT.472</name>
      </trkpt>
      <trkpt lat="35.187507000" lon="-106.448782000">
        <ele>2337.220</ele>
        <time>2015-03-15T17:52:07.604Z</time>
        <name>WPT.473</name>
      </trkpt>
      <trkpt lat="35.187565000" lon="-106.448682000">
        <ele>2343.560</ele>
        <time>2015-03-15T17:52:21.041Z</time>
        <name>WPT.474</name>
      </trkpt>
      <trkpt lat="35.187565000" lon="-106.448682000">
        <ele>2352.570</ele>
        <time>2015-03-15T17:54:55.548Z</time>
        <name>WPT.475</name>
      </trkpt>
      <trkpt lat="35.187617000" lon="-106.448443000">
        <ele>2351.230</ele>
        <time>2015-03-15T17:56:07.776Z</time>
        <name>WPT.476</name>
      </trkpt>
      <trkpt lat="35.187661000" lon="-106.448337000">
        <ele>2350.650</ele>
        <time>2015-03-15T17:56:18.356Z</time>
        <name>WPT.477</name>
      </trkpt>
      <trkpt lat="35.187656000" lon="-106.448224000">
        <ele>2354.260</ele>
        <time>2015-03-15T17:56:26.075Z</time>
        <name>WPT.478</name>
      </trkpt>
      <trkpt lat="35.187656000" lon="-106.448224000">
        <ele>2361.770</ele>
        <time>2015-03-15T17:56:38.154Z</time>
        <name>WPT.479</name>
      </trkpt>
      <trkpt lat="35.187657000" lon="-106.448079000">
        <ele>2360.550</ele>
        <time>2015-03-15T17:56:55.164Z</time>
        <name>WPT.480</name>
      </trkpt>
      <trkpt lat="35.187667000" lon="-106.447965000">
        <ele>2359.330</ele>
        <time>2015-03-15T17:57:05.059Z</time>
        <name>WPT.481</name>
      </trkpt>
      <trkpt lat="35.187667000" lon="-106.447965000">
        <ele>2362.620</ele>
        <time>2015-03-15T17:57:39.711Z</time>
        <name>WPT.482</name>
      </trkpt>
      <trkpt lat="35.187750000" lon="-106.447918000">
        <ele>2361.700</ele>
        <time>2015-03-15T17:57:58.834Z</time>
        <name>WPT.483</name>
      </trkpt>
      <trkpt lat="35.187761000" lon="-106.447804000">
        <ele>2361.280</ele>
        <time>2015-03-15T17:58:11.432Z</time>
        <name>WPT.484</name>
      </trkpt>
      <trkpt lat="35.187793000" lon="-106.447695000">
        <ele>2364.870</ele>
        <time>2015-03-15T17:58:23.151Z</time>
        <name>WPT.485</name>
      </trkpt>
      <trkpt lat="35.187799000" lon="-106.447581000">
        <ele>2370.400</ele>
        <time>2015-03-15T17:58:32.816Z</time>
        <name>WPT.486</name>
      </trkpt>
      <trkpt lat="35.187804000" lon="-106.447470000">
        <ele>2374.420</ele>
        <time>2015-03-15T17:58:42.277Z</time>
        <name>WPT.487</name>
      </trkpt>
      <trkpt lat="35.187844000" lon="-106.447368000">
        <ele>2376.590</ele>
        <time>2015-03-15T17:58:52.984Z</time>
        <name>WPT.488</name>
      </trkpt>
      <trkpt lat="35.187903000" lon="-106.447271000">
        <ele>2378.210</ele>
        <time>2015-03-15T17:59:04.820Z</time>
        <name>WPT.489</name>
      </trkpt>
      <trkpt lat="35.187986000" lon="-106.447209000">
        <ele>2380.360</ele>
        <time>2015-03-15T17:59:16.056Z</time>
        <name>WPT.490</name>
      </trkpt>
      <trkpt lat="35.187986000" lon="-106.447209000">
        <ele>2383.700</ele>
        <time>2015-03-15T18:01:35.565Z</time>
        <name>WPT.491</name>
      </trkpt>
      <trkpt lat="35.188080000" lon="-106.447134000">
        <ele>2382.610</ele>
        <time>2015-03-15T18:01:51.058Z</time>
        <name>WPT.492</name>
      </trkpt>
      <trkpt lat="35.188080000" lon="-106.447134000">
        <ele>2379.910</ele>
        <time>2015-03-15T18:01:56.159Z</time>
        <name>WPT.493</name>
      </trkpt>
      <trkpt lat="35.188168000" lon="-106.447169000">
        <ele>2378.820</ele>
        <time>2015-03-15T18:02:15.101Z</time>
        <name>WPT.494</name>
      </trkpt>
      <trkpt lat="35.188247000" lon="-106.447095000">
        <ele>2380.330</ele>
        <time>2015-03-15T18:02:25.058Z</time>
        <name>WPT.495</name>
      </trkpt>
      <trkpt lat="35.188247000" lon="-106.447095000">
        <ele>2389.330</ele>
        <time>2015-03-15T18:02:39.178Z</time>
        <name>WPT.496</name>
      </trkpt>
      <trkpt lat="35.188339000" lon="-106.447048000">
        <ele>2384.960</ele>
        <time>2015-03-15T18:03:03.070Z</time>
        <name>WPT.497</name>
      </trkpt>
      <trkpt lat="35.188339000" lon="-106.447048000">
        <ele>2382.000</ele>
        <time>2015-03-15T18:03:15.161Z</time>
        <name>WPT.498</name>
      </trkpt>
      <trkpt lat="35.188432000" lon="-106.447029000">
        <ele>2380.990</ele>
        <time>2015-03-15T18:03:52.711Z</time>
        <name>WPT.499</name>
      </trkpt>
      <trkpt lat="35.188535000" lon="-106.446978000">
        <ele>2384.090</ele>
        <time>2015-03-15T18:04:18.060Z</time>
        <name>WPT.500</name>
      </trkpt>
      <trkpt lat="35.188535000" lon="-106.446978000">
        <ele>2401.510</ele>
        <time>2015-03-15T18:04:58.457Z</time>
        <name>WPT.501</name>
      </trkpt>
      <trkpt lat="35.188695000" lon="-106.446973000">
        <ele>2400.400</ele>
        <time>2015-03-15T18:06:15.398Z</time>
        <name>WPT.502</name>
      </trkpt>
      <trkpt lat="35.188750000" lon="-106.446872000">
        <ele>2398.300</ele>
        <time>2015-03-15T18:06:28.078Z</time>
        <name>WPT.503</name>
      </trkpt>
      <trkpt lat="35.188750000" lon="-106.446872000">
        <ele>2408.570</ele>
        <time>2015-03-15T18:11:35.504Z</time>
        <name>WPT.504</name>
      </trkpt>
      <trkpt lat="35.188832000" lon="-106.446716000">
        <ele>2407.700</ele>
        <time>2015-03-15T18:11:57.817Z</time>
        <name>WPT.505</name>
      </trkpt>
      <trkpt lat="35.188925000" lon="-106.446737000">
        <ele>2406.800</ele>
        <time>2015-03-15T18:12:07.276Z</time>
        <name>WPT.506</name>
      </trkpt>
      <trkpt lat="35.189014000" lon="-106.446750000">
        <ele>2412.690</ele>
        <time>2015-03-15T18:12:15.426Z</time>
        <name>WPT.507</name>
      </trkpt>
      <trkpt lat="35.189104000" lon="-106.446738000">
        <ele>2421.200</ele>
        <time>2015-03-15T18:12:23.218Z</time>
        <name>WPT.508</name>
      </trkpt>
      <trkpt lat="35.189194000" lon="-106.446764000">
        <ele>2426.730</ele>
        <time>2015-03-15T18:12:32.049Z</time>
        <name>WPT.509</name>
      </trkpt>
      <trkpt lat="35.189194000" lon="-106.446764000">
        <ele>2429.530</ele>
        <time>2015-03-15T18:12:49.063Z</time>
        <name>WPT.510</name>
      </trkpt>
      <trkpt lat="35.189281000" lon="-106.446799000">
        <ele>2426.990</ele>
        <time>2015-03-15T18:13:13.257Z</time>
        <name>WPT.511</name>
      </trkpt>
      <trkpt lat="35.189373000" lon="-106.446801000">
        <ele>2427.240</ele>
        <time>2015-03-15T18:13:23.074Z</time>
        <name>WPT.512</name>
      </trkpt>
      <trkpt lat="35.189373000" lon="-106.446801000">
        <ele>2430.160</ele>
        <time>2015-03-15T18:15:16.559Z</time>
        <name>WPT.513</name>
      </trkpt>
      <trkpt lat="35.189521000" lon="-106.446749000">
        <ele>2428.260</ele>
        <time>2015-03-15T18:16:33.040Z</time>
        <name>WPT.514</name>
      </trkpt>
      <trkpt lat="35.189521000" lon="-106.446749000">
        <ele>2427.400</ele>
        <time>2015-03-15T18:17:38.122Z</time>
        <name>WPT.515</name>
      </trkpt>
      <trkpt lat="35.189594000" lon="-106.446819000">
        <ele>2426.730</ele>
        <time>2015-03-15T18:18:19.054Z</time>
        <name>WPT.516</name>
      </trkpt>
      <trkpt lat="35.189594000" lon="-106.446819000">
        <ele>2424.940</ele>
        <time>2015-03-15T18:19:12.541Z</time>
        <name>WPT.517</name>
      </trkpt>
      <trkpt lat="35.189709000" lon="-106.446628000">
        <ele>2424.290</ele>
        <time>2015-03-15T18:19:26.069Z</time>
        <name>WPT.518</name>
      </trkpt>
      <trkpt lat="35.189709000" lon="-106.446628000">
        <ele>2423.140</ele>
        <time>2015-03-15T18:19:37.179Z</time>
        <name>WPT.519</name>
      </trkpt>
      <trkpt lat="35.189739000" lon="-106.446494000">
        <ele>2422.280</ele>
        <time>2015-03-15T18:19:49.446Z</time>
        <name>WPT.520</name>
      </trkpt>
      <trkpt lat="35.189760000" lon="-106.446386000">
        <ele>2422.880</ele>
        <time>2015-03-15T18:19:58.244Z</time>
        <name>WPT.521</name>
      </trkpt>
      <trkpt lat="35.189763000" lon="-106.446260000">
        <ele>2426.210</ele>
        <time>2015-03-15T18:20:09.761Z</time>
        <name>WPT.522</name>
      </trkpt>
      <trkpt lat="35.189853000" lon="-106.446271000">
        <ele>2430.400</ele>
        <time>2015-03-15T18:20:19.075Z</time>
        <name>WPT.523</name>
      </trkpt>
      <trkpt lat="35.189943000" lon="-106.446260000">
        <ele>2433.070</ele>
        <time>2015-03-15T18:20:26.062Z</time>
        <name>WPT.524</name>
      </trkpt>
      <trkpt lat="35.189943000" lon="-106.446260000">
        <ele>2433.950</ele>
        <time>2015-03-15T18:20:42.163Z</time>
        <name>WPT.525</name>
      </trkpt>
      <trkpt lat="35.190057000" lon="-106.446274000">
        <ele>2432.850</ele>
        <time>2015-03-15T18:21:13.070Z</time>
        <name>WPT.526</name>
      </trkpt>
      <trkpt lat="35.190057000" lon="-106.446274000">
        <ele>2431.020</ele>
        <time>2015-03-15T18:21:19.166Z</time>
        <name>WPT.527</name>
      </trkpt>
      <trkpt lat="35.190118000" lon="-106.446180000">
        <ele>2429.540</ele>
        <time>2015-03-15T18:21:53.241Z</time>
        <name>WPT.528</name>
      </trkpt>
      <trkpt lat="35.190126000" lon="-106.446062000">
        <ele>2431.040</ele>
        <time>2015-03-15T18:22:03.291Z</time>
        <name>WPT.529</name>
      </trkpt>
      <trkpt lat="35.190181000" lon="-106.445962000">
        <ele>2436.350</ele>
        <time>2015-03-15T18:22:13.023Z</time>
        <name>WPT.530</name>
      </trkpt>
      <trkpt lat="35.190248000" lon="-106.445888000">
        <ele>2442.320</ele>
        <time>2015-03-15T18:22:22.816Z</time>
        <name>WPT.531</name>
      </trkpt>
      <trkpt lat="35.190331000" lon="-106.445823000">
        <ele>2445.760</ele>
        <time>2015-03-15T18:22:34.078Z</time>
        <name>WPT.532</name>
      </trkpt>
      <trkpt lat="35.190382000" lon="-106.445719000">
        <ele>2447.420</ele>
        <time>2015-03-15T18:22:44.715Z</time>
        <name>WPT.533</name>
      </trkpt>
      <trkpt lat="35.190415000" lon="-106.445610000">
        <ele>2448.840</ele>
        <time>2015-03-15T18:22:53.882Z</time>
        <name>WPT.534</name>
      </trkpt>
      <trkpt lat="35.190428000" lon="-106.445493000">
        <ele>2450.470</ele>
        <time>2015-03-15T18:23:03.066Z</time>
        <name>WPT.535</name>
      </trkpt>
      <trkpt lat="35.190428000" lon="-106.445493000">
        <ele>2452.140</ele>
        <time>2015-03-15T18:23:29.628Z</time>
        <name>WPT.536</name>
      </trkpt>
      <trkpt lat="35.190425000" lon="-106.445352000">
        <ele>2451.050</ele>
        <time>2015-03-15T18:24:37.500Z</time>
        <name>WPT.537</name>
      </trkpt>
      <trkpt lat="35.190390000" lon="-106.445250000">
        <ele>2450.780</ele>
        <time>2015-03-15T18:24:50.815Z</time>
        <name>WPT.538</name>
      </trkpt>
      <trkpt lat="35.190438000" lon="-106.445150000">
        <ele>2453.230</ele>
        <time>2015-03-15T18:25:03.137Z</time>
        <name>WPT.539</name>
      </trkpt>
      <trkpt lat="35.190427000" lon="-106.445035000">
        <ele>2456.900</ele>
        <time>2015-03-15T18:25:16.917Z</time>
        <name>WPT.540</name>
      </trkpt>
      <trkpt lat="35.190467000" lon="-106.444933000">
        <ele>2459.770</ele>
        <time>2015-03-15T18:25:32.606Z</time>
        <name>WPT.541</name>
      </trkpt>
      <trkpt lat="35.190435000" lon="-106.444827000">
        <ele>2461.860</ele>
        <time>2015-03-15T18:25:49.063Z</time>
        <name>WPT.542</name>
      </trkpt>
      <trkpt lat="35.190435000" lon="-106.444827000">
        <ele>2463.730</ele>
        <time>2015-03-15T18:26:41.232Z</time>
        <name>WPT.543</name>
      </trkpt>
      <trkpt lat="35.190471000" lon="-106.444623000">
        <ele>2462.630</ele>
        <time>2015-03-15T18:27:34.622Z</time>
        <name>WPT.544</name>
      </trkpt>
      <trkpt lat="35.190445000" lon="-106.444517000">
        <ele>2462.210</ele>
        <time>2015-03-15T18:27:43.065Z</time>
        <name>WPT.545</name>
      </trkpt>
      <trkpt lat="35.190445000" lon="-106.444517000">
        <ele>2465.650</ele>
        <time>2015-03-15T18:27:55.141Z</time>
        <name>WPT.546</name>
      </trkpt>
      <trkpt lat="35.190514000" lon="-106.444436000">
        <ele>2462.530</ele>
        <time>2015-03-15T18:28:21.339Z</time>
        <name>WPT.547</name>
      </trkpt>
      <trkpt lat="35.190575000" lon="-106.444350000">
        <ele>2462.840</ele>
        <time>2015-03-15T18:28:30.673Z</time>
        <name>WPT.548</name>
      </trkpt>
      <trkpt lat="35.190649000" lon="-106.444270000">
        <ele>2466.930</ele>
        <time>2015-03-15T18:28:40.075Z</time>
        <name>WPT.549</name>
      </trkpt>
      <trkpt lat="35.190670000" lon="-106.444154000">
        <ele>2472.370</ele>
        <time>2015-03-15T18:28:50.069Z</time>
        <name>WPT.550</name>
      </trkpt>
      <trkpt lat="35.190670000" lon="-106.444154000">
        <ele>2477.210</ele>
        <time>2015-03-15T18:29:01.703Z</time>
        <name>WPT.551</name>
      </trkpt>
      <trkpt lat="35.190776000" lon="-106.444081000">
        <ele>2475.960</ele>
        <time>2015-03-15T18:30:05.120Z</time>
        <name>WPT.552</name>
      </trkpt>
      <trkpt lat="35.190869000" lon="-106.444098000">
        <ele>2475.850</ele>
        <time>2015-03-15T18:30:17.056Z</time>
        <name>WPT.553</name>
      </trkpt>
      <trkpt lat="35.190869000" lon="-106.444098000">
        <ele>2482.180</ele>
        <time>2015-03-15T18:30:31.035Z</time>
        <name>WPT.554</name>
      </trkpt>
      <trkpt lat="35.190971000" lon="-106.444028000">
        <ele>2491.510</ele>
        <time>2015-03-15T18:30:47.065Z</time>
        <name>WPT.555</name>
      </trkpt>
      <trkpt lat="35.190971000" lon="-106.444028000">
        <ele>2489.720</ele>
        <time>2015-03-15T18:31:07.211Z</time>
        <name>WPT.556</name>
      </trkpt>
      <trkpt lat="35.191043000" lon="-106.443951000">
        <ele>2489.180</ele>
        <time>2015-03-15T18:31:21.643Z</time>
        <name>WPT.557</name>
      </trkpt>
      <trkpt lat="35.191098000" lon="-106.443851000">
        <ele>2489.350</ele>
        <time>2015-03-15T18:31:31.080Z</time>
        <name>WPT.558</name>
      </trkpt>
      <trkpt lat="35.191154000" lon="-106.443762000">
        <ele>2491.030</ele>
        <time>2015-03-15T18:31:39.244Z</time>
        <name>WPT.559</name>
      </trkpt>
      <trkpt lat="35.191232000" lon="-106.443684000">
        <ele>2493.520</ele>
        <time>2015-03-15T18:31:47.056Z</time>
        <name>WPT.560</name>
      </trkpt>
      <trkpt lat="35.191232000" lon="-106.443684000">
        <ele>2496.010</ele>
        <time>2015-03-15T18:32:15.248Z</time>
        <name>WPT.561</name>
      </trkpt>
      <trkpt lat="35.191078000" lon="-106.443431000">
        <ele>2494.860</ele>
        <time>2015-03-15T18:32:38.333Z</time>
        <name>WPT.562</name>
      </trkpt>
      <trkpt lat="35.191018000" lon="-106.443343000">
        <ele>2494.210</ele>
        <time>2015-03-15T18:32:43.037Z</time>
        <name>WPT.563</name>
      </trkpt>
      <trkpt lat="35.191018000" lon="-106.443343000">
        <ele>2496.850</ele>
        <time>2015-03-15T18:32:59.143Z</time>
        <name>WPT.564</name>
      </trkpt>
      <trkpt lat="35.191186000" lon="-106.443479000">
        <ele>2495.850</ele>
        <time>2015-03-15T18:33:25.646Z</time>
        <name>WPT.565</name>
      </trkpt>
      <trkpt lat="35.191268000" lon="-106.443540000">
        <ele>2494.860</ele>
        <time>2015-03-15T18:33:34.353Z</time>
        <name>WPT.566</name>
      </trkpt>
      <trkpt lat="35.191347000" lon="-106.443487000">
        <ele>2496.200</ele>
        <time>2015-03-15T18:33:44.506Z</time>
        <name>WPT.567</name>
      </trkpt>
      <trkpt lat="35.191405000" lon="-106.443396000">
        <ele>2498.540</ele>
        <time>2015-03-15T18:33:55.269Z</time>
        <name>WPT.568</name>
      </trkpt>
      <trkpt lat="35.191442000" lon="-106.443292000">
        <ele>2500.480</ele>
        <time>2015-03-15T18:34:06.062Z</time>
        <name>WPT.569</name>
      </trkpt>
      <trkpt lat="35.191442000" lon="-106.443292000">
        <ele>2502.520</ele>
        <time>2015-03-15T18:34:24.966Z</time>
        <name>WPT.570</name>
      </trkpt>
      <trkpt lat="35.191510000" lon="-106.443215000">
        <ele>2499.910</ele>
        <time>2015-03-15T18:34:57.064Z</time>
        <name>WPT.571</name>
      </trkpt>
      <trkpt lat="35.191510000" lon="-106.443215000">
        <ele>2498.610</ele>
        <time>2015-03-15T18:35:07.162Z</time>
        <name>WPT.572</name>
      </trkpt>
      <trkpt lat="35.191626000" lon="-106.443118000">
        <ele>2497.930</ele>
        <time>2015-03-15T18:35:21.544Z</time>
        <name>WPT.573</name>
      </trkpt>
      <trkpt lat="35.191695000" lon="-106.443046000">
        <ele>2499.290</ele>
        <time>2015-03-15T18:35:27.064Z</time>
        <name>WPT.574</name>
      </trkpt>
      <trkpt lat="35.191695000" lon="-106.443046000">
        <ele>2508.260</ele>
        <time>2015-03-15T18:35:36.165Z</time>
        <name>WPT.575</name>
      </trkpt>
      <trkpt lat="35.191832000" lon="-106.443022000">
        <ele>2507.170</ele>
        <time>2015-03-15T18:36:29.509Z</time>
        <name>WPT.576</name>
      </trkpt>
      <trkpt lat="35.191921000" lon="-106.442993000">
        <ele>2505.590</ele>
        <time>2015-03-15T18:36:42.780Z</time>
        <name>WPT.577</name>
      </trkpt>
      <trkpt lat="35.192012000" lon="-106.442982000">
        <ele>2508.490</ele>
        <time>2015-03-15T18:36:56.372Z</time>
        <name>WPT.578</name>
      </trkpt>
      <trkpt lat="35.192103000" lon="-106.443002000">
        <ele>2514.050</ele>
        <time>2015-03-15T18:37:12.364Z</time>
        <name>WPT.579</name>
      </trkpt>
      <trkpt lat="35.192184000" lon="-106.442949000">
        <ele>2518.800</ele>
        <time>2015-03-15T18:37:28.079Z</time>
        <name>WPT.580</name>
      </trkpt>
      <trkpt lat="35.192273000" lon="-106.442910000">
        <ele>2522.090</ele>
        <time>2015-03-15T18:37:43.050Z</time>
        <name>WPT.581</name>
      </trkpt>
      <trkpt lat="35.192273000" lon="-106.442910000">
        <ele>2524.370</ele>
        <time>2015-03-15T18:38:00.151Z</time>
        <name>WPT.582</name>
      </trkpt>
      <trkpt lat="35.192364000" lon="-106.442820000">
        <ele>2523.210</ele>
        <time>2015-03-15T18:38:18.552Z</time>
        <name>WPT.583</name>
      </trkpt>
      <trkpt lat="35.192452000" lon="-106.442784000">
        <ele>2522.920</ele>
        <time>2015-03-15T18:38:30.397Z</time>
        <name>WPT.584</name>
      </trkpt>
      <trkpt lat="35.192543000" lon="-106.442793000">
        <ele>2525.210</ele>
        <time>2015-03-15T18:38:43.817Z</time>
        <name>WPT.585</name>
      </trkpt>
      <trkpt lat="35.192636000" lon="-106.442816000">
        <ele>2528.540</ele>
        <time>2015-03-15T18:38:57.241Z</time>
        <name>WPT.586</name>
      </trkpt>
      <trkpt lat="35.192722000" lon="-106.442875000">
        <ele>2531.260</ele>
        <time>2015-03-15T18:39:12.033Z</time>
        <name>WPT.587</name>
      </trkpt>
      <trkpt lat="35.192722000" lon="-106.442875000">
        <ele>2533.540</ele>
        <time>2015-03-15T18:39:15.133Z</time>
        <name>WPT.588</name>
      </trkpt>
      <trkpt lat="35.192803000" lon="-106.442934000">
        <ele>2530.910</ele>
        <time>2015-03-15T18:40:08.039Z</time>
        <name>WPT.589</name>
      </trkpt>
      <trkpt lat="35.192803000" lon="-106.442934000">
        <ele>2529.650</ele>
        <time>2015-03-15T18:40:13.862Z</time>
        <name>WPT.590</name>
      </trkpt>
      <trkpt lat="35.192902000" lon="-106.442866000">
        <ele>2527.850</ele>
        <time>2015-03-15T18:40:43.088Z</time>
        <name>WPT.591</name>
      </trkpt>
      <trkpt lat="35.192902000" lon="-106.442866000">
        <ele>2526.730</ele>
        <time>2015-03-15T18:42:08.309Z</time>
        <name>WPT.592</name>
      </trkpt>
      <trkpt lat="35.192966000" lon="-106.443094000">
        <ele>2525.950</ele>
        <time>2015-03-15T18:42:21.062Z</time>
        <name>WPT.593</name>
      </trkpt>
      <trkpt lat="35.193270000" lon="-106.443502000">
        <ele>2527.720</ele>
        <time>2015-03-15T18:48:46.065Z</time>
        <name>WPT.594</name>
      </trkpt>
      <trkpt lat="35.193270000" lon="-106.443502000">
        <ele>2554.060</ele>
        <time>2015-03-15T18:48:46.166Z</time>
        <name>WPT.595</name>
      </trkpt>
      <trkpt lat="35.193270000" lon="-106.443502000">
        <ele>2549.110</ele>
        <time>2015-03-15T18:49:01.185Z</time>
        <name>WPT.596</name>
      </trkpt>
      <trkpt lat="35.193405000" lon="-106.443522000">
        <ele>2547.950</ele>
        <time>2015-03-15T18:49:36.059Z</time>
        <name>WPT.597</name>
      </trkpt>
      <trkpt lat="35.193405000" lon="-106.443522000">
        <ele>2544.450</ele>
        <time>2015-03-15T18:49:50.162Z</time>
        <name>WPT.598</name>
      </trkpt>
      <trkpt lat="35.193503000" lon="-106.443517000">
        <ele>2544.430</ele>
        <time>2015-03-15T18:50:08.083Z</time>
        <name>WPT.599</name>
      </trkpt>
      <trkpt lat="35.193503000" lon="-106.443517000">
        <ele>2543.640</ele>
        <time>2015-03-15T18:50:18.809Z</time>
        <name>WPT.600</name>
      </trkpt>
      <trkpt lat="35.193596000" lon="-106.443515000">
        <ele>2541.590</ele>
        <time>2015-03-15T18:50:39.581Z</time>
        <name>WPT.601</name>
      </trkpt>
      <trkpt lat="35.193686000" lon="-106.443496000">
        <ele>2546.160</ele>
        <time>2015-03-15T18:50:54.374Z</time>
        <name>WPT.602</name>
      </trkpt>
      <trkpt lat="35.193752000" lon="-106.443419000">
        <ele>2559.450</ele>
        <time>2015-03-15T18:51:09.065Z</time>
        <name>WPT.603</name>
      </trkpt>
      <trkpt lat="35.193752000" lon="-106.443419000">
        <ele>2580.610</ele>
        <time>2015-03-15T18:51:36.161Z</time>
        <name>WPT.604</name>
      </trkpt>
      <trkpt lat="35.193819000" lon="-106.443271000">
        <ele>2578.780</ele>
        <time>2015-03-15T18:52:12.064Z</time>
        <name>WPT.605</name>
      </trkpt>
      <trkpt lat="35.193819000" lon="-106.443271000">
        <ele>2573.590</ele>
        <time>2015-03-15T18:52:16.163Z</time>
        <name>WPT.606</name>
      </trkpt>
      <trkpt lat="35.193884000" lon="-106.443194000">
        <ele>2574.420</ele>
        <time>2015-03-15T18:52:31.064Z</time>
        <name>WPT.607</name>
      </trkpt>
      <trkpt lat="35.193884000" lon="-106.443194000">
        <ele>2573.940</ele>
        <time>2015-03-15T18:52:49.180Z</time>
        <name>WPT.608</name>
      </trkpt>
      <trkpt lat="35.194009000" lon="-106.443004000">
        <ele>2572.590</ele>
        <time>2015-03-15T18:53:51.035Z</time>
        <name>WPT.609</name>
      </trkpt>
      <trkpt lat="35.194009000" lon="-106.443004000">
        <ele>2571.330</ele>
        <time>2015-03-15T18:55:23.747Z</time>
        <name>WPT.610</name>
      </trkpt>
      <trkpt lat="35.194133000" lon="-106.442944000">
        <ele>2570.590</ele>
        <time>2015-03-15T18:55:42.083Z</time>
        <name>WPT.611</name>
      </trkpt>
      <trkpt lat="35.194133000" lon="-106.442944000">
        <ele>2568.980</ele>
        <time>2015-03-15T18:55:58.173Z</time>
        <name>WPT.612</name>
      </trkpt>
      <trkpt lat="35.194129000" lon="-106.442816000">
        <ele>2568.220</ele>
        <time>2015-03-15T18:56:07.071Z</time>
        <name>WPT.613</name>
      </trkpt>
      <trkpt lat="35.194129000" lon="-106.442816000">
        <ele>2566.880</ele>
        <time>2015-03-15T18:56:19.163Z</time>
        <name>WPT.614</name>
      </trkpt>
      <trkpt lat="35.194298000" lon="-106.442761000">
        <ele>2566.030</ele>
        <time>2015-03-15T18:57:22.447Z</time>
        <name>WPT.615</name>
      </trkpt>
      <trkpt lat="35.194347000" lon="-106.442666000">
        <ele>2572.420</ele>
        <time>2015-03-15T18:57:34.861Z</time>
        <name>WPT.616</name>
      </trkpt>
      <trkpt lat="35.194432000" lon="-106.442621000">
        <ele>2590.830</ele>
        <time>2015-03-15T18:57:48.119Z</time>
        <name>WPT.617</name>
      </trkpt>
      <trkpt lat="35.194515000" lon="-106.442575000">
        <ele>2610.850</ele>
        <time>2015-03-15T18:58:04.941Z</time>
        <name>WPT.618</name>
      </trkpt>
      <trkpt lat="35.194598000" lon="-106.442632000">
        <ele>2621.870</ele>
        <time>2015-03-15T18:58:24.062Z</time>
        <name>WPT.619</name>
      </trkpt>
      <trkpt lat="35.194598000" lon="-106.442632000">
        <ele>2624.860</ele>
        <time>2015-03-15T18:58:37.167Z</time>
        <name>WPT.620</name>
      </trkpt>
      <trkpt lat="35.194713000" lon="-106.442525000">
        <ele>2623.440</ele>
        <time>2015-03-15T18:58:49.061Z</time>
        <name>WPT.621</name>
      </trkpt>
      <trkpt lat="35.194713000" lon="-106.442525000">
        <ele>2621.770</ele>
        <time>2015-03-15T18:59:02.162Z</time>
        <name>WPT.622</name>
      </trkpt>
      <trkpt lat="35.194900000" lon="-106.442703000">
        <ele>2621.120</ele>
        <time>2015-03-15T18:59:29.065Z</time>
        <name>WPT.623</name>
      </trkpt>
      <trkpt lat="35.194900000" lon="-106.442703000">
        <ele>2619.630</ele>
        <time>2015-03-15T18:59:33.165Z</time>
        <name>WPT.624</name>
      </trkpt>
      <trkpt lat="35.194889000" lon="-106.442583000">
        <ele>2617.820</ele>
        <time>2015-03-15T18:59:39.065Z</time>
        <name>WPT.625</name>
      </trkpt>
      <trkpt lat="35.194889000" lon="-106.442583000">
        <ele>2616.890</ele>
        <time>2015-03-15T19:02:17.670Z</time>
        <name>WPT.626</name>
      </trkpt>
      <trkpt lat="35.195076000" lon="-106.442550000">
        <ele>2616.010</ele>
        <time>2015-03-15T19:03:33.090Z</time>
        <name>WPT.627</name>
      </trkpt>
      <trkpt lat="35.195076000" lon="-106.442550000">
        <ele>2615.050</ele>
        <time>2015-03-15T19:03:37.061Z</time>
        <name>WPT.628</name>
      </trkpt>
      <trkpt lat="35.195013000" lon="-106.442545000">
        <ele>2618.380</ele>
        <time>2015-03-15T19:05:44.307Z</time>
        <name>WPT.629</name>
      </trkpt>
      <trkpt lat="35.194953000" lon="-106.442437000">
        <ele>2634.280</ele>
        <time>2015-03-15T19:48:03.059Z</time>
        <name>WPT.630</name>
      </trkpt>
      <trkpt lat="35.194953000" lon="-106.442437000">
        <ele>2631.130</ele>
        <time>2015-03-15T19:48:32.160Z</time>
        <name>WPT.631</name>
      </trkpt>
      <trkpt lat="35.194837000" lon="-106.442496000">
        <ele>2630.300</ele>
        <time>2015-03-15T19:48:47.062Z</time>
        <name>WPT.632</name>
      </trkpt>
      <trkpt lat="35.194837000" lon="-106.442496000">
        <ele>2628.760</ele>
        <time>2015-03-15T19:48:48.160Z</time>
        <name>WPT.633</name>
      </trkpt>
      <trkpt lat="35.194766000" lon="-106.442577000">
        <ele>2626.990</ele>
        <time>2015-03-15T19:49:13.058Z</time>
        <name>WPT.634</name>
      </trkpt>
      <trkpt lat="35.194766000" lon="-106.442577000">
        <ele>2625.970</ele>
        <time>2015-03-15T19:49:20.363Z</time>
        <name>WPT.635</name>
      </trkpt>
      <trkpt lat="35.194673000" lon="-106.442588000">
        <ele>2623.990</ele>
        <time>2015-03-15T19:49:40.058Z</time>
        <name>WPT.636</name>
      </trkpt>
      <trkpt lat="35.194673000" lon="-106.442588000">
        <ele>2622.910</ele>
        <time>2015-03-15T19:49:53.161Z</time>
        <name>WPT.637</name>
      </trkpt>
      <trkpt lat="35.194587000" lon="-106.442645000">
        <ele>2622.080</ele>
        <time>2015-03-15T19:50:08.881Z</time>
        <name>WPT.638</name>
      </trkpt>
      <trkpt lat="35.194502000" lon="-106.442709000">
        <ele>2621.340</ele>
        <time>2015-03-15T19:50:17.061Z</time>
        <name>WPT.639</name>
      </trkpt>
      <trkpt lat="35.194502000" lon="-106.442709000">
        <ele>2620.900</ele>
        <time>2015-03-15T19:50:26.859Z</time>
        <name>WPT.640</name>
      </trkpt>
      <trkpt lat="35.194420000" lon="-106.442758000">
        <ele>2619.880</ele>
        <time>2015-03-15T19:50:40.879Z</time>
        <name>WPT.641</name>
      </trkpt>
      <trkpt lat="35.194330000" lon="-106.442778000">
        <ele>2618.620</ele>
        <time>2015-03-15T19:50:48.061Z</time>
        <name>WPT.642</name>
      </trkpt>
      <trkpt lat="35.194330000" lon="-106.442778000">
        <ele>2617.060</ele>
        <time>2015-03-15T19:51:04.164Z</time>
        <name>WPT.643</name>
      </trkpt>
      <trkpt lat="35.194156000" lon="-106.442841000">
        <ele>2616.310</ele>
        <time>2015-03-15T19:51:33.061Z</time>
        <name>WPT.644</name>
      </trkpt>
      <trkpt lat="35.194156000" lon="-106.442841000">
        <ele>2614.860</ele>
        <time>2015-03-15T19:51:45.691Z</time>
        <name>WPT.645</name>
      </trkpt>
      <trkpt lat="35.194042000" lon="-106.442982000">
        <ele>2613.920</ele>
        <time>2015-03-15T19:52:05.062Z</time>
        <name>WPT.646</name>
      </trkpt>
      <trkpt lat="35.194042000" lon="-106.442982000">
        <ele>2611.990</ele>
        <time>2015-03-15T19:53:37.159Z</time>
        <name>WPT.647</name>
      </trkpt>
      <trkpt lat="35.193979000" lon="-106.443069000">
        <ele>2611.120</ele>
        <time>2015-03-15T19:53:57.056Z</time>
        <name>WPT.648</name>
      </trkpt>
      <trkpt lat="35.193979000" lon="-106.443069000">
        <ele>2608.880</ele>
        <time>2015-03-15T19:54:01.218Z</time>
        <name>WPT.649</name>
      </trkpt>
      <trkpt lat="35.193910000" lon="-106.443141000">
        <ele>2607.070</ele>
        <time>2015-03-15T19:54:36.878Z</time>
        <name>WPT.650</name>
      </trkpt>
      <trkpt lat="35.193844000" lon="-106.443230000">
        <ele>2605.840</ele>
        <time>2015-03-15T19:54:47.061Z</time>
        <name>WPT.651</name>
      </trkpt>
      <trkpt lat="35.193844000" lon="-106.443230000">
        <ele>2600.440</ele>
        <time>2015-03-15T19:55:20.834Z</time>
        <name>WPT.652</name>
      </trkpt>
      <trkpt lat="35.193695000" lon="-106.443464000">
        <ele>2599.410</ele>
        <time>2015-03-15T19:56:03.729Z</time>
        <name>WPT.653</name>
      </trkpt>
      <trkpt lat="35.193615000" lon="-106.443538000">
        <ele>2597.950</ele>
        <time>2015-03-15T19:56:16.283Z</time>
        <name>WPT.654</name>
      </trkpt>
      <trkpt lat="35.193529000" lon="-106.443604000">
        <ele>2593.880</ele>
        <time>2015-03-15T19:56:30.978Z</time>
        <name>WPT.655</name>
      </trkpt>
      <trkpt lat="35.193438000" lon="-106.443637000">
        <ele>2588.610</ele>
        <time>2015-03-15T19:56:48.059Z</time>
        <name>WPT.656</name>
      </trkpt>
      <trkpt lat="35.193438000" lon="-106.443637000">
        <ele>2583.000</ele>
        <time>2015-03-15T19:56:57.158Z</time>
        <name>WPT.657</name>
      </trkpt>
      <trkpt lat="35.193451000" lon="-106.443496000">
        <ele>2581.770</ele>
        <time>2015-03-15T19:57:20.718Z</time>
        <name>WPT.658</name>
      </trkpt>
      <trkpt lat="35.193354000" lon="-106.443484000">
        <ele>2581.170</ele>
        <time>2015-03-15T19:57:33.405Z</time>
        <name>WPT.659</name>
      </trkpt>
      <trkpt lat="35.193263000" lon="-106.443488000">
        <ele>2579.600</ele>
        <time>2015-03-15T19:57:44.226Z</time>
        <name>WPT.660</name>
      </trkpt>
      <trkpt lat="35.193189000" lon="-106.443426000">
        <ele>2577.630</ele>
        <time>2015-03-15T19:57:54.909Z</time>
        <name>WPT.661</name>
      </trkpt>
      <trkpt lat="35.193144000" lon="-106.443330000">
        <ele>2576.110</ele>
        <time>2015-03-15T19:58:07.060Z</time>
        <name>WPT.662</name>
      </trkpt>
      <trkpt lat="35.193144000" lon="-106.443330000">
        <ele>2573.780</ele>
        <time>2015-03-15T19:58:15.981Z</time>
        <name>WPT.663</name>
      </trkpt>
      <trkpt lat="35.193090000" lon="-106.443240000">
        <ele>2572.170</ele>
        <time>2015-03-15T19:58:33.794Z</time>
        <name>WPT.664</name>
      </trkpt>
      <trkpt lat="35.192996000" lon="-106.443243000">
        <ele>2571.450</ele>
        <time>2015-03-15T19:58:44.034Z</time>
        <name>WPT.665</name>
      </trkpt>
      <trkpt lat="35.192996000" lon="-106.443243000">
        <ele>2568.880</ele>
        <time>2015-03-15T19:59:15.263Z</time>
        <name>WPT.666</name>
      </trkpt>
      <trkpt lat="35.193087000" lon="-106.442942000">
        <ele>2567.810</ele>
        <time>2015-03-15T19:59:56.876Z</time>
        <name>WPT.667</name>
      </trkpt>
      <trkpt lat="35.193015000" lon="-106.443015000">
        <ele>2566.670</ele>
        <time>2015-03-15T20:00:06.039Z</time>
        <name>WPT.668</name>
      </trkpt>
      <trkpt lat="35.193015000" lon="-106.443015000">
        <ele>2563.590</ele>
        <time>2015-03-15T20:01:10.955Z</time>
        <name>WPT.669</name>
      </trkpt>
      <trkpt lat="35.192869000" lon="-106.443171000">
        <ele>2562.810</ele>
        <time>2015-03-15T20:01:53.037Z</time>
        <name>WPT.670</name>
      </trkpt>
      <trkpt lat="35.192869000" lon="-106.443171000">
        <ele>2561.890</ele>
        <time>2015-03-15T20:02:37.741Z</time>
        <name>WPT.671</name>
      </trkpt>
      <trkpt lat="35.193016000" lon="-106.442967000">
        <ele>2560.970</ele>
        <time>2015-03-15T20:03:31.054Z</time>
        <name>WPT.672</name>
      </trkpt>
      <trkpt lat="35.193016000" lon="-106.442967000">
        <ele>2559.340</ele>
        <time>2015-03-15T20:04:36.603Z</time>
        <name>WPT.673</name>
      </trkpt>
      <trkpt lat="35.192951000" lon="-106.443062000">
        <ele>2558.640</ele>
        <time>2015-03-15T20:04:46.033Z</time>
        <name>WPT.674</name>
      </trkpt>
      <trkpt lat="35.192951000" lon="-106.443062000">
        <ele>2557.260</ele>
        <time>2015-03-15T20:04:52.133Z</time>
        <name>WPT.675</name>
      </trkpt>
      <trkpt lat="35.192904000" lon="-106.442929000">
        <ele>2556.420</ele>
        <time>2015-03-15T20:05:23.469Z</time>
        <name>WPT.676</name>
      </trkpt>
      <trkpt lat="35.192819000" lon="-106.442976000">
        <ele>2555.920</ele>
        <time>2015-03-15T20:05:38.910Z</time>
        <name>WPT.677</name>
      </trkpt>
      <trkpt lat="35.192744000" lon="-106.442913000">
        <ele>2556.050</ele>
        <time>2015-03-15T20:05:54.337Z</time>
        <name>WPT.678</name>
      </trkpt>
      <trkpt lat="35.192653000" lon="-106.442923000">
        <ele>2555.710</ele>
        <time>2015-03-15T20:06:07.737Z</time>
        <name>WPT.679</name>
      </trkpt>
      <trkpt lat="35.192566000" lon="-106.442864000">
        <ele>2553.800</ele>
        <time>2015-03-15T20:06:20.202Z</time>
        <name>WPT.680</name>
      </trkpt>
      <trkpt lat="35.192479000" lon="-106.442918000">
        <ele>2550.950</ele>
        <time>2015-03-15T20:06:30.820Z</time>
        <name>WPT.681</name>
      </trkpt>
      <trkpt lat="35.192388000" lon="-106.442933000">
        <ele>2548.240</ele>
        <time>2015-03-15T20:06:42.079Z</time>
        <name>WPT.682</name>
      </trkpt>
      <trkpt lat="35.192293000" lon="-106.442919000">
        <ele>2545.940</ele>
        <time>2015-03-15T20:06:54.062Z</time>
        <name>WPT.683</name>
      </trkpt>
      <trkpt lat="35.192293000" lon="-106.442919000">
        <ele>2540.840</ele>
        <time>2015-03-15T20:07:38.220Z</time>
        <name>WPT.684</name>
      </trkpt>
      <trkpt lat="35.192174000" lon="-106.442916000">
        <ele>2539.980</ele>
        <time>2015-03-15T20:07:57.774Z</time>
        <name>WPT.685</name>
      </trkpt>
      <trkpt lat="35.192088000" lon="-106.442976000">
        <ele>2538.730</ele>
        <time>2015-03-15T20:08:06.904Z</time>
        <name>WPT.686</name>
      </trkpt>
      <trkpt lat="35.191999000" lon="-106.443012000">
        <ele>2537.390</ele>
        <time>2015-03-15T20:08:16.855Z</time>
        <name>WPT.687</name>
      </trkpt>
      <trkpt lat="35.191901000" lon="-106.443021000">
        <ele>2536.080</ele>
        <time>2015-03-15T20:08:30.069Z</time>
        <name>WPT.688</name>
      </trkpt>
      <trkpt lat="35.191901000" lon="-106.443021000">
        <ele>2533.510</ele>
        <time>2015-03-15T20:08:40.144Z</time>
        <name>WPT.689</name>
      </trkpt>
      <trkpt lat="35.191809000" lon="-106.443050000">
        <ele>2532.460</ele>
        <time>2015-03-15T20:08:59.744Z</time>
        <name>WPT.690</name>
      </trkpt>
      <trkpt lat="35.191741000" lon="-106.443141000">
        <ele>2531.640</ele>
        <time>2015-03-15T20:09:13.571Z</time>
        <name>WPT.691</name>
      </trkpt>
      <trkpt lat="35.191649000" lon="-106.443169000">
        <ele>2530.610</ele>
        <time>2015-03-15T20:09:26.632Z</time>
        <name>WPT.692</name>
      </trkpt>
      <trkpt lat="35.191574000" lon="-106.443238000">
        <ele>2528.660</ele>
        <time>2015-03-15T20:09:38.990Z</time>
        <name>WPT.693</name>
      </trkpt>
      <trkpt lat="35.191480000" lon="-106.443256000">
        <ele>2525.920</ele>
        <time>2015-03-15T20:09:54.845Z</time>
        <name>WPT.694</name>
      </trkpt>
      <trkpt lat="35.191404000" lon="-106.443342000">
        <ele>2523.520</ele>
        <time>2015-03-15T20:10:10.946Z</time>
        <name>WPT.695</name>
      </trkpt>
      <trkpt lat="35.191351000" lon="-106.443436000">
        <ele>2521.950</ele>
        <time>2015-03-15T20:10:21.041Z</time>
        <name>WPT.696</name>
      </trkpt>
      <trkpt lat="35.191351000" lon="-106.443436000">
        <ele>2519.480</ele>
        <time>2015-03-15T20:10:30.139Z</time>
        <name>WPT.697</name>
      </trkpt>
      <trkpt lat="35.191266000" lon="-106.443570000">
        <ele>2518.460</ele>
        <time>2015-03-15T20:10:52.620Z</time>
        <name>WPT.698</name>
      </trkpt>
      <trkpt lat="35.191226000" lon="-106.443674000">
        <ele>2517.500</ele>
        <time>2015-03-15T20:11:02.383Z</time>
        <name>WPT.699</name>
      </trkpt>
      <trkpt lat="35.191168000" lon="-106.443774000">
        <ele>2516.390</ele>
        <time>2015-03-15T20:11:15.146Z</time>
        <name>WPT.700</name>
      </trkpt>
      <trkpt lat="35.191128000" lon="-106.443878000">
        <ele>2515.450</ele>
        <time>2015-03-15T20:11:27.897Z</time>
        <name>WPT.701</name>
      </trkpt>
      <trkpt lat="35.191088000" lon="-106.443987000">
        <ele>2514.650</ele>
        <time>2015-03-15T20:11:38.590Z</time>
        <name>WPT.702</name>
      </trkpt>
      <trkpt lat="35.191031000" lon="-106.444079000">
        <ele>2513.350</ele>
        <time>2015-03-15T20:11:46.865Z</time>
        <name>WPT.703</name>
      </trkpt>
      <trkpt lat="35.190975000" lon="-106.444168000">
        <ele>2511.340</ele>
        <time>2015-03-15T20:11:54.194Z</time>
        <name>WPT.704</name>
      </trkpt>
      <trkpt lat="35.190893000" lon="-106.444223000">
        <ele>2508.940</ele>
        <time>2015-03-15T20:12:01.804Z</time>
        <name>WPT.705</name>
      </trkpt>
      <trkpt lat="35.190804000" lon="-106.444245000">
        <ele>2506.380</ele>
        <time>2015-03-15T20:12:09.064Z</time>
        <name>WPT.706</name>
      </trkpt>
      <trkpt lat="35.190804000" lon="-106.444245000">
        <ele>2502.530</ele>
        <time>2015-03-15T20:12:18.159Z</time>
        <name>WPT.707</name>
      </trkpt>
      <trkpt lat="35.190652000" lon="-106.444226000">
        <ele>2501.720</ele>
        <time>2015-03-15T20:13:41.962Z</time>
        <name>WPT.708</name>
      </trkpt>
      <trkpt lat="35.190592000" lon="-106.444313000">
        <ele>2500.360</ele>
        <time>2015-03-15T20:13:56.619Z</time>
        <name>WPT.709</name>
      </trkpt>
      <trkpt lat="35.190523000" lon="-106.444392000">
        <ele>2497.390</ele>
        <time>2015-03-15T20:14:14.908Z</time>
        <name>WPT.710</name>
      </trkpt>
      <trkpt lat="35.190458000" lon="-106.444481000">
        <ele>2493.490</ele>
        <time>2015-03-15T20:14:32.192Z</time>
        <name>WPT.711</name>
      </trkpt>
      <trkpt lat="35.190394000" lon="-106.444575000">
        <ele>2489.880</ele>
        <time>2015-03-15T20:14:50.268Z</time>
        <name>WPT.712</name>
      </trkpt>
      <trkpt lat="35.190360000" lon="-106.444689000">
        <ele>2486.930</ele>
        <time>2015-03-15T20:15:08.571Z</time>
        <name>WPT.713</name>
      </trkpt>
      <trkpt lat="35.190387000" lon="-106.444806000">
        <ele>2484.700</ele>
        <time>2015-03-15T20:15:18.893Z</time>
        <name>WPT.714</name>
      </trkpt>
      <trkpt lat="35.190349000" lon="-106.444908000">
        <ele>2482.820</ele>
        <time>2015-03-15T20:15:29.106Z</time>
        <name>WPT.715</name>
      </trkpt>
      <trkpt lat="35.190376000" lon="-106.445014000">
        <ele>2481.030</ele>
        <time>2015-03-15T20:15:40.168Z</time>
        <name>WPT.716</name>
      </trkpt>
      <trkpt lat="35.190467000" lon="-106.445045000">
        <ele>2479.530</ele>
        <time>2015-03-15T20:15:51.735Z</time>
        <name>WPT.717</name>
      </trkpt>
      <trkpt lat="35.190421000" lon="-106.445140000">
        <ele>2477.960</ele>
        <time>2015-03-15T20:16:07.830Z</time>
        <name>WPT.718</name>
      </trkpt>
      <trkpt lat="35.190400000" lon="-106.445249000">
        <ele>2475.590</ele>
        <time>2015-03-15T20:16:24.065Z</time>
        <name>WPT.719</name>
      </trkpt>
      <trkpt lat="35.190378000" lon="-106.445364000">
        <ele>2472.710</ele>
        <time>2015-03-15T20:16:36.223Z</time>
        <name>WPT.720</name>
      </trkpt>
      <trkpt lat="35.190376000" lon="-106.445478000">
        <ele>2470.260</ele>
        <time>2015-03-15T20:16:47.361Z</time>
        <name>WPT.721</name>
      </trkpt>
      <trkpt lat="35.190379000" lon="-106.445607000">
        <ele>2468.370</ele>
        <time>2015-03-15T20:17:00.677Z</time>
        <name>WPT.722</name>
      </trkpt>
      <trkpt lat="35.190356000" lon="-106.445714000">
        <ele>2466.660</ele>
        <time>2015-03-15T20:17:09.893Z</time>
        <name>WPT.723</name>
      </trkpt>
      <trkpt lat="35.190303000" lon="-106.445808000">
        <ele>2464.990</ele>
        <time>2015-03-15T20:17:20.299Z</time>
        <name>WPT.724</name>
      </trkpt>
      <trkpt lat="35.190223000" lon="-106.445869000">
        <ele>2462.300</ele>
        <time>2015-03-15T20:17:32.044Z</time>
        <name>WPT.725</name>
      </trkpt>
      <trkpt lat="35.190160000" lon="-106.445954000">
        <ele>2459.970</ele>
        <time>2015-03-15T20:17:46.696Z</time>
        <name>WPT.726</name>
      </trkpt>
      <trkpt lat="35.190148000" lon="-106.446068000">
        <ele>2458.950</ele>
        <time>2015-03-15T20:18:02.580Z</time>
        <name>WPT.727</name>
      </trkpt>
      <trkpt lat="35.190118000" lon="-106.446180000">
        <ele>2457.990</ele>
        <time>2015-03-15T20:18:15.048Z</time>
        <name>WPT.728</name>
      </trkpt>
      <trkpt lat="35.190118000" lon="-106.446180000">
        <ele>2456.500</ele>
        <time>2015-03-15T20:18:30.144Z</time>
        <name>WPT.729</name>
      </trkpt>
      <trkpt lat="35.190027000" lon="-106.446177000">
        <ele>2454.840</ele>
        <time>2015-03-15T20:18:42.057Z</time>
        <name>WPT.730</name>
      </trkpt>
      <trkpt lat="35.190027000" lon="-106.446177000">
        <ele>2453.900</ele>
        <time>2015-03-15T20:18:44.158Z</time>
        <name>WPT.731</name>
      </trkpt>
      <trkpt lat="35.189958000" lon="-106.446253000">
        <ele>2452.050</ele>
        <time>2015-03-15T20:19:41.421Z</time>
        <name>WPT.732</name>
      </trkpt>
      <trkpt lat="35.189895000" lon="-106.446338000">
        <ele>2451.190</ele>
        <time>2015-03-15T20:20:06.898Z</time>
        <name>WPT.733</name>
      </trkpt>
      <trkpt lat="35.189802000" lon="-106.446349000">
        <ele>2448.940</ele>
        <time>2015-03-15T20:20:14.375Z</time>
        <name>WPT.734</name>
      </trkpt>
      <trkpt lat="35.189715000" lon="-106.446404000">
        <ele>2447.250</ele>
        <time>2015-03-15T20:20:22.061Z</time>
        <name>WPT.735</name>
      </trkpt>
      <trkpt lat="35.189715000" lon="-106.446404000">
        <ele>2445.780</ele>
        <time>2015-03-15T20:20:33.241Z</time>
        <name>WPT.736</name>
      </trkpt>
      <trkpt lat="35.189608000" lon="-106.446480000">
        <ele>2444.920</ele>
        <time>2015-03-15T20:20:48.092Z</time>
        <name>WPT.737</name>
      </trkpt>
      <trkpt lat="35.189509000" lon="-106.446469000">
        <ele>2444.100</ele>
        <time>2015-03-15T20:20:56.047Z</time>
        <name>WPT.738</name>
      </trkpt>
      <trkpt lat="35.189509000" lon="-106.446469000">
        <ele>2442.330</ele>
        <time>2015-03-15T20:21:05.159Z</time>
        <name>WPT.739</name>
      </trkpt>
      <trkpt lat="35.189367000" lon="-106.446503000">
        <ele>2441.410</ele>
        <time>2015-03-15T20:21:28.385Z</time>
        <name>WPT.740</name>
      </trkpt>
      <trkpt lat="35.189273000" lon="-106.446481000">
        <ele>2440.690</ele>
        <time>2015-03-15T20:21:40.443Z</time>
        <name>WPT.741</name>
      </trkpt>
      <trkpt lat="35.189189000" lon="-106.446540000">
        <ele>2439.760</ele>
        <time>2015-03-15T20:21:49.527Z</time>
        <name>WPT.742</name>
      </trkpt>
      <trkpt lat="35.189094000" lon="-106.446523000">
        <ele>2438.280</ele>
        <time>2015-03-15T20:21:58.257Z</time>
        <name>WPT.743</name>
      </trkpt>
      <trkpt lat="35.188999000" lon="-106.446523000">
        <ele>2436.530</ele>
        <time>2015-03-15T20:22:10.075Z</time>
        <name>WPT.744</name>
      </trkpt>
      <trkpt lat="35.188999000" lon="-106.446523000">
        <ele>2434.140</ele>
        <time>2015-03-15T20:22:17.622Z</time>
        <name>WPT.745</name>
      </trkpt>
      <trkpt lat="35.188948000" lon="-106.446616000">
        <ele>2432.870</ele>
        <time>2015-03-15T20:22:35.321Z</time>
        <name>WPT.746</name>
      </trkpt>
      <trkpt lat="35.188982000" lon="-106.446724000">
        <ele>2433.180</ele>
        <time>2015-03-15T20:22:43.063Z</time>
        <name>WPT.747</name>
      </trkpt>
      <trkpt lat="35.188982000" lon="-106.446724000">
        <ele>2436.480</ele>
        <time>2015-03-15T20:23:00.840Z</time>
        <name>WPT.748</name>
      </trkpt>
      <trkpt lat="35.188897000" lon="-106.446660000">
        <ele>2433.490</ele>
        <time>2015-03-15T20:24:01.279Z</time>
        <name>WPT.749</name>
      </trkpt>
      <trkpt lat="35.188795000" lon="-106.446726000">
        <ele>2432.950</ele>
        <time>2015-03-15T20:24:10.643Z</time>
        <name>WPT.750</name>
      </trkpt>
      <trkpt lat="35.188722000" lon="-106.446805000">
        <ele>2434.290</ele>
        <time>2015-03-15T20:24:18.196Z</time>
        <name>WPT.751</name>
      </trkpt>
      <trkpt lat="35.188672000" lon="-106.446899000">
        <ele>2435.930</ele>
        <time>2015-03-15T20:24:28.557Z</time>
        <name>WPT.752</name>
      </trkpt>
      <trkpt lat="35.188619000" lon="-106.446991000">
        <ele>2436.240</ele>
        <time>2015-03-15T20:24:41.096Z</time>
        <name>WPT.753</name>
      </trkpt>
      <trkpt lat="35.188619000" lon="-106.446991000">
        <ele>2434.010</ele>
        <time>2015-03-15T20:25:08.402Z</time>
        <name>WPT.754</name>
      </trkpt>
      <trkpt lat="35.188602000" lon="-106.447111000">
        <ele>2432.970</ele>
        <time>2015-03-15T20:25:29.295Z</time>
        <name>WPT.755</name>
      </trkpt>
      <trkpt lat="35.188518000" lon="-106.447068000">
        <ele>2431.420</ele>
        <time>2015-03-15T20:25:42.741Z</time>
        <name>WPT.756</name>
      </trkpt>
      <trkpt lat="35.188452000" lon="-106.446987000">
        <ele>2428.320</ele>
        <time>2015-03-15T20:25:56.585Z</time>
        <name>WPT.757</name>
      </trkpt>
      <trkpt lat="35.188364000" lon="-106.447023000">
        <ele>2424.770</ele>
        <time>2015-03-15T20:26:10.478Z</time>
        <name>WPT.758</name>
      </trkpt>
      <trkpt lat="35.188307000" lon="-106.447117000">
        <ele>2422.240</ele>
        <time>2015-03-15T20:26:26.268Z</time>
        <name>WPT.759</name>
      </trkpt>
      <trkpt lat="35.188218000" lon="-106.447136000">
        <ele>2420.150</ele>
        <time>2015-03-15T20:26:42.934Z</time>
        <name>WPT.760</name>
      </trkpt>
      <trkpt lat="35.188131000" lon="-106.447180000">
        <ele>2417.300</ele>
        <time>2015-03-15T20:26:58.105Z</time>
        <name>WPT.761</name>
      </trkpt>
      <trkpt lat="35.188040000" lon="-106.447175000">
        <ele>2413.480</ele>
        <time>2015-03-15T20:27:12.144Z</time>
        <name>WPT.762</name>
      </trkpt>
      <trkpt lat="35.187945000" lon="-106.447206000">
        <ele>2409.550</ele>
        <time>2015-03-15T20:27:25.950Z</time>
        <name>WPT.763</name>
      </trkpt>
      <trkpt lat="35.187882000" lon="-106.447288000">
        <ele>2406.100</ele>
        <time>2015-03-15T20:27:35.961Z</time>
        <name>WPT.764</name>
      </trkpt>
      <trkpt lat="35.187810000" lon="-106.447371000">
        <ele>2403.030</ele>
        <time>2015-03-15T20:27:44.722Z</time>
        <name>WPT.765</name>
      </trkpt>
      <trkpt lat="35.187766000" lon="-106.447470000">
        <ele>2400.430</ele>
        <time>2015-03-15T20:27:52.738Z</time>
        <name>WPT.766</name>
      </trkpt>
      <trkpt lat="35.187724000" lon="-106.447569000">
        <ele>2398.420</ele>
        <time>2015-03-15T20:28:02.804Z</time>
        <name>WPT.767</name>
      </trkpt>
      <trkpt lat="35.187753000" lon="-106.447685000">
        <ele>2396.480</ele>
        <time>2015-03-15T20:28:16.128Z</time>
        <name>WPT.768</name>
      </trkpt>
      <trkpt lat="35.187700000" lon="-106.447800000">
        <ele>2394.200</ele>
        <time>2015-03-15T20:28:29.052Z</time>
        <name>WPT.769</name>
      </trkpt>
      <trkpt lat="35.187700000" lon="-106.447800000">
        <ele>2390.630</ele>
        <time>2015-03-15T20:28:37.160Z</time>
        <name>WPT.770</name>
      </trkpt>
      <trkpt lat="35.187687000" lon="-106.447919000">
        <ele>2389.910</ele>
        <time>2015-03-15T20:29:59.848Z</time>
        <name>WPT.771</name>
      </trkpt>
      <trkpt lat="35.187604000" lon="-106.447987000">
        <ele>2388.970</ele>
        <time>2015-03-15T20:30:18.666Z</time>
        <name>WPT.772</name>
      </trkpt>
      <trkpt lat="35.187569000" lon="-106.448089000">
        <ele>2386.740</ele>
        <time>2015-03-15T20:30:26.786Z</time>
        <name>WPT.773</name>
      </trkpt>
      <trkpt lat="35.187581000" lon="-106.448205000">
        <ele>2383.470</ele>
        <time>2015-03-15T20:30:33.604Z</time>
        <name>WPT.774</name>
      </trkpt>
      <trkpt lat="35.187598000" lon="-106.448320000">
        <ele>2380.640</ele>
        <time>2015-03-15T20:30:40.823Z</time>
        <name>WPT.775</name>
      </trkpt>
      <trkpt lat="35.187580000" lon="-106.448433000">
        <ele>2378.860</ele>
        <time>2015-03-15T20:30:48.709Z</time>
        <name>WPT.776</name>
      </trkpt>
      <trkpt lat="35.187550000" lon="-106.448540000">
        <ele>2377.450</ele>
        <time>2015-03-15T20:30:57.060Z</time>
        <name>WPT.777</name>
      </trkpt>
      <trkpt lat="35.187550000" lon="-106.448540000">
        <ele>2374.810</ele>
        <time>2015-03-15T20:31:11.145Z</time>
        <name>WPT.778</name>
      </trkpt>
      <trkpt lat="35.187490000" lon="-106.448651000">
        <ele>2373.850</ele>
        <time>2015-03-15T20:31:36.212Z</time>
        <name>WPT.779</name>
      </trkpt>
      <trkpt lat="35.187427000" lon="-106.448734000">
        <ele>2372.900</ele>
        <time>2015-03-15T20:31:50.209Z</time>
        <name>WPT.780</name>
      </trkpt>
      <trkpt lat="35.187419000" lon="-106.448847000">
        <ele>2371.380</ele>
        <time>2015-03-15T20:32:04.422Z</time>
        <name>WPT.781</name>
      </trkpt>
      <trkpt lat="35.187417000" lon="-106.448965000">
        <ele>2369.120</ele>
        <time>2015-03-15T20:32:20.036Z</time>
        <name>WPT.782</name>
      </trkpt>
      <trkpt lat="35.187417000" lon="-106.448965000">
        <ele>2364.360</ele>
        <time>2015-03-15T20:32:43.136Z</time>
        <name>WPT.783</name>
      </trkpt>
      <trkpt lat="35.187341000" lon="-106.449105000">
        <ele>2363.760</ele>
        <time>2015-03-15T20:32:57.053Z</time>
        <name>WPT.784</name>
      </trkpt>
      <trkpt lat="35.187341000" lon="-106.449105000">
        <ele>2361.790</ele>
        <time>2015-03-15T20:33:00.151Z</time>
        <name>WPT.785</name>
      </trkpt>
      <trkpt lat="35.187365000" lon="-106.449217000">
        <ele>2360.170</ele>
        <time>2015-03-15T20:33:36.280Z</time>
        <name>WPT.786</name>
      </trkpt>
      <trkpt lat="35.187298000" lon="-106.449301000">
        <ele>2359.400</ele>
        <time>2015-03-15T20:33:49.055Z</time>
        <name>WPT.787</name>
      </trkpt>
      <trkpt lat="35.187227000" lon="-106.449374000">
        <ele>2357.530</ele>
        <time>2015-03-15T20:34:01.519Z</time>
        <name>WPT.788</name>
      </trkpt>
      <trkpt lat="35.187201000" lon="-106.449486000">
        <ele>2354.680</ele>
        <time>2015-03-15T20:34:17.637Z</time>
        <name>WPT.789</name>
      </trkpt>
      <trkpt lat="35.187144000" lon="-106.449584000">
        <ele>2351.640</ele>
        <time>2015-03-15T20:34:29.764Z</time>
        <name>WPT.790</name>
      </trkpt>
      <trkpt lat="35.187076000" lon="-106.449658000">
        <ele>2349.060</ele>
        <time>2015-03-15T20:34:40.064Z</time>
        <name>WPT.791</name>
      </trkpt>
      <trkpt lat="35.187076000" lon="-106.449658000">
        <ele>2346.230</ele>
        <time>2015-03-15T20:34:54.899Z</time>
        <name>WPT.792</name>
      </trkpt>
      <trkpt lat="35.187047000" lon="-106.449817000">
        <ele>2345.540</ele>
        <time>2015-03-15T20:35:16.323Z</time>
        <name>WPT.793</name>
      </trkpt>
      <trkpt lat="35.187018000" lon="-106.449921000">
        <ele>2344.770</ele>
        <time>2015-03-15T20:35:26.227Z</time>
        <name>WPT.794</name>
      </trkpt>
      <trkpt lat="35.186949000" lon="-106.450003000">
        <ele>2343.770</ele>
        <time>2015-03-15T20:35:38.243Z</time>
        <name>WPT.795</name>
      </trkpt>
      <trkpt lat="35.186868000" lon="-106.450057000">
        <ele>2342.520</ele>
        <time>2015-03-15T20:35:53.063Z</time>
        <name>WPT.796</name>
      </trkpt>
      <trkpt lat="35.186868000" lon="-106.450057000">
        <ele>2339.940</ele>
        <time>2015-03-15T20:35:57.166Z</time>
        <name>WPT.797</name>
      </trkpt>
      <trkpt lat="35.186796000" lon="-106.450159000">
        <ele>2338.450</ele>
        <time>2015-03-15T20:36:12.673Z</time>
        <name>WPT.798</name>
      </trkpt>
      <trkpt lat="35.186728000" lon="-106.450232000">
        <ele>2338.310</ele>
        <time>2015-03-15T20:36:19.066Z</time>
        <name>WPT.799</name>
      </trkpt>
      <trkpt lat="35.186728000" lon="-106.450232000">
        <ele>2337.930</ele>
        <time>2015-03-15T20:36:26.577Z</time>
        <name>WPT.800</name>
      </trkpt>
      <trkpt lat="35.186646000" lon="-106.450285000">
        <ele>2336.940</ele>
        <time>2015-03-15T20:36:51.089Z</time>
        <name>WPT.801</name>
      </trkpt>
      <trkpt lat="35.186560000" lon="-106.450327000">
        <ele>2335.800</ele>
        <time>2015-03-15T20:37:14.821Z</time>
        <name>WPT.802</name>
      </trkpt>
      <trkpt lat="35.186478000" lon="-106.450377000">
        <ele>2334.560</ele>
        <time>2015-03-15T20:37:42.916Z</time>
        <name>WPT.803</name>
      </trkpt>
      <trkpt lat="35.186413000" lon="-106.450464000">
        <ele>2332.410</ele>
        <time>2015-03-15T20:38:25.060Z</time>
        <name>WPT.804</name>
      </trkpt>
      <trkpt lat="35.186413000" lon="-106.450464000">
        <ele>2327.290</ele>
        <time>2015-03-15T20:38:43.152Z</time>
        <name>WPT.805</name>
      </trkpt>
      <trkpt lat="35.186310000" lon="-106.450530000">
        <ele>2326.420</ele>
        <time>2015-03-15T20:39:18.131Z</time>
        <name>WPT.806</name>
      </trkpt>
      <trkpt lat="35.186232000" lon="-106.450591000">
        <ele>2324.970</ele>
        <time>2015-03-15T20:39:29.089Z</time>
        <name>WPT.807</name>
      </trkpt>
      <trkpt lat="35.186133000" lon="-106.450577000">
        <ele>2321.160</ele>
        <time>2015-03-15T20:39:39.587Z</time>
        <name>WPT.808</name>
      </trkpt>
      <trkpt lat="35.186045000" lon="-106.450630000">
        <ele>2316.380</ele>
        <time>2015-03-15T20:39:49.306Z</time>
        <name>WPT.809</name>
      </trkpt>
      <trkpt lat="35.185948000" lon="-106.450665000">
        <ele>2312.640</ele>
        <time>2015-03-15T20:39:57.502Z</time>
        <name>WPT.810</name>
      </trkpt>
      <trkpt lat="35.185854000" lon="-106.450662000">
        <ele>2309.980</ele>
        <time>2015-03-15T20:40:04.776Z</time>
        <name>WPT.811</name>
      </trkpt>
      <trkpt lat="35.185764000" lon="-106.450666000">
        <ele>2308.070</ele>
        <time>2015-03-15T20:40:11.538Z</time>
        <name>WPT.812</name>
      </trkpt>
      <trkpt lat="35.185668000" lon="-106.450697000">
        <ele>2306.690</ele>
        <time>2015-03-15T20:40:19.477Z</time>
        <name>WPT.813</name>
      </trkpt>
      <trkpt lat="35.185580000" lon="-106.450742000">
        <ele>2305.430</ele>
        <time>2015-03-15T20:40:27.852Z</time>
        <name>WPT.814</name>
      </trkpt>
      <trkpt lat="35.185483000" lon="-106.450760000">
        <ele>2303.890</ele>
        <time>2015-03-15T20:40:37.877Z</time>
        <name>WPT.815</name>
      </trkpt>
      <trkpt lat="35.185411000" lon="-106.450843000">
        <ele>2301.920</ele>
        <time>2015-03-15T20:40:48.395Z</time>
        <name>WPT.816</name>
      </trkpt>
      <trkpt lat="35.185322000" lon="-106.450893000">
        <ele>2299.760</ele>
        <time>2015-03-15T20:40:58.622Z</time>
        <name>WPT.817</name>
      </trkpt>
      <trkpt lat="35.185270000" lon="-106.450994000">
        <ele>2297.690</ele>
        <time>2015-03-15T20:41:08.089Z</time>
        <name>WPT.818</name>
      </trkpt>
      <trkpt lat="35.185238000" lon="-106.451105000">
        <ele>2295.810</ele>
        <time>2015-03-15T20:41:17.051Z</time>
        <name>WPT.819</name>
      </trkpt>
      <trkpt lat="35.185238000" lon="-106.451105000">
        <ele>2293.360</ele>
        <time>2015-03-15T20:41:33.163Z</time>
        <name>WPT.820</name>
      </trkpt>
      <trkpt lat="35.185142000" lon="-106.451198000">
        <ele>2292.800</ele>
        <time>2015-03-15T20:41:44.041Z</time>
        <name>WPT.821</name>
      </trkpt>
      <trkpt lat="35.185142000" lon="-106.451198000">
        <ele>2291.510</ele>
        <time>2015-03-15T20:41:49.850Z</time>
        <name>WPT.822</name>
      </trkpt>
      <trkpt lat="35.185064000" lon="-106.451274000">
        <ele>2289.960</ele>
        <time>2015-03-15T20:42:04.745Z</time>
        <name>WPT.823</name>
      </trkpt>
      <trkpt lat="35.185082000" lon="-106.451382000">
        <ele>2289.550</ele>
        <time>2015-03-15T20:42:12.421Z</time>
        <name>WPT.824</name>
      </trkpt>
      <trkpt lat="35.185069000" lon="-106.451495000">
        <ele>2289.390</ele>
        <time>2015-03-15T20:42:19.046Z</time>
        <name>WPT.825</name>
      </trkpt>
      <trkpt lat="35.185069000" lon="-106.451495000">
        <ele>2288.560</ele>
        <time>2015-03-15T20:42:34.484Z</time>
        <name>WPT.826</name>
      </trkpt>
      <trkpt lat="35.184991000" lon="-106.451582000">
        <ele>2287.650</ele>
        <time>2015-03-15T20:42:49.757Z</time>
        <name>WPT.827</name>
      </trkpt>
      <trkpt lat="35.184925000" lon="-106.451662000">
        <ele>2286.890</ele>
        <time>2015-03-15T20:42:59.062Z</time>
        <name>WPT.828</name>
      </trkpt>
      <trkpt lat="35.184925000" lon="-106.451662000">
        <ele>2286.160</ele>
        <time>2015-03-15T20:43:46.777Z</time>
        <name>WPT.829</name>
      </trkpt>
      <trkpt lat="35.184881000" lon="-106.451904000">
        <ele>2285.310</ele>
        <time>2015-03-15T20:44:26.231Z</time>
        <name>WPT.830</name>
      </trkpt>
      <trkpt lat="35.184836000" lon="-106.452004000">
        <ele>2283.970</ele>
        <time>2015-03-15T20:44:38.607Z</time>
        <name>WPT.831</name>
      </trkpt>
      <trkpt lat="35.184832000" lon="-106.452120000">
        <ele>2282.050</ele>
        <time>2015-03-15T20:44:48.979Z</time>
        <name>WPT.832</name>
      </trkpt>
      <trkpt lat="35.184870000" lon="-106.452224000">
        <ele>2279.750</ele>
        <time>2015-03-15T20:44:58.838Z</time>
        <name>WPT.833</name>
      </trkpt>
      <trkpt lat="35.184916000" lon="-106.452324000">
        <ele>2277.590</ele>
        <time>2015-03-15T20:45:09.120Z</time>
        <name>WPT.834</name>
      </trkpt>
      <trkpt lat="35.184889000" lon="-106.452435000">
        <ele>2275.820</ele>
        <time>2015-03-15T20:45:19.151Z</time>
        <name>WPT.835</name>
      </trkpt>
      <trkpt lat="35.184869000" lon="-106.452545000">
        <ele>2274.420</ele>
        <time>2015-03-15T20:45:27.407Z</time>
        <name>WPT.836</name>
      </trkpt>
      <trkpt lat="35.184919000" lon="-106.452643000">
        <ele>2273.100</ele>
        <time>2015-03-15T20:45:36.511Z</time>
        <name>WPT.837</name>
      </trkpt>
      <trkpt lat="35.184980000" lon="-106.452736000">
        <ele>2271.870</ele>
        <time>2015-03-15T20:45:46.792Z</time>
        <name>WPT.838</name>
      </trkpt>
      <trkpt lat="35.185003000" lon="-106.452849000">
        <ele>2271.010</ele>
        <time>2015-03-15T20:45:57.839Z</time>
        <name>WPT.839</name>
      </trkpt>
      <trkpt lat="35.185021000" lon="-106.452960000">
        <ele>2270.460</ele>
        <time>2015-03-15T20:46:09.390Z</time>
        <name>WPT.840</name>
      </trkpt>
      <trkpt lat="35.185031000" lon="-106.453074000">
        <ele>2269.650</ele>
        <time>2015-03-15T20:46:25.057Z</time>
        <name>WPT.841</name>
      </trkpt>
      <trkpt lat="35.185031000" lon="-106.453074000">
        <ele>2267.130</ele>
        <time>2015-03-15T20:46:29.162Z</time>
        <name>WPT.842</name>
      </trkpt>
      <trkpt lat="35.185037000" lon="-106.453184000">
        <ele>2265.730</ele>
        <time>2015-03-15T20:46:50.062Z</time>
        <name>WPT.843</name>
      </trkpt>
      <trkpt lat="35.185037000" lon="-106.453184000">
        <ele>2264.280</ele>
        <time>2015-03-15T20:47:01.661Z</time>
        <name>WPT.844</name>
      </trkpt>
      <trkpt lat="35.185044000" lon="-106.453302000">
        <ele>2262.590</ele>
        <time>2015-03-15T20:47:19.482Z</time>
        <name>WPT.845</name>
      </trkpt>
      <trkpt lat="35.185054000" lon="-106.453412000">
        <ele>2262.030</ele>
        <time>2015-03-15T20:47:30.586Z</time>
        <name>WPT.846</name>
      </trkpt>
      <trkpt lat="35.185053000" lon="-106.453529000">
        <ele>2260.740</ele>
        <time>2015-03-15T20:47:42.945Z</time>
        <name>WPT.847</name>
      </trkpt>
      <trkpt lat="35.185014000" lon="-106.453634000">
        <ele>2258.700</ele>
        <time>2015-03-15T20:47:54.891Z</time>
        <name>WPT.848</name>
      </trkpt>
      <trkpt lat="35.184989000" lon="-106.453752000">
        <ele>2256.600</ele>
        <time>2015-03-15T20:48:06.196Z</time>
        <name>WPT.849</name>
      </trkpt>
      <trkpt lat="35.184973000" lon="-106.453870000">
        <ele>2254.900</ele>
        <time>2015-03-15T20:48:16.078Z</time>
        <name>WPT.850</name>
      </trkpt>
      <trkpt lat="35.184973000" lon="-106.453870000">
        <ele>2252.620</ele>
        <time>2015-03-15T20:48:24.162Z</time>
        <name>WPT.851</name>
      </trkpt>
      <trkpt lat="35.184894000" lon="-106.453971000">
        <ele>2251.960</ele>
        <time>2015-03-15T20:48:39.458Z</time>
        <name>WPT.852</name>
      </trkpt>
      <trkpt lat="35.184852000" lon="-106.454075000">
        <ele>2251.440</ele>
        <time>2015-03-15T20:48:47.851Z</time>
        <name>WPT.853</name>
      </trkpt>
      <trkpt lat="35.184827000" lon="-106.454183000">
        <ele>2251.110</ele>
        <time>2015-03-15T20:48:56.065Z</time>
        <name>WPT.854</name>
      </trkpt>
      <trkpt lat="35.184827000" lon="-106.454183000">
        <ele>2250.760</ele>
        <time>2015-03-15T20:49:05.098Z</time>
        <name>WPT.855</name>
      </trkpt>
      <trkpt lat="35.184725000" lon="-106.454250000">
        <ele>2248.860</ele>
        <time>2015-03-15T20:49:26.777Z</time>
        <name>WPT.856</name>
      </trkpt>
      <trkpt lat="35.184656000" lon="-106.454335000">
        <ele>2248.370</ele>
        <time>2015-03-15T20:49:36.100Z</time>
        <name>WPT.857</name>
      </trkpt>
      <trkpt lat="35.184606000" lon="-106.454427000">
        <ele>2248.140</ele>
        <time>2015-03-15T20:49:43.274Z</time>
        <name>WPT.858</name>
      </trkpt>
      <trkpt lat="35.184546000" lon="-106.454518000">
        <ele>2247.640</ele>
        <time>2015-03-15T20:49:49.982Z</time>
        <name>WPT.859</name>
      </trkpt>
      <trkpt lat="35.184502000" lon="-106.454616000">
        <ele>2246.630</ele>
        <time>2015-03-15T20:49:56.064Z</time>
        <name>WPT.860</name>
      </trkpt>
      <trkpt lat="35.184502000" lon="-106.454616000">
        <ele>2244.340</ele>
        <time>2015-03-15T20:50:05.782Z</time>
        <name>WPT.861</name>
      </trkpt>
      <trkpt lat="35.184435000" lon="-106.454706000">
        <ele>2243.060</ele>
        <time>2015-03-15T20:50:31.654Z</time>
        <name>WPT.862</name>
      </trkpt>
      <trkpt lat="35.184394000" lon="-106.454821000">
        <ele>2242.630</ele>
        <time>2015-03-15T20:50:55.064Z</time>
        <name>WPT.863</name>
      </trkpt>
      <trkpt lat="35.184394000" lon="-106.454821000">
        <ele>2240.890</ele>
        <time>2015-03-15T20:51:22.450Z</time>
        <name>WPT.864</name>
      </trkpt>
      <trkpt lat="35.184273000" lon="-106.454920000">
        <ele>2239.870</ele>
        <time>2015-03-15T20:51:44.365Z</time>
        <name>WPT.865</name>
      </trkpt>
      <trkpt lat="35.184189000" lon="-106.454982000">
        <ele>2238.910</ele>
        <time>2015-03-15T20:51:54.350Z</time>
        <name>WPT.866</name>
      </trkpt>
      <trkpt lat="35.184114000" lon="-106.455044000">
        <ele>2237.690</ele>
        <time>2015-03-15T20:52:04.161Z</time>
        <name>WPT.867</name>
      </trkpt>
      <trkpt lat="35.184038000" lon="-106.455112000">
        <ele>2236.330</ele>
        <time>2015-03-15T20:52:14.684Z</time>
        <name>WPT.868</name>
      </trkpt>
      <trkpt lat="35.183949000" lon="-106.455169000">
        <ele>2235.080</ele>
        <time>2015-03-15T20:52:25.443Z</time>
        <name>WPT.869</name>
      </trkpt>
      <trkpt lat="35.183869000" lon="-106.455235000">
        <ele>2233.880</ele>
        <time>2015-03-15T20:52:34.497Z</time>
        <name>WPT.870</name>
      </trkpt>
      <trkpt lat="35.183769000" lon="-106.455239000">
        <ele>2232.740</ele>
        <time>2015-03-15T20:52:44.428Z</time>
        <name>WPT.871</name>
      </trkpt>
      <trkpt lat="35.183681000" lon="-106.455212000">
        <ele>2231.750</ele>
        <time>2015-03-15T20:52:55.803Z</time>
        <name>WPT.872</name>
      </trkpt>
      <trkpt lat="35.183610000" lon="-106.455289000">
        <ele>2230.890</ele>
        <time>2015-03-15T20:53:08.813Z</time>
        <name>WPT.873</name>
      </trkpt>
      <trkpt lat="35.183522000" lon="-106.455338000">
        <ele>2230.010</ele>
        <time>2015-03-15T20:53:23.464Z</time>
        <name>WPT.874</name>
      </trkpt>
      <trkpt lat="35.183433000" lon="-106.455376000">
        <ele>2229.230</ele>
        <time>2015-03-15T20:53:35.990Z</time>
        <name>WPT.875</name>
      </trkpt>
      <trkpt lat="35.183343000" lon="-106.455373000">
        <ele>2228.570</ele>
        <time>2015-03-15T20:53:48.499Z</time>
        <name>WPT.876</name>
      </trkpt>
      <trkpt lat="35.183243000" lon="-106.455371000">
        <ele>2227.910</ele>
        <time>2015-03-15T20:54:00.248Z</time>
        <name>WPT.877</name>
      </trkpt>
      <trkpt lat="35.183155000" lon="-106.455398000">
        <ele>2227.190</ele>
        <time>2015-03-15T20:54:08.486Z</time>
        <name>WPT.878</name>
      </trkpt>
      <trkpt lat="35.183064000" lon="-106.455416000">
        <ele>2226.360</ele>
        <time>2015-03-15T20:54:18.306Z</time>
        <name>WPT.879</name>
      </trkpt>
      <trkpt lat="35.182974000" lon="-106.455410000">
        <ele>2225.310</ele>
        <time>2015-03-15T20:54:31.888Z</time>
        <name>WPT.880</name>
      </trkpt>
      <trkpt lat="35.182884000" lon="-106.455444000">
        <ele>2223.840</ele>
        <time>2015-03-15T20:54:47.058Z</time>
        <name>WPT.881</name>
      </trkpt>
      <trkpt lat="35.182884000" lon="-106.455444000">
        <ele>2220.840</ele>
        <time>2015-03-15T20:54:54.349Z</time>
        <name>WPT.882</name>
      </trkpt>
      <trkpt lat="35.182806000" lon="-106.455516000">
        <ele>2219.540</ele>
        <time>2015-03-15T20:55:05.064Z</time>
        <name>WPT.883</name>
      </trkpt>
      <trkpt lat="35.182806000" lon="-106.455516000">
        <ele>2218.370</ele>
        <time>2015-03-15T20:55:11.192Z</time>
        <name>WPT.884</name>
      </trkpt>
      <trkpt lat="35.182730000" lon="-106.455593000">
        <ele>2216.770</ele>
        <time>2015-03-15T20:55:41.783Z</time>
        <name>WPT.885</name>
      </trkpt>
      <trkpt lat="35.182661000" lon="-106.455686000">
        <ele>2216.150</ele>
        <time>2015-03-15T20:56:13.655Z</time>
        <name>WPT.886</name>
      </trkpt>
      <trkpt lat="35.182597000" lon="-106.455764000">
        <ele>2215.110</ele>
        <time>2015-03-15T20:56:26.579Z</time>
        <name>WPT.887</name>
      </trkpt>
      <trkpt lat="35.182540000" lon="-106.455855000">
        <ele>2213.870</ele>
        <time>2015-03-15T20:56:39.773Z</time>
        <name>WPT.888</name>
      </trkpt>
      <trkpt lat="35.182466000" lon="-106.455925000">
        <ele>2212.950</ele>
        <time>2015-03-15T20:56:55.328Z</time>
        <name>WPT.889</name>
      </trkpt>
      <trkpt lat="35.182375000" lon="-106.455966000">
        <ele>2212.190</ele>
        <time>2015-03-15T20:57:11.038Z</time>
        <name>WPT.890</name>
      </trkpt>
      <trkpt lat="35.182375000" lon="-106.455966000">
        <ele>2210.270</ele>
        <time>2015-03-15T20:57:20.138Z</time>
        <name>WPT.891</name>
      </trkpt>
      <trkpt lat="35.182342000" lon="-106.456102000">
        <ele>2208.960</ele>
        <time>2015-03-15T20:57:57.294Z</time>
        <name>WPT.892</name>
      </trkpt>
      <trkpt lat="35.182304000" lon="-106.456203000">
        <ele>2208.660</ele>
        <time>2015-03-15T20:58:32.809Z</time>
        <name>WPT.893</name>
      </trkpt>
      <trkpt lat="35.182260000" lon="-106.456302000">
        <ele>2208.410</ele>
        <time>2015-03-15T20:59:20.338Z</time>
        <name>WPT.894</name>
      </trkpt>
      <trkpt lat="35.182227000" lon="-106.456407000">
        <ele>2207.820</ele>
        <time>2015-03-15T21:00:11.658Z</time>
        <name>WPT.895</name>
      </trkpt>
      <trkpt lat="35.182179000" lon="-106.456506000">
        <ele>2206.700</ele>
        <time>2015-03-15T21:01:03.932Z</time>
        <name>WPT.896</name>
      </trkpt>
      <trkpt lat="35.182211000" lon="-106.456617000">
        <ele>2205.320</ele>
        <time>2015-03-15T21:01:44.674Z</time>
        <name>WPT.897</name>
      </trkpt>
      <trkpt lat="35.182250000" lon="-106.456717000">
        <ele>2204.180</ele>
        <time>2015-03-15T21:02:15.320Z</time>
        <name>WPT.898</name>
      </trkpt>
      <trkpt lat="35.182191000" lon="-106.456620000">
        <ele>2203.610</ele>
        <time>2015-03-15T21:03:01.708Z</time>
        <name>WPT.899</name>
      </trkpt>
      <trkpt lat="35.182100000" lon="-106.456616000">
        <ele>2203.550</ele>
        <time>2015-03-15T21:03:44.063Z</time>
        <name>WPT.900</name>
      </trkpt>
      <trkpt lat="35.182100000" lon="-106.456616000">
        <ele>2201.280</ele>
        <time>2015-03-15T21:04:09.153Z</time>
        <name>WPT.901</name>
      </trkpt>
      <trkpt lat="35.182008000" lon="-106.456566000">
        <ele>2200.570</ele>
        <time>2015-03-15T21:04:59.085Z</time>
        <name>WPT.902</name>
      </trkpt>
      <trkpt lat="35.182008000" lon="-106.456566000">
        <ele>2199.590</ele>
        <time>2015-03-15T21:05:22.448Z</time>
        <name>WPT.903</name>
      </trkpt>
      <trkpt lat="35.181866000" lon="-106.456699000">
        <ele>2198.800</ele>
        <time>2015-03-15T21:05:53.833Z</time>
        <name>WPT.904</name>
      </trkpt>
      <trkpt lat="35.181775000" lon="-106.456699000">
        <ele>2197.920</ele>
        <time>2015-03-15T21:06:03.554Z</time>
        <name>WPT.905</name>
      </trkpt>
      <trkpt lat="35.181690000" lon="-106.456751000">
        <ele>2197.140</ele>
        <time>2015-03-15T21:06:12.210Z</time>
        <name>WPT.906</name>
      </trkpt>
      <trkpt lat="35.181615000" lon="-106.456825000">
        <ele>2196.380</ele>
        <time>2015-03-15T21:06:22.134Z</time>
        <name>WPT.907</name>
      </trkpt>
      <trkpt lat="35.181546000" lon="-106.456904000">
        <ele>2195.570</ele>
        <time>2015-03-15T21:06:32.479Z</time>
        <name>WPT.908</name>
      </trkpt>
      <trkpt lat="35.181492000" lon="-106.456997000">
        <ele>2194.700</ele>
        <time>2015-03-15T21:06:41.365Z</time>
        <name>WPT.909</name>
      </trkpt>
      <trkpt lat="35.181471000" lon="-106.457110000">
        <ele>2193.770</ele>
        <time>2015-03-15T21:06:49.529Z</time>
        <name>WPT.910</name>
      </trkpt>
      <trkpt lat="35.181488000" lon="-106.457222000">
        <ele>2192.860</ele>
        <time>2015-03-15T21:06:57.547Z</time>
        <name>WPT.911</name>
      </trkpt>
      <trkpt lat="35.181456000" lon="-106.457334000">
        <ele>2192.150</ele>
        <time>2015-03-15T21:07:05.325Z</time>
        <name>WPT.912</name>
      </trkpt>
      <trkpt lat="35.181452000" lon="-106.457457000">
        <ele>2191.590</ele>
        <time>2015-03-15T21:07:12.111Z</time>
        <name>WPT.913</name>
      </trkpt>
      <trkpt lat="35.181435000" lon="-106.457572000">
        <ele>2190.880</ele>
        <time>2015-03-15T21:07:17.872Z</time>
        <name>WPT.914</name>
      </trkpt>
      <trkpt lat="35.181443000" lon="-106.457702000">
        <ele>2189.920</ele>
        <time>2015-03-15T21:07:23.930Z</time>
        <name>WPT.915</name>
      </trkpt>
      <trkpt lat="35.181487000" lon="-106.457802000">
        <ele>2188.800</ele>
        <time>2015-03-15T21:07:29.375Z</time>
        <name>WPT.916</name>
      </trkpt>
      <trkpt lat="35.181541000" lon="-106.457899000">
        <ele>2187.720</ele>
        <time>2015-03-15T21:07:35.712Z</time>
        <name>WPT.917</name>
      </trkpt>
      <trkpt lat="35.181578000" lon="-106.458002000">
        <ele>2186.970</ele>
        <time>2015-03-15T21:07:42.975Z</time>
        <name>WPT.918</name>
      </trkpt>
      <trkpt lat="35.181580000" lon="-106.458116000">
        <ele>2186.610</ele>
        <time>2015-03-15T21:07:51.850Z</time>
        <name>WPT.919</name>
      </trkpt>
      <trkpt lat="35.181623000" lon="-106.458217000">
        <ele>2186.260</ele>
        <time>2015-03-15T21:08:01.461Z</time>
        <name>WPT.920</name>
      </trkpt>
      <trkpt lat="35.181635000" lon="-106.458326000">
        <ele>2185.500</ele>
        <time>2015-03-15T21:08:10.182Z</time>
        <name>WPT.921</name>
      </trkpt>
      <trkpt lat="35.181647000" lon="-106.458443000">
        <ele>2184.380</ele>
        <time>2015-03-15T21:08:19.262Z</time>
        <name>WPT.922</name>
      </trkpt>
      <trkpt lat="35.181675000" lon="-106.458553000">
        <ele>2183.120</ele>
        <time>2015-03-15T21:08:28.335Z</time>
        <name>WPT.923</name>
      </trkpt>
      <trkpt lat="35.181682000" lon="-106.458664000">
        <ele>2181.670</ele>
        <time>2015-03-15T21:08:36.465Z</time>
        <name>WPT.924</name>
      </trkpt>
      <trkpt lat="35.181685000" lon="-106.458791000">
        <ele>2180.110</ele>
        <time>2015-03-15T21:08:44.371Z</time>
        <name>WPT.925</name>
      </trkpt>
      <trkpt lat="35.181697000" lon="-106.458911000">
        <ele>2178.650</ele>
        <time>2015-03-15T21:08:52.130Z</time>
        <name>WPT.926</name>
      </trkpt>
      <trkpt lat="35.181709000" lon="-106.459030000">
        <ele>2177.410</ele>
        <time>2015-03-15T21:09:00.705Z</time>
        <name>WPT.927</name>
      </trkpt>
      <trkpt lat="35.181688000" lon="-106.459142000">
        <ele>2176.260</ele>
        <time>2015-03-15T21:09:09.247Z</time>
        <name>WPT.928</name>
      </trkpt>
      <trkpt lat="35.181687000" lon="-106.459261000">
        <ele>2174.990</ele>
        <time>2015-03-15T21:09:17.402Z</time>
        <name>WPT.929</name>
      </trkpt>
      <trkpt lat="35.181681000" lon="-106.459375000">
        <ele>2173.660</ele>
        <time>2015-03-15T21:09:24.314Z</time>
        <name>WPT.930</name>
      </trkpt>
      <trkpt lat="35.181683000" lon="-106.459487000">
        <ele>2172.480</ele>
        <time>2015-03-15T21:09:31.765Z</time>
        <name>WPT.931</name>
      </trkpt>
      <trkpt lat="35.181660000" lon="-106.459594000">
        <ele>2171.410</ele>
        <time>2015-03-15T21:09:40.084Z</time>
        <name>WPT.932</name>
      </trkpt>
      <trkpt lat="35.181607000" lon="-106.459689000">
        <ele>2170.230</ele>
        <time>2015-03-15T21:09:49.664Z</time>
        <name>WPT.933</name>
      </trkpt>
      <trkpt lat="35.181531000" lon="-106.459756000">
        <ele>2168.950</ele>
        <time>2015-03-15T21:09:59.829Z</time>
        <name>WPT.934</name>
      </trkpt>
      <trkpt lat="35.181494000" lon="-106.459863000">
        <ele>2167.590</ele>
        <time>2015-03-15T21:10:11.065Z</time>
        <name>WPT.935</name>
      </trkpt>
      <trkpt lat="35.181494000" lon="-106.459863000">
        <ele>2164.330</ele>
        <time>2015-03-15T21:10:26.154Z</time>
        <name>WPT.936</name>
      </trkpt>
      <trkpt lat="35.181434000" lon="-106.459959000">
        <ele>2163.110</ele>
        <time>2015-03-15T21:11:24.809Z</time>
        <name>WPT.937</name>
      </trkpt>
      <trkpt lat="35.181349000" lon="-106.460004000">
        <ele>2161.280</ele>
        <time>2015-03-15T21:11:40.382Z</time>
        <name>WPT.938</name>
      </trkpt>
      <trkpt lat="35.181252000" lon="-106.460025000">
        <ele>2159.520</ele>
        <time>2015-03-15T21:11:52.208Z</time>
        <name>WPT.939</name>
      </trkpt>
      <trkpt lat="35.181166000" lon="-106.460066000">
        <ele>2157.660</ele>
        <time>2015-03-15T21:12:01.325Z</time>
        <name>WPT.940</name>
      </trkpt>
      <trkpt lat="35.181078000" lon="-106.460097000">
        <ele>2156.110</ele>
        <time>2015-03-15T21:12:09.547Z</time>
        <name>WPT.941</name>
      </trkpt>
      <trkpt lat="35.180999000" lon="-106.460161000">
        <ele>2154.980</ele>
        <time>2015-03-15T21:12:19.395Z</time>
        <name>WPT.942</name>
      </trkpt>
      <trkpt lat="35.180949000" lon="-106.460259000">
        <ele>2154.090</ele>
        <time>2015-03-15T21:12:30.615Z</time>
        <name>WPT.943</name>
      </trkpt>
      <trkpt lat="35.180974000" lon="-106.460367000">
        <ele>2153.140</ele>
        <time>2015-03-15T21:12:39.059Z</time>
        <name>WPT.944</name>
      </trkpt>
      <trkpt lat="35.180943000" lon="-106.460476000">
        <ele>2152.160</ele>
        <time>2015-03-15T21:12:47.067Z</time>
        <name>WPT.945</name>
      </trkpt>
      <trkpt lat="35.180943000" lon="-106.460476000">
        <ele>2150.720</ele>
        <time>2015-03-15T21:13:03.189Z</time>
        <name>WPT.946</name>
      </trkpt>
      <trkpt lat="35.180896000" lon="-106.460595000">
        <ele>2149.320</ele>
        <time>2015-03-15T21:13:13.052Z</time>
        <name>WPT.947</name>
      </trkpt>
      <trkpt lat="35.180896000" lon="-106.460595000">
        <ele>2148.050</ele>
        <time>2015-03-15T21:13:20.171Z</time>
        <name>WPT.948</name>
      </trkpt>
      <trkpt lat="35.180847000" lon="-106.460701000">
        <ele>2147.330</ele>
        <time>2015-03-15T21:13:36.808Z</time>
        <name>WPT.949</name>
      </trkpt>
      <trkpt lat="35.180800000" lon="-106.460798000">
        <ele>2146.810</ele>
        <time>2015-03-15T21:13:45.053Z</time>
        <name>WPT.950</name>
      </trkpt>
      <trkpt lat="35.180800000" lon="-106.460798000">
        <ele>2146.120</ele>
        <time>2015-03-15T21:13:54.091Z</time>
        <name>WPT.951</name>
      </trkpt>
      <trkpt lat="35.180737000" lon="-106.460907000">
        <ele>2144.450</ele>
        <time>2015-03-15T21:14:13.674Z</time>
        <name>WPT.952</name>
      </trkpt>
      <trkpt lat="35.180691000" lon="-106.461020000">
        <ele>2144.120</ele>
        <time>2015-03-15T21:14:23.239Z</time>
        <name>WPT.953</name>
      </trkpt>
      <trkpt lat="35.180665000" lon="-106.461130000">
        <ele>2144.350</ele>
        <time>2015-03-15T21:14:31.005Z</time>
        <name>WPT.954</name>
      </trkpt>
      <trkpt lat="35.180579000" lon="-106.461177000">
        <ele>2144.610</ele>
        <time>2015-03-15T21:14:39.074Z</time>
        <name>WPT.955</name>
      </trkpt>
      <trkpt lat="35.180579000" lon="-106.461177000">
        <ele>2141.490</ele>
        <time>2015-03-15T21:15:00.136Z</time>
        <name>WPT.956</name>
      </trkpt>
      <trkpt lat="35.180503000" lon="-106.461291000">
        <ele>2140.860</ele>
        <time>2015-03-15T21:15:08.038Z</time>
        <name>WPT.957</name>
      </trkpt>
      <trkpt lat="35.180503000" lon="-106.461291000">
        <ele>2139.560</ele>
        <time>2015-03-15T21:15:13.140Z</time>
        <name>WPT.958</name>
      </trkpt>
      <trkpt lat="35.180409000" lon="-106.461306000">
        <ele>2138.110</ele>
        <time>2015-03-15T21:15:32.038Z</time>
        <name>WPT.959</name>
      </trkpt>
      <trkpt lat="35.180409000" lon="-106.461306000">
        <ele>2137.310</ele>
        <time>2015-03-15T21:15:41.139Z</time>
        <name>WPT.960</name>
      </trkpt>
      <trkpt lat="35.180317000" lon="-106.461298000">
        <ele>2136.600</ele>
        <time>2015-03-15T21:15:53.987Z</time>
        <name>WPT.961</name>
      </trkpt>
      <trkpt lat="35.180285000" lon="-106.461402000">
        <ele>2136.040</ele>
        <time>2015-03-15T21:16:02.058Z</time>
        <name>WPT.962</name>
      </trkpt>
      <trkpt lat="35.180285000" lon="-106.461402000">
        <ele>2131.530</ele>
        <time>2015-03-15T21:16:22.149Z</time>
        <name>WPT.963</name>
      </trkpt>
      <trkpt lat="35.180187000" lon="-106.461496000">
        <ele>2130.910</ele>
        <time>2015-03-15T21:16:41.075Z</time>
        <name>WPT.964</name>
      </trkpt>
      <trkpt lat="35.180092000" lon="-106.461547000">
        <ele>2130.920</ele>
        <time>2015-03-15T21:16:53.342Z</time>
        <name>WPT.965</name>
      </trkpt>
      <trkpt lat="35.180096000" lon="-106.461665000">
        <ele>2131.970</ele>
        <time>2015-03-15T21:17:04.009Z</time>
        <name>WPT.966</name>
      </trkpt>
      <trkpt lat="35.180099000" lon="-106.461776000">
        <ele>2133.230</ele>
        <time>2015-03-15T21:17:12.381Z</time>
        <name>WPT.967</name>
      </trkpt>
      <trkpt lat="35.180079000" lon="-106.461903000">
        <ele>2133.750</ele>
        <time>2015-03-15T21:17:20.565Z</time>
        <name>WPT.968</name>
      </trkpt>
      <trkpt lat="35.180018000" lon="-106.461995000">
        <ele>2133.570</ele>
        <time>2015-03-15T21:17:28.678Z</time>
        <name>WPT.969</name>
      </trkpt>
      <trkpt lat="35.179990000" lon="-106.462104000">
        <ele>2133.080</ele>
        <time>2015-03-15T21:17:37.914Z</time>
        <name>WPT.970</name>
      </trkpt>
      <trkpt lat="35.179954000" lon="-106.462206000">
        <ele>2132.540</ele>
        <time>2015-03-15T21:17:46.805Z</time>
        <name>WPT.971</name>
      </trkpt>
      <trkpt lat="35.179902000" lon="-106.462306000">
        <ele>2131.900</ele>
        <time>2015-03-15T21:17:55.345Z</time>
        <name>WPT.972</name>
      </trkpt>
      <trkpt lat="35.179831000" lon="-106.462393000">
        <ele>2131.050</ele>
        <time>2015-03-15T21:18:04.343Z</time>
        <name>WPT.973</name>
      </trkpt>
      <trkpt lat="35.179797000" lon="-106.462506000">
        <ele>2129.990</ele>
        <time>2015-03-15T21:18:13.364Z</time>
        <name>WPT.974</name>
      </trkpt>
      <trkpt lat="35.179734000" lon="-106.462599000">
        <ele>2128.760</ele>
        <time>2015-03-15T21:18:22.449Z</time>
        <name>WPT.975</name>
      </trkpt>
      <trkpt lat="35.179706000" lon="-106.462710000">
        <ele>2127.400</ele>
        <time>2015-03-15T21:18:31.313Z</time>
        <name>WPT.976</name>
      </trkpt>
      <trkpt lat="35.179683000" lon="-106.462824000">
        <ele>2125.950</ele>
        <time>2015-03-15T21:18:40.032Z</time>
        <name>WPT.977</name>
      </trkpt>
      <trkpt lat="35.179611000" lon="-106.462900000">
        <ele>2124.460</ele>
        <time>2015-03-15T21:18:48.107Z</time>
        <name>WPT.978</name>
      </trkpt>
      <trkpt lat="35.179578000" lon="-106.463017000">
        <ele>2122.870</ele>
        <time>2015-03-15T21:18:56.751Z</time>
        <name>WPT.979</name>
      </trkpt>
      <trkpt lat="35.179530000" lon="-106.463119000">
        <ele>2121.330</ele>
        <time>2015-03-15T21:19:05.356Z</time>
        <name>WPT.980</name>
      </trkpt>
      <trkpt lat="35.179480000" lon="-106.463233000">
        <ele>2120.080</ele>
        <time>2015-03-15T21:19:15.173Z</time>
        <name>WPT.981</name>
      </trkpt>
      <trkpt lat="35.179452000" lon="-106.463343000">
        <ele>2119.130</ele>
        <time>2015-03-15T21:19:22.955Z</time>
        <name>WPT.982</name>
      </trkpt>
      <trkpt lat="35.179410000" lon="-106.463446000">
        <ele>2118.220</ele>
        <time>2015-03-15T21:19:30.555Z</time>
        <name>WPT.983</name>
      </trkpt>
      <trkpt lat="35.179357000" lon="-106.463544000">
        <ele>2117.250</ele>
        <time>2015-03-15T21:19:39.301Z</time>
        <name>WPT.984</name>
      </trkpt>
      <trkpt lat="35.179347000" lon="-106.463654000">
        <ele>2116.320</ele>
        <time>2015-03-15T21:19:50.451Z</time>
        <name>WPT.985</name>
      </trkpt>
      <trkpt lat="35.179249000" lon="-106.463661000">
        <ele>2115.350</ele>
        <time>2015-03-15T21:20:03.141Z</time>
        <name>WPT.986</name>
      </trkpt>
      <trkpt lat="35.179169000" lon="-106.463711000">
        <ele>2114.180</ele>
        <time>2015-03-15T21:20:15.286Z</time>
        <name>WPT.987</name>
      </trkpt>
      <trkpt lat="35.179095000" lon="-106.463777000">
        <ele>2112.900</ele>
        <time>2015-03-15T21:20:25.693Z</time>
        <name>WPT.988</name>
      </trkpt>
      <trkpt lat="35.179010000" lon="-106.463853000">
        <ele>2111.480</ele>
        <time>2015-03-15T21:20:34.542Z</time>
        <name>WPT.989</name>
      </trkpt>
      <trkpt lat="35.178938000" lon="-106.463948000">
        <ele>2109.920</ele>
        <time>2015-03-15T21:20:42.235Z</time>
        <name>WPT.990</name>
      </trkpt>
      <trkpt lat="35.178894000" lon="-106.464060000">
        <ele>2108.450</ele>
        <time>2015-03-15T21:20:49.797Z</time>
        <name>WPT.991</name>
      </trkpt>
      <trkpt lat="35.178875000" lon="-106.464194000">
        <ele>2107.340</ele>
        <time>2015-03-15T21:20:59.557Z</time>
        <name>WPT.992</name>
      </trkpt>
      <trkpt lat="35.178831000" lon="-106.464292000">
        <ele>2106.640</ele>
        <time>2015-03-15T21:21:10.066Z</time>
        <name>WPT.993</name>
      </trkpt>
      <trkpt lat="35.178811000" lon="-106.464402000">
        <ele>2106.100</ele>
        <time>2015-03-15T21:21:20.554Z</time>
        <name>WPT.994</name>
      </trkpt>
      <trkpt lat="35.178756000" lon="-106.464496000">
        <ele>2105.470</ele>
        <time>2015-03-15T21:21:29.565Z</time>
        <name>WPT.995</name>
      </trkpt>
      <trkpt lat="35.178699000" lon="-106.464585000">
        <ele>2104.740</ele>
        <time>2015-03-15T21:21:37.389Z</time>
        <name>WPT.996</name>
      </trkpt>
      <trkpt lat="35.178675000" lon="-106.464699000">
        <ele>2103.950</ele>
        <time>2015-03-15T21:21:46.581Z</time>
        <name>WPT.997</name>
      </trkpt>
      <trkpt lat="35.178636000" lon="-106.464799000">
        <ele>2103.110</ele>
        <time>2015-03-15T21:21:56.308Z</time>
        <name>WPT.998</name>
      </trkpt>
      <trkpt lat="35.178659000" lon="-106.464918000">
        <ele>2102.220</ele>
        <time>2015-03-15T21:22:06.427Z</time>
        <name>WPT.999</name>
      </trkpt>
      <trkpt lat="35.178650000" lon="-106.465040000">
        <ele>2101.270</ele>
        <time>2015-03-15T21:22:17.884Z</time>
        <name>WPT.1000</name>
      </trkpt>
      <trkpt lat="35.178661000" lon="-106.465157000">
        <ele>2100.300</ele>
        <time>2015-03-15T21:22:28.696Z</time>
        <name>WPT.1001</name>
      </trkpt>
      <trkpt lat="35.178581000" lon="-106.465228000">
        <ele>2099.270</ele>
        <time>2015-03-15T21:22:38.103Z</time>
        <name>WPT.1002</name>
      </trkpt>
      <trkpt lat="35.178522000" lon="-106.465313000">
        <ele>2098.240</ele>
        <time>2015-03-15T21:22:46.402Z</time>
        <name>WPT.1003</name>
      </trkpt>
      <trkpt lat="35.178561000" lon="-106.465412000">
        <ele>2097.220</ele>
        <time>2015-03-15T21:22:54.791Z</time>
        <name>WPT.1004</name>
      </trkpt>
      <trkpt lat="35.178517000" lon="-106.465516000">
        <ele>2096.170</ele>
        <time>2015-03-15T21:23:03.432Z</time>
        <name>WPT.1005</name>
      </trkpt>
      <trkpt lat="35.178456000" lon="-106.465620000">
        <ele>2095.060</ele>
        <time>2015-03-15T21:23:14.510Z</time>
        <name>WPT.1006</name>
      </trkpt>
      <trkpt lat="35.178486000" lon="-106.465723000">
        <ele>2093.910</ele>
        <time>2015-03-15T21:23:24.613Z</time>
        <name>WPT.1007</name>
      </trkpt>
      <trkpt lat="35.178525000" lon="-106.465824000">
        <ele>2092.710</ele>
        <time>2015-03-15T21:23:33.349Z</time>
        <name>WPT.1008</name>
      </trkpt>
      <trkpt lat="35.178536000" lon="-106.465941000">
        <ele>2091.540</ele>
        <time>2015-03-15T21:23:42.830Z</time>
        <name>WPT.1009</name>
      </trkpt>
      <trkpt lat="35.178522000" lon="-106.466054000">
        <ele>2090.670</ele>
        <time>2015-03-15T21:23:53.939Z</time>
        <name>WPT.1010</name>
      </trkpt>
      <trkpt lat="35.178442000" lon="-106.466114000">
        <ele>2089.970</ele>
        <time>2015-03-15T21:24:05.365Z</time>
        <name>WPT.1011</name>
      </trkpt>
      <trkpt lat="35.178356000" lon="-106.466174000">
        <ele>2088.840</ele>
        <time>2015-03-15T21:24:16.509Z</time>
        <name>WPT.1012</name>
      </trkpt>
      <trkpt lat="35.178278000" lon="-106.466229000">
        <ele>2087.020</ele>
        <time>2015-03-15T21:24:25.122Z</time>
        <name>WPT.1013</name>
      </trkpt>
      <trkpt lat="35.178216000" lon="-106.466338000">
        <ele>2084.790</ele>
        <time>2015-03-15T21:24:33.113Z</time>
        <name>WPT.1014</name>
      </trkpt>
      <trkpt lat="35.178121000" lon="-106.466356000">
        <ele>2082.620</ele>
        <time>2015-03-15T21:24:39.847Z</time>
        <name>WPT.1015</name>
      </trkpt>
      <trkpt lat="35.178026000" lon="-106.466362000">
        <ele>2081.100</ele>
        <time>2015-03-15T21:24:47.783Z</time>
        <name>WPT.1016</name>
      </trkpt>
      <trkpt lat="35.177926000" lon="-106.466366000">
        <ele>2080.400</ele>
        <time>2015-03-15T21:24:57.047Z</time>
        <name>WPT.1017</name>
      </trkpt>
      <trkpt lat="35.177883000" lon="-106.466476000">
        <ele>2080.000</ele>
        <time>2015-03-15T21:25:08.459Z</time>
        <name>WPT.1018</name>
      </trkpt>
      <trkpt lat="35.177796000" lon="-106.466505000">
        <ele>2079.430</ele>
        <time>2015-03-15T21:25:20.103Z</time>
        <name>WPT.1019</name>
      </trkpt>
      <trkpt lat="35.177702000" lon="-106.466529000">
        <ele>2078.590</ele>
        <time>2015-03-15T21:25:31.373Z</time>
        <name>WPT.1020</name>
      </trkpt>
      <trkpt lat="35.177613000" lon="-106.466556000">
        <ele>2077.480</ele>
        <time>2015-03-15T21:25:39.556Z</time>
        <name>WPT.1021</name>
      </trkpt>
      <trkpt lat="35.177532000" lon="-106.466504000">
        <ele>2076.260</ele>
        <time>2015-03-15T21:25:47.117Z</time>
        <name>WPT.1022</name>
      </trkpt>
      <trkpt lat="35.177452000" lon="-106.466431000">
        <ele>2075.240</ele>
        <time>2015-03-15T21:25:54.876Z</time>
        <name>WPT.1023</name>
      </trkpt>
      <trkpt lat="35.177350000" lon="-106.466422000">
        <ele>2074.440</ele>
        <time>2015-03-15T21:26:03.521Z</time>
        <name>WPT.1024</name>
      </trkpt>
      <trkpt lat="35.177257000" lon="-106.466450000">
        <ele>2073.670</ele>
        <time>2015-03-15T21:26:13.127Z</time>
        <name>WPT.1025</name>
      </trkpt>
      <trkpt lat="35.177216000" lon="-106.466564000">
        <ele>2072.780</ele>
        <time>2015-03-15T21:26:23.776Z</time>
        <name>WPT.1026</name>
      </trkpt>
      <trkpt lat="35.177214000" lon="-106.466682000">
        <ele>2071.740</ele>
        <time>2015-03-15T21:26:33.816Z</time>
        <name>WPT.1027</name>
      </trkpt>
      <trkpt lat="35.177190000" lon="-106.466798000">
        <ele>2070.750</ele>
        <time>2015-03-15T21:26:44.540Z</time>
        <name>WPT.1028</name>
      </trkpt>
      <trkpt lat="35.177180000" lon="-106.466912000">
        <ele>2069.790</ele>
        <time>2015-03-15T21:26:54.327Z</time>
        <name>WPT.1029</name>
      </trkpt>
      <trkpt lat="35.177136000" lon="-106.467016000">
        <ele>2068.700</ele>
        <time>2015-03-15T21:27:04.324Z</time>
        <name>WPT.1030</name>
      </trkpt>
      <trkpt lat="35.177092000" lon="-106.467117000">
        <ele>2067.600</ele>
        <time>2015-03-15T21:27:14.902Z</time>
        <name>WPT.1031</name>
      </trkpt>
      <trkpt lat="35.177067000" lon="-106.467224000">
        <ele>2066.610</ele>
        <time>2015-03-15T21:27:24.913Z</time>
        <name>WPT.1032</name>
      </trkpt>
      <trkpt lat="35.177019000" lon="-106.467319000">
        <ele>2065.450</ele>
        <time>2015-03-15T21:27:33.819Z</time>
        <name>WPT.1033</name>
      </trkpt>
      <trkpt lat="35.176935000" lon="-106.467373000">
        <ele>2064.030</ele>
        <time>2015-03-15T21:27:43.219Z</time>
        <name>WPT.1034</name>
      </trkpt>
      <trkpt lat="35.176846000" lon="-106.467343000">
        <ele>2062.550</ele>
        <time>2015-03-15T21:27:53.527Z</time>
        <name>WPT.1035</name>
      </trkpt>
      <trkpt lat="35.176754000" lon="-106.467310000">
        <ele>2061.190</ele>
        <time>2015-03-15T21:28:05.231Z</time>
        <name>WPT.1036</name>
      </trkpt>
      <trkpt lat="35.176666000" lon="-106.467368000">
        <ele>2060.140</ele>
        <time>2015-03-15T21:28:17.556Z</time>
        <name>WPT.1037</name>
      </trkpt>
      <trkpt lat="35.176635000" lon="-106.467476000">
        <ele>2059.600</ele>
        <time>2015-03-15T21:28:27.351Z</time>
        <name>WPT.1038</name>
      </trkpt>
      <trkpt lat="35.176636000" lon="-106.467590000">
        <ele>2059.470</ele>
        <time>2015-03-15T21:28:36.541Z</time>
        <name>WPT.1039</name>
      </trkpt>
      <trkpt lat="35.176605000" lon="-106.467697000">
        <ele>2059.340</ele>
        <time>2015-03-15T21:28:47.619Z</time>
        <name>WPT.1040</name>
      </trkpt>
      <trkpt lat="35.176634000" lon="-106.467814000">
        <ele>2058.770</ele>
        <time>2015-03-15T21:29:01.685Z</time>
        <name>WPT.1041</name>
      </trkpt>
      <trkpt lat="35.176617000" lon="-106.467926000">
        <ele>2057.700</ele>
        <time>2015-03-15T21:29:13.240Z</time>
        <name>WPT.1042</name>
      </trkpt>
      <trkpt lat="35.176528000" lon="-106.467974000">
        <ele>2056.470</ele>
        <time>2015-03-15T21:29:27.579Z</time>
        <name>WPT.1043</name>
      </trkpt>
      <trkpt lat="35.176440000" lon="-106.468033000">
        <ele>2055.240</ele>
        <time>2015-03-15T21:29:36.415Z</time>
        <name>WPT.1044</name>
      </trkpt>
      <trkpt lat="35.176346000" lon="-106.468046000">
        <ele>2054.000</ele>
        <time>2015-03-15T21:29:43.307Z</time>
        <name>WPT.1045</name>
      </trkpt>
      <trkpt lat="35.176256000" lon="-106.468021000">
        <ele>2052.990</ele>
        <time>2015-03-15T21:29:50.440Z</time>
        <name>WPT.1046</name>
      </trkpt>
      <trkpt lat="35.176171000" lon="-106.467984000">
        <ele>2052.360</ele>
        <time>2015-03-15T21:29:58.235Z</time>
        <name>WPT.1047</name>
      </trkpt>
      <trkpt lat="35.176079000" lon="-106.468012000">
        <ele>2051.900</ele>
        <time>2015-03-15T21:30:06.213Z</time>
        <name>WPT.1048</name>
      </trkpt>
      <trkpt lat="35.175998000" lon="-106.468086000">
        <ele>2051.430</ele>
        <time>2015-03-15T21:30:13.644Z</time>
        <name>WPT.1049</name>
      </trkpt>
      <trkpt lat="35.175908000" lon="-106.468097000">
        <ele>2050.940</ele>
        <time>2015-03-15T21:30:20.413Z</time>
        <name>WPT.1050</name>
      </trkpt>
      <trkpt lat="35.175856000" lon="-106.468190000">
        <ele>2050.340</ele>
        <time>2015-03-15T21:30:29.503Z</time>
        <name>WPT.1051</name>
      </trkpt>
      <trkpt lat="35.175780000" lon="-106.468250000">
        <ele>2049.530</ele>
        <time>2015-03-15T21:30:39.507Z</time>
        <name>WPT.1052</name>
      </trkpt>
      <trkpt lat="35.175708000" lon="-106.468318000">
        <ele>2048.530</ele>
        <time>2015-03-15T21:30:48.679Z</time>
        <name>WPT.1053</name>
      </trkpt>
      <trkpt lat="35.175623000" lon="-106.468381000">
        <ele>2047.450</ele>
        <time>2015-03-15T21:30:56.852Z</time>
        <name>WPT.1054</name>
      </trkpt>
      <trkpt lat="35.175545000" lon="-106.468471000">
        <ele>2046.350</ele>
        <time>2015-03-15T21:31:04.788Z</time>
        <name>WPT.1055</name>
      </trkpt>
      <trkpt lat="35.175456000" lon="-106.468514000">
        <ele>2045.270</ele>
        <time>2015-03-15T21:31:13.139Z</time>
        <name>WPT.1056</name>
      </trkpt>
      <trkpt lat="35.175405000" lon="-106.468606000">
        <ele>2044.340</ele>
        <time>2015-03-15T21:31:21.472Z</time>
        <name>WPT.1057</name>
      </trkpt>
      <trkpt lat="35.175310000" lon="-106.468617000">
        <ele>2043.740</ele>
        <time>2015-03-15T21:31:29.520Z</time>
        <name>WPT.1058</name>
      </trkpt>
      <trkpt lat="35.175223000" lon="-106.468580000">
        <ele>2043.350</ele>
        <time>2015-03-15T21:31:37.827Z</time>
        <name>WPT.1059</name>
      </trkpt>
      <trkpt lat="35.175145000" lon="-106.468643000">
        <ele>2042.770</ele>
        <time>2015-03-15T21:31:47.456Z</time>
        <name>WPT.1060</name>
      </trkpt>
      <trkpt lat="35.175047000" lon="-106.468641000">
        <ele>2041.780</ele>
        <time>2015-03-15T21:31:57.973Z</time>
        <name>WPT.1061</name>
      </trkpt>
      <trkpt lat="35.174974000" lon="-106.468572000">
        <ele>2040.490</ele>
        <time>2015-03-15T21:32:06.498Z</time>
        <name>WPT.1062</name>
      </trkpt>
      <trkpt lat="35.174877000" lon="-106.468554000">
        <ele>2039.280</ele>
        <time>2015-03-15T21:32:15.481Z</time>
        <name>WPT.1063</name>
      </trkpt>
      <trkpt lat="35.174783000" lon="-106.468540000">
        <ele>2038.340</ele>
        <time>2015-03-15T21:32:23.857Z</time>
        <name>WPT.1064</name>
      </trkpt>
      <trkpt lat="35.174692000" lon="-106.468514000">
        <ele>2037.630</ele>
        <time>2015-03-15T21:32:32.923Z</time>
        <name>WPT.1065</name>
      </trkpt>
      <trkpt lat="35.174595000" lon="-106.468536000">
        <ele>2037.000</ele>
        <time>2015-03-15T21:32:43.308Z</time>
        <name>WPT.1066</name>
      </trkpt>
      <trkpt lat="35.174507000" lon="-106.468487000">
        <ele>2036.200</ele>
        <time>2015-03-15T21:32:52.584Z</time>
        <name>WPT.1067</name>
      </trkpt>
      <trkpt lat="35.174454000" lon="-106.468396000">
        <ele>2035.170</ele>
        <time>2015-03-15T21:33:00.803Z</time>
        <name>WPT.1068</name>
      </trkpt>
      <trkpt lat="35.174390000" lon="-106.468306000">
        <ele>2034.080</ele>
        <time>2015-03-15T21:33:10.015Z</time>
        <name>WPT.1069</name>
      </trkpt>
      <trkpt lat="35.174354000" lon="-106.468192000">
        <ele>2033.110</ele>
        <time>2015-03-15T21:33:20.321Z</time>
        <name>WPT.1070</name>
      </trkpt>
      <trkpt lat="35.174373000" lon="-106.468077000">
        <ele>2032.370</ele>
        <time>2015-03-15T21:33:29.311Z</time>
        <name>WPT.1071</name>
      </trkpt>
      <trkpt lat="35.174376000" lon="-106.467964000">
        <ele>2031.770</ele>
        <time>2015-03-15T21:33:35.659Z</time>
        <name>WPT.1072</name>
      </trkpt>
      <trkpt lat="35.174305000" lon="-106.467885000">
        <ele>2031.150</ele>
        <time>2015-03-15T21:33:42.665Z</time>
        <name>WPT.1073</name>
      </trkpt>
      <trkpt lat="35.174240000" lon="-106.467803000">
        <ele>2030.370</ele>
        <time>2015-03-15T21:33:50.729Z</time>
        <name>WPT.1074</name>
      </trkpt>
      <trkpt lat="35.174163000" lon="-106.467743000">
        <ele>2029.380</ele>
        <time>2015-03-15T21:33:58.663Z</time>
        <name>WPT.1075</name>
      </trkpt>
      <trkpt lat="35.174076000" lon="-106.467701000">
        <ele>2028.350</ele>
        <time>2015-03-15T21:34:06.547Z</time>
        <name>WPT.1076</name>
      </trkpt>
      <trkpt lat="35.174038000" lon="-106.467594000">
        <ele>2027.390</ele>
        <time>2015-03-15T21:34:16.470Z</time>
        <name>WPT.1077</name>
      </trkpt>
      <trkpt lat="35.174044000" lon="-106.467477000">
        <ele>2026.500</ele>
        <time>2015-03-15T21:34:28.114Z</time>
        <name>WPT.1078</name>
      </trkpt>
      <trkpt lat="35.173962000" lon="-106.467430000">
        <ele>2025.700</ele>
        <time>2015-03-15T21:34:38.863Z</time>
        <name>WPT.1079</name>
      </trkpt>
      <trkpt lat="35.173917000" lon="-106.467331000">
        <ele>2025.070</ele>
        <time>2015-03-15T21:34:47.589Z</time>
        <name>WPT.1080</name>
      </trkpt>
      <trkpt lat="35.173854000" lon="-106.467248000">
        <ele>2024.430</ele>
        <time>2015-03-15T21:34:55.558Z</time>
        <name>WPT.1081</name>
      </trkpt>
      <trkpt lat="35.173784000" lon="-106.467172000">
        <ele>2023.660</ele>
        <time>2015-03-15T21:35:03.959Z</time>
        <name>WPT.1082</name>
      </trkpt>
      <trkpt lat="35.173740000" lon="-106.467070000">
        <ele>2022.750</ele>
        <time>2015-03-15T21:35:12.528Z</time>
        <name>WPT.1083</name>
      </trkpt>
      <trkpt lat="35.173665000" lon="-106.466991000">
        <ele>2021.780</ele>
        <time>2015-03-15T21:35:20.805Z</time>
        <name>WPT.1084</name>
      </trkpt>
      <trkpt lat="35.173592000" lon="-106.466926000">
        <ele>2020.750</ele>
        <time>2015-03-15T21:35:28.842Z</time>
        <name>WPT.1085</name>
      </trkpt>
      <trkpt lat="35.173503000" lon="-106.466973000">
        <ele>2019.680</ele>
        <time>2015-03-15T21:35:39.385Z</time>
        <name>WPT.1086</name>
      </trkpt>
      <trkpt lat="35.173417000" lon="-106.466913000">
        <ele>2018.460</ele>
        <time>2015-03-15T21:35:50.744Z</time>
        <name>WPT.1087</name>
      </trkpt>
      <trkpt lat="35.173329000" lon="-106.466942000">
        <ele>2017.140</ele>
        <time>2015-03-15T21:35:59.197Z</time>
        <name>WPT.1088</name>
      </trkpt>
      <trkpt lat="35.173240000" lon="-106.466985000">
        <ele>2015.970</ele>
        <time>2015-03-15T21:36:07.425Z</time>
        <name>WPT.1089</name>
      </trkpt>
      <trkpt lat="35.173147000" lon="-106.467036000">
        <ele>2014.970</ele>
        <time>2015-03-15T21:36:16.085Z</time>
        <name>WPT.1090</name>
      </trkpt>
      <trkpt lat="35.173147000" lon="-106.467036000">
        <ele>2013.100</ele>
        <time>2015-03-15T21:36:18.578Z</time>
        <name>WPT.1091</name>
      </trkpt>
      <trkpt lat="35.173058000" lon="-106.467062000">
        <ele>2012.000</ele>
        <time>2015-03-15T21:36:33.468Z</time>
        <name>WPT.1092</name>
      </trkpt>
      <trkpt lat="35.172978000" lon="-106.467002000">
        <ele>2011.670</ele>
        <time>2015-03-15T21:36:41.432Z</time>
        <name>WPT.1093</name>
      </trkpt>
      <trkpt lat="35.172897000" lon="-106.466948000">
        <ele>2011.480</ele>
        <time>2015-03-15T21:36:49.009Z</time>
        <name>WPT.1094</name>
      </trkpt>
      <trkpt lat="35.172802000" lon="-106.466915000">
        <ele>2011.160</ele>
        <time>2015-03-15T21:36:59.222Z</time>
        <name>WPT.1095</name>
      </trkpt>
      <trkpt lat="35.172705000" lon="-106.466911000">
        <ele>2010.650</ele>
        <time>2015-03-15T21:37:09.832Z</time>
        <name>WPT.1096</name>
      </trkpt>
      <trkpt lat="35.172608000" lon="-106.466918000">
        <ele>2010.130</ele>
        <time>2015-03-15T21:37:18.185Z</time>
        <name>WPT.1097</name>
      </trkpt>
      <trkpt lat="35.172507000" lon="-106.466892000">
        <ele>2009.690</ele>
        <time>2015-03-15T21:37:26.046Z</time>
        <name>WPT.1098</name>
      </trkpt>
      <trkpt lat="35.172422000" lon="-106.466846000">
        <ele>2009.190</ele>
        <time>2015-03-15T21:37:33.235Z</time>
        <name>WPT.1099</name>
      </trkpt>
      <trkpt lat="35.172342000" lon="-106.466794000">
        <ele>2008.570</ele>
        <time>2015-03-15T21:37:41.803Z</time>
        <name>WPT.1100</name>
      </trkpt>
      <trkpt lat="35.172251000" lon="-106.466753000">
        <ele>2007.860</ele>
        <time>2015-03-15T21:37:52.006Z</time>
        <name>WPT.1101</name>
      </trkpt>
      <trkpt lat="35.172162000" lon="-106.466707000">
        <ele>2007.110</ele>
        <time>2015-03-15T21:38:00.653Z</time>
        <name>WPT.1102</name>
      </trkpt>
      <trkpt lat="35.172084000" lon="-106.466642000">
        <ele>2006.300</ele>
        <time>2015-03-15T21:38:06.674Z</time>
        <name>WPT.1103</name>
      </trkpt>
      <trkpt lat="35.171995000" lon="-106.466583000">
        <ele>2005.560</ele>
        <time>2015-03-15T21:38:12.864Z</time>
        <name>WPT.1104</name>
      </trkpt>
      <trkpt lat="35.171903000" lon="-106.466536000">
        <ele>2005.060</ele>
        <time>2015-03-15T21:38:19.870Z</time>
        <name>WPT.1105</name>
      </trkpt>
      <trkpt lat="35.171823000" lon="-106.466603000">
        <ele>2004.640</ele>
        <time>2015-03-15T21:38:26.779Z</time>
        <name>WPT.1106</name>
      </trkpt>
      <trkpt lat="35.171736000" lon="-106.466641000">
        <ele>2003.980</ele>
        <time>2015-03-15T21:38:31.817Z</time>
        <name>WPT.1107</name>
      </trkpt>
      <trkpt lat="35.171646000" lon="-106.466686000">
        <ele>2003.040</ele>
        <time>2015-03-15T21:38:38.826Z</time>
        <name>WPT.1108</name>
      </trkpt>
      <trkpt lat="35.171556000" lon="-106.466728000">
        <ele>2002.100</ele>
        <time>2015-03-15T21:38:46.412Z</time>
        <name>WPT.1109</name>
      </trkpt>
      <trkpt lat="35.171466000" lon="-106.466748000">
        <ele>2001.280</ele>
        <time>2015-03-15T21:38:56.234Z</time>
        <name>WPT.1110</name>
      </trkpt>
      <trkpt lat="35.171377000" lon="-106.466768000">
        <ele>2000.460</ele>
        <time>2015-03-15T21:39:03.166Z</time>
        <name>WPT.1111</name>
      </trkpt>
      <trkpt lat="35.171281000" lon="-106.466764000">
        <ele>1999.720</ele>
        <time>2015-03-15T21:39:09.397Z</time>
        <name>WPT.1112</name>
      </trkpt>
      <trkpt lat="35.171184000" lon="-106.466749000">
        <ele>1999.180</ele>
        <time>2015-03-15T21:39:15.851Z</time>
        <name>WPT.1113</name>
      </trkpt>
      <trkpt lat="35.171099000" lon="-106.466798000">
        <ele>1998.820</ele>
        <time>2015-03-15T21:39:22.450Z</time>
        <name>WPT.1114</name>
      </trkpt>
      <trkpt lat="35.171013000" lon="-106.466833000">
        <ele>1998.650</ele>
        <time>2015-03-15T21:39:31.022Z</time>
        <name>WPT.1115</name>
      </trkpt>
      <trkpt lat="35.170934000" lon="-106.466888000">
        <ele>1998.710</ele>
        <time>2015-03-15T21:39:40.273Z</time>
        <name>WPT.1116</name>
      </trkpt>
      <trkpt lat="35.170848000" lon="-106.466856000">
        <ele>1998.880</ele>
        <time>2015-03-15T21:39:48.390Z</time>
        <name>WPT.1117</name>
      </trkpt>
      <trkpt lat="35.170767000" lon="-106.466784000">
        <ele>1998.890</ele>
        <time>2015-03-15T21:39:56.428Z</time>
        <name>WPT.1118</name>
      </trkpt>
      <trkpt lat="35.170680000" lon="-106.466709000">
        <ele>1998.470</ele>
        <time>2015-03-15T21:40:04.144Z</time>
        <name>WPT.1119</name>
      </trkpt>
      <trkpt lat="35.170621000" lon="-106.466623000">
        <ele>1997.640</ele>
        <time>2015-03-15T21:40:10.340Z</time>
        <name>WPT.1120</name>
      </trkpt>
      <trkpt lat="35.170546000" lon="-106.466557000">
        <ele>1996.700</ele>
        <time>2015-03-15T21:40:16.843Z</time>
        <name>WPT.1121</name>
      </trkpt>
      <trkpt lat="35.170465000" lon="-106.466500000">
        <ele>1995.950</ele>
        <time>2015-03-15T21:40:24.093Z</time>
        <name>WPT.1122</name>
      </trkpt>
      <trkpt lat="35.170465000" lon="-106.466500000">
        <ele>1994.720</ele>
        <time>2015-03-15T21:40:27.415Z</time>
        <name>WPT.1123</name>
      </trkpt>
      <trkpt lat="35.170373000" lon="-106.466471000">
        <ele>1993.370</ele>
        <time>2015-03-15T21:40:38.949Z</time>
        <name>WPT.1124</name>
      </trkpt>
      <trkpt lat="35.170283000" lon="-106.466459000">
        <ele>1993.260</ele>
        <time>2015-03-15T21:40:46.703Z</time>
        <name>WPT.1125</name>
      </trkpt>
      <trkpt lat="35.170202000" lon="-106.466384000">
        <ele>1993.810</ele>
        <time>2015-03-15T21:40:55.866Z</time>
        <name>WPT.1126</name>
      </trkpt>
      <trkpt lat="35.170098000" lon="-106.466356000">
        <ele>1994.500</ele>
        <time>2015-03-15T21:41:03.456Z</time>
        <name>WPT.1127</name>
      </trkpt>
      <trkpt lat="35.170015000" lon="-106.466399000">
        <ele>1994.880</ele>
        <time>2015-03-15T21:41:09.080Z</time>
        <name>WPT.1128</name>
      </trkpt>
      <trkpt lat="35.169942000" lon="-106.466472000">
        <ele>1994.950</ele>
        <time>2015-03-15T21:41:15.227Z</time>
        <name>WPT.1129</name>
      </trkpt>
      <trkpt lat="35.169865000" lon="-106.466539000">
        <ele>1994.880</ele>
        <time>2015-03-15T21:41:22.286Z</time>
        <name>WPT.1130</name>
      </trkpt>
      <trkpt lat="35.169780000" lon="-106.466603000">
        <ele>1994.920</ele>
        <time>2015-03-15T21:41:29.995Z</time>
        <name>WPT.1131</name>
      </trkpt>
      <trkpt lat="35.169714000" lon="-106.466684000">
        <ele>1995.230</ele>
        <time>2015-03-15T21:41:35.891Z</time>
        <name>WPT.1132</name>
      </trkpt>
      <trkpt lat="35.169625000" lon="-106.466706000">
        <ele>1995.650</ele>
        <time>2015-03-15T21:41:41.095Z</time>
        <name>WPT.1133</name>
      </trkpt>
      <trkpt lat="35.169625000" lon="-106.466706000">
        <ele>1995.700</ele>
        <time>2015-03-15T21:41:55.624Z</time>
        <name>WPT.1134</name>
      </trkpt>
      <trkpt lat="35.169557000" lon="-106.466477000">
        <ele>1994.850</ele>
        <time>2015-03-15T21:42:19.832Z</time>
        <name>WPT.1135</name>
      </trkpt>
      <trkpt lat="35.169474000" lon="-106.466413000">
        <ele>1994.110</ele>
        <time>2015-03-15T21:42:27.067Z</time>
        <name>WPT.1136</name>
      </trkpt>
      <trkpt lat="35.169382000" lon="-106.466367000">
        <ele>1994.080</ele>
        <time>2015-03-15T21:42:33.544Z</time>
        <name>WPT.1137</name>
      </trkpt>
      <trkpt lat="35.169289000" lon="-106.466399000">
        <ele>1994.410</ele>
        <time>2015-03-15T21:42:39.902Z</time>
        <name>WPT.1138</name>
      </trkpt>
      <trkpt lat="35.169195000" lon="-106.466462000">
        <ele>1994.550</ele>
        <time>2015-03-15T21:42:46.924Z</time>
        <name>WPT.1139</name>
      </trkpt>
      <trkpt lat="35.169154000" lon="-106.466571000">
        <ele>1994.390</ele>
        <time>2015-03-15T21:42:54.385Z</time>
        <name>WPT.1140</name>
      </trkpt>
      <trkpt lat="35.169129000" lon="-106.466676000">
        <ele>1994.120</ele>
        <time>2015-03-15T21:43:01.587Z</time>
        <name>WPT.1141</name>
      </trkpt>
      <trkpt lat="35.169073000" lon="-106.466771000">
        <ele>1993.810</ele>
        <time>2015-03-15T21:43:09.514Z</time>
        <name>WPT.1142</name>
      </trkpt>
      <trkpt lat="35.169083000" lon="-106.466899000">
        <ele>1993.330</ele>
        <time>2015-03-15T21:43:18.163Z</time>
        <name>WPT.1143</name>
      </trkpt>
      <trkpt lat="35.169049000" lon="-106.467012000">
        <ele>1992.590</ele>
        <time>2015-03-15T21:43:25.574Z</time>
        <name>WPT.1144</name>
      </trkpt>
      <trkpt lat="35.168986000" lon="-106.467109000">
        <ele>1991.570</ele>
        <time>2015-03-15T21:43:32.705Z</time>
        <name>WPT.1145</name>
      </trkpt>
      <trkpt lat="35.168908000" lon="-106.467185000">
        <ele>1990.350</ele>
        <time>2015-03-15T21:43:39.921Z</time>
        <name>WPT.1146</name>
      </trkpt>
      <trkpt lat="35.168832000" lon="-106.467262000">
        <ele>1989.180</ele>
        <time>2015-03-15T21:43:47.507Z</time>
        <name>WPT.1147</name>
      </trkpt>
      <trkpt lat="35.168772000" lon="-106.467350000">
        <ele>1988.260</ele>
        <time>2015-03-15T21:43:55.483Z</time>
        <name>WPT.1148</name>
      </trkpt>
      <trkpt lat="35.168726000" lon="-106.467450000">
        <ele>1987.390</ele>
        <time>2015-03-15T21:44:02.779Z</time>
        <name>WPT.1149</name>
      </trkpt>
      <trkpt lat="35.168678000" lon="-106.467544000">
        <ele>1986.450</ele>
        <time>2015-03-15T21:44:09.816Z</time>
        <name>WPT.1150</name>
      </trkpt>
      <trkpt lat="35.168619000" lon="-106.467649000">
        <ele>1985.500</ele>
        <time>2015-03-15T21:44:17.593Z</time>
        <name>WPT.1151</name>
      </trkpt>
      <trkpt lat="35.168547000" lon="-106.467731000">
        <ele>1984.530</ele>
        <time>2015-03-15T21:44:23.911Z</time>
        <name>WPT.1152</name>
      </trkpt>
      <trkpt lat="35.168485000" lon="-106.467828000">
        <ele>1983.600</ele>
        <time>2015-03-15T21:44:30.440Z</time>
        <name>WPT.1153</name>
      </trkpt>
      <trkpt lat="35.168433000" lon="-106.467918000">
        <ele>1982.780</ele>
        <time>2015-03-15T21:44:36.724Z</time>
        <name>WPT.1154</name>
      </trkpt>
      <trkpt lat="35.168379000" lon="-106.468010000">
        <ele>1982.020</ele>
        <time>2015-03-15T21:44:43.658Z</time>
        <name>WPT.1155</name>
      </trkpt>
      <trkpt lat="35.168357000" lon="-106.468120000">
        <ele>1981.330</ele>
        <time>2015-03-15T21:44:51.676Z</time>
        <name>WPT.1156</name>
      </trkpt>
      <trkpt lat="35.168315000" lon="-106.468219000">
        <ele>1980.800</ele>
        <time>2015-03-15T21:45:01.100Z</time>
        <name>WPT.1157</name>
      </trkpt>
      <trkpt lat="35.168315000" lon="-106.468219000">
        <ele>1980.000</ele>
        <time>2015-03-15T21:45:08.190Z</time>
        <name>WPT.1158</name>
      </trkpt>
      <trkpt lat="35.168184000" lon="-106.468248000">
        <ele>1979.320</ele>
        <time>2015-03-15T21:45:21.014Z</time>
        <name>WPT.1159</name>
      </trkpt>
      <trkpt lat="35.168091000" lon="-106.468208000">
        <ele>1978.870</ele>
        <time>2015-03-15T21:45:28.678Z</time>
        <name>WPT.1160</name>
      </trkpt>
      <trkpt lat="35.168001000" lon="-106.468157000">
        <ele>1979.050</ele>
        <time>2015-03-15T21:45:37.732Z</time>
        <name>WPT.1161</name>
      </trkpt>
      <trkpt lat="35.167921000" lon="-106.468208000">
        <ele>1979.280</ele>
        <time>2015-03-15T21:45:46.424Z</time>
        <name>WPT.1162</name>
      </trkpt>
      <trkpt lat="35.167831000" lon="-106.468239000">
        <ele>1979.050</ele>
        <time>2015-03-15T21:45:54.143Z</time>
        <name>WPT.1163</name>
      </trkpt>
      <trkpt lat="35.167754000" lon="-106.468304000">
        <ele>1978.570</ele>
        <time>2015-03-15T21:46:00.560Z</time>
        <name>WPT.1164</name>
      </trkpt>
      <trkpt lat="35.167656000" lon="-106.468354000">
        <ele>1978.180</ele>
        <time>2015-03-15T21:46:06.982Z</time>
        <name>WPT.1165</name>
      </trkpt>
      <trkpt lat="35.167563000" lon="-106.468319000">
        <ele>1977.850</ele>
        <time>2015-03-15T21:46:13.538Z</time>
        <name>WPT.1166</name>
      </trkpt>
      <trkpt lat="35.167476000" lon="-106.468289000">
        <ele>1977.400</ele>
        <time>2015-03-15T21:46:20.973Z</time>
        <name>WPT.1167</name>
      </trkpt>
      <trkpt lat="35.167382000" lon="-106.468285000">
        <ele>1976.800</ele>
        <time>2015-03-15T21:46:29.488Z</time>
        <name>WPT.1168</name>
      </trkpt>
      <trkpt lat="35.167285000" lon="-106.468313000">
        <ele>1976.270</ele>
        <time>2015-03-15T21:46:36.874Z</time>
        <name>WPT.1169</name>
      </trkpt>
      <trkpt lat="35.167195000" lon="-106.468349000">
        <ele>1976.020</ele>
        <time>2015-03-15T21:46:42.122Z</time>
        <name>WPT.1170</name>
      </trkpt>
      <trkpt lat="35.167105000" lon="-106.468389000">
        <ele>1976.050</ele>
        <time>2015-03-15T21:46:48.772Z</time>
        <name>WPT.1171</name>
      </trkpt>
      <trkpt lat="35.167013000" lon="-106.468383000">
        <ele>1976.080</ele>
        <time>2015-03-15T21:46:56.490Z</time>
        <name>WPT.1172</name>
      </trkpt>
      <trkpt lat="35.166912000" lon="-106.468390000">
        <ele>1975.840</ele>
        <time>2015-03-15T21:47:05.122Z</time>
        <name>WPT.1173</name>
      </trkpt>
      <trkpt lat="35.166815000" lon="-106.468389000">
        <ele>1975.330</ele>
        <time>2015-03-15T21:47:12.814Z</time>
        <name>WPT.1174</name>
      </trkpt>
      <trkpt lat="35.166726000" lon="-106.468372000">
        <ele>1974.620</ele>
        <time>2015-03-15T21:47:19.911Z</time>
        <name>WPT.1175</name>
      </trkpt>
      <trkpt lat="35.166630000" lon="-106.468368000">
        <ele>1973.840</ele>
        <time>2015-03-15T21:47:27.131Z</time>
        <name>WPT.1176</name>
      </trkpt>
      <trkpt lat="35.166535000" lon="-106.468316000">
        <ele>1973.170</ele>
        <time>2015-03-15T21:47:34.398Z</time>
        <name>WPT.1177</name>
      </trkpt>
      <trkpt lat="35.166464000" lon="-106.468238000">
        <ele>1972.720</ele>
        <time>2015-03-15T21:47:40.962Z</time>
        <name>WPT.1178</name>
      </trkpt>
      <trkpt lat="35.166413000" lon="-106.468136000">
        <ele>1972.500</ele>
        <time>2015-03-15T21:47:48.458Z</time>
        <name>WPT.1179</name>
      </trkpt>
      <trkpt lat="35.166363000" lon="-106.468040000">
        <ele>1972.430</ele>
        <time>2015-03-15T21:47:56.054Z</time>
        <name>WPT.1180</name>
      </trkpt>
      <trkpt lat="35.166319000" lon="-106.467938000">
        <ele>1972.430</ele>
        <time>2015-03-15T21:48:04.169Z</time>
        <name>WPT.1181</name>
      </trkpt>
      <trkpt lat="35.166255000" lon="-106.467849000">
        <ele>1972.450</ele>
        <time>2015-03-15T21:48:13.196Z</time>
        <name>WPT.1182</name>
      </trkpt>
      <trkpt lat="35.166177000" lon="-106.467777000">
        <ele>1972.460</ele>
        <time>2015-03-15T21:48:22.264Z</time>
        <name>WPT.1183</name>
      </trkpt>
      <trkpt lat="35.166098000" lon="-106.467720000">
        <ele>1972.460</ele>
        <time>2015-03-15T21:48:31.136Z</time>
        <name>WPT.1184</name>
      </trkpt>
      <trkpt lat="35.166064000" lon="-106.467822000">
        <ele>1972.580</ele>
        <time>2015-03-15T21:48:40.448Z</time>
        <name>WPT.1185</name>
      </trkpt>
      <trkpt lat="35.166035000" lon="-106.467932000">
        <ele>1972.840</ele>
        <time>2015-03-15T21:48:49.071Z</time>
        <name>WPT.1186</name>
      </trkpt>
      <trkpt lat="35.166015000" lon="-106.468043000">
        <ele>1973.040</ele>
        <time>2015-03-15T21:48:57.179Z</time>
        <name>WPT.1187</name>
      </trkpt>
      <trkpt lat="35.165985000" lon="-106.468152000">
        <ele>1972.930</ele>
        <time>2015-03-15T21:49:05.084Z</time>
        <name>WPT.1188</name>
      </trkpt>
      <trkpt lat="35.165960000" lon="-106.468267000">
        <ele>1972.660</ele>
        <time>2015-03-15T21:49:13.339Z</time>
        <name>WPT.1189</name>
      </trkpt>
      <trkpt lat="35.165965000" lon="-106.468396000">
        <ele>1972.440</ele>
        <time>2015-03-15T21:49:22.657Z</time>
        <name>WPT.1190</name>
      </trkpt>
      <trkpt lat="35.165981000" lon="-106.468512000">
        <ele>1972.270</ele>
        <time>2015-03-15T21:49:31.678Z</time>
        <name>WPT.1191</name>
      </trkpt>
      <trkpt lat="35.165971000" lon="-106.468634000">
        <ele>1971.980</ele>
        <time>2015-03-15T21:49:43.552Z</time>
        <name>WPT.1192</name>
      </trkpt>
      <trkpt lat="35.165969000" lon="-106.468751000">
        <ele>1971.510</ele>
        <time>2015-03-15T21:49:54.806Z</time>
        <name>WPT.1193</name>
      </trkpt>
      <trkpt lat="35.165951000" lon="-106.468861000">
        <ele>1971.040</ele>
        <time>2015-03-15T21:50:01.632Z</time>
        <name>WPT.1194</name>
      </trkpt>
      <trkpt lat="35.165920000" lon="-106.468966000">
        <ele>1970.660</ele>
        <time>2015-03-15T21:50:07.802Z</time>
        <name>WPT.1195</name>
      </trkpt>
      <trkpt lat="35.165915000" lon="-106.469090000">
        <ele>1970.310</ele>
        <time>2015-03-15T21:50:15.505Z</time>
        <name>WPT.1196</name>
      </trkpt>
      <trkpt lat="35.165955000" lon="-106.469204000">
        <ele>1969.940</ele>
        <time>2015-03-15T21:50:23.192Z</time>
        <name>WPT.1197</name>
      </trkpt>
      <trkpt lat="35.165897000" lon="-106.469304000">
        <ele>1969.470</ele>
        <time>2015-03-15T21:50:29.404Z</time>
        <name>WPT.1198</name>
      </trkpt>
      <trkpt lat="35.165864000" lon="-106.469418000">
        <ele>1968.860</ele>
        <time>2015-03-15T21:50:35.612Z</time>
        <name>WPT.1199</name>
      </trkpt>
      <trkpt lat="35.165864000" lon="-106.469535000">
        <ele>1968.150</ele>
        <time>2015-03-15T21:50:42.576Z</time>
        <name>WPT.1200</name>
      </trkpt>
      <trkpt lat="35.165944000" lon="-106.469615000">
        <ele>1967.440</ele>
        <time>2015-03-15T21:50:51.288Z</time>
        <name>WPT.1201</name>
      </trkpt>
      <trkpt lat="35.166039000" lon="-106.469610000">
        <ele>1966.770</ele>
        <time>2015-03-15T21:50:59.361Z</time>
        <name>WPT.1202</name>
      </trkpt>
      <trkpt lat="35.166123000" lon="-106.469554000">
        <ele>1966.120</ele>
        <time>2015-03-15T21:51:08.348Z</time>
        <name>WPT.1203</name>
      </trkpt>
      <trkpt lat="35.166203000" lon="-106.469621000">
        <ele>1965.340</ele>
        <time>2015-03-15T21:51:17.597Z</time>
        <name>WPT.1204</name>
      </trkpt>
      <trkpt lat="35.166177000" lon="-106.469729000">
        <ele>1964.310</ele>
        <time>2015-03-15T21:51:25.301Z</time>
        <name>WPT.1205</name>
      </trkpt>
      <trkpt lat="35.166150000" lon="-106.469846000">
        <ele>1963.190</ele>
        <time>2015-03-15T21:51:33.704Z</time>
        <name>WPT.1206</name>
      </trkpt>
      <trkpt lat="35.166143000" lon="-106.469961000">
        <ele>1962.270</ele>
        <time>2015-03-15T21:51:42.435Z</time>
        <name>WPT.1207</name>
      </trkpt>
      <trkpt lat="35.166120000" lon="-106.470085000">
        <ele>1961.660</ele>
        <time>2015-03-15T21:51:50.860Z</time>
        <name>WPT.1208</name>
      </trkpt>
      <trkpt lat="35.166052000" lon="-106.470164000">
        <ele>1961.190</ele>
        <time>2015-03-15T21:51:58.279Z</time>
        <name>WPT.1209</name>
      </trkpt>
      <trkpt lat="35.166038000" lon="-106.470281000">
        <ele>1960.730</ele>
        <time>2015-03-15T21:52:06.441Z</time>
        <name>WPT.1210</name>
      </trkpt>
      <trkpt lat="35.166000000" lon="-106.470387000">
        <ele>1960.210</ele>
        <time>2015-03-15T21:52:14.726Z</time>
        <name>WPT.1211</name>
      </trkpt>
      <trkpt lat="35.165975000" lon="-106.470496000">
        <ele>1959.680</ele>
        <time>2015-03-15T21:52:22.988Z</time>
        <name>WPT.1212</name>
      </trkpt>
      <trkpt lat="35.165950000" lon="-106.470615000">
        <ele>1959.240</ele>
        <time>2015-03-15T21:52:31.826Z</time>
        <name>WPT.1213</name>
      </trkpt>
      <trkpt lat="35.165938000" lon="-106.470730000">
        <ele>1958.820</ele>
        <time>2015-03-15T21:52:40.253Z</time>
        <name>WPT.1214</name>
      </trkpt>
      <trkpt lat="35.165947000" lon="-106.470843000">
        <ele>1958.220</ele>
        <time>2015-03-15T21:52:47.887Z</time>
        <name>WPT.1215</name>
      </trkpt>
      <trkpt lat="35.165918000" lon="-106.470955000">
        <ele>1957.500</ele>
        <time>2015-03-15T21:52:54.151Z</time>
        <name>WPT.1216</name>
      </trkpt>
      <trkpt lat="35.165875000" lon="-106.471052000">
        <ele>1956.860</ele>
        <time>2015-03-15T21:52:59.662Z</time>
        <name>WPT.1217</name>
      </trkpt>
      <trkpt lat="35.165819000" lon="-106.471151000">
        <ele>1956.380</ele>
        <time>2015-03-15T21:53:05.877Z</time>
        <name>WPT.1218</name>
      </trkpt>
      <trkpt lat="35.165739000" lon="-106.471204000">
        <ele>1955.980</ele>
        <time>2015-03-15T21:53:11.925Z</time>
        <name>WPT.1219</name>
      </trkpt>
      <trkpt lat="35.165645000" lon="-106.471245000">
        <ele>1955.540</ele>
        <time>2015-03-15T21:53:19.145Z</time>
        <name>WPT.1220</name>
      </trkpt>
      <trkpt lat="35.165559000" lon="-106.471277000">
        <ele>1955.050</ele>
        <time>2015-03-15T21:53:26.201Z</time>
        <name>WPT.1221</name>
      </trkpt>
      <trkpt lat="35.165511000" lon="-106.471371000">
        <ele>1954.530</ele>
        <time>2015-03-15T21:53:33.272Z</time>
        <name>WPT.1222</name>
      </trkpt>
      <trkpt lat="35.165555000" lon="-106.471482000">
        <ele>1954.030</ele>
        <time>2015-03-15T21:53:39.814Z</time>
        <name>WPT.1223</name>
      </trkpt>
      <trkpt lat="35.165583000" lon="-106.471594000">
        <ele>1953.600</ele>
        <time>2015-03-15T21:53:46.098Z</time>
        <name>WPT.1224</name>
      </trkpt>
      <trkpt lat="35.165585000" lon="-106.471709000">
        <ele>1953.220</ele>
        <time>2015-03-15T21:53:53.615Z</time>
        <name>WPT.1225</name>
      </trkpt>
      <trkpt lat="35.165563000" lon="-106.471816000">
        <ele>1952.780</ele>
        <time>2015-03-15T21:54:01.924Z</time>
        <name>WPT.1226</name>
      </trkpt>
      <trkpt lat="35.165649000" lon="-106.471891000">
        <ele>1952.260</ele>
        <time>2015-03-15T21:54:11.606Z</time>
        <name>WPT.1227</name>
      </trkpt>
      <trkpt lat="35.165745000" lon="-106.471895000">
        <ele>1951.680</ele>
        <time>2015-03-15T21:54:20.065Z</time>
        <name>WPT.1228</name>
      </trkpt>
      <trkpt lat="35.165744000" lon="-106.472012000">
        <ele>1951.110</ele>
        <time>2015-03-15T21:54:28.490Z</time>
        <name>WPT.1229</name>
      </trkpt>
      <trkpt lat="35.165667000" lon="-106.472107000">
        <ele>1950.450</ele>
        <time>2015-03-15T21:54:38.838Z</time>
        <name>WPT.1230</name>
      </trkpt>
      <trkpt lat="35.165760000" lon="-106.472154000">
        <ele>1949.680</ele>
        <time>2015-03-15T21:54:48.168Z</time>
        <name>WPT.1231</name>
      </trkpt>
      <trkpt lat="35.165801000" lon="-106.472266000">
        <ele>1948.870</ele>
        <time>2015-03-15T21:54:57.945Z</time>
        <name>WPT.1232</name>
      </trkpt>
      <trkpt lat="35.165823000" lon="-106.472373000">
        <ele>1948.110</ele>
        <time>2015-03-15T21:55:05.596Z</time>
        <name>WPT.1233</name>
      </trkpt>
      <trkpt lat="35.165813000" lon="-106.472493000">
        <ele>1947.510</ele>
        <time>2015-03-15T21:55:12.676Z</time>
        <name>WPT.1234</name>
      </trkpt>
      <trkpt lat="35.165833000" lon="-106.472612000">
        <ele>1947.170</ele>
        <time>2015-03-15T21:55:19.648Z</time>
        <name>WPT.1235</name>
      </trkpt>
      <trkpt lat="35.165819000" lon="-106.472733000">
        <ele>1947.020</ele>
        <time>2015-03-15T21:55:26.620Z</time>
        <name>WPT.1236</name>
      </trkpt>
      <trkpt lat="35.165892000" lon="-106.472803000">
        <ele>1946.930</ele>
        <time>2015-03-15T21:55:34.582Z</time>
        <name>WPT.1237</name>
      </trkpt>
      <trkpt lat="35.165989000" lon="-106.472796000">
        <ele>1946.840</ele>
        <time>2015-03-15T21:55:43.860Z</time>
        <name>WPT.1238</name>
      </trkpt>
      <trkpt lat="35.166069000" lon="-106.472737000">
        <ele>1946.760</ele>
        <time>2015-03-15T21:55:52.070Z</time>
        <name>WPT.1239</name>
      </trkpt>
      <trkpt lat="35.166069000" lon="-106.472737000">
        <ele>1946.710</ele>
        <time>2015-03-15T21:55:58.075Z</time>
        <name>WPT.1240</name>
      </trkpt>
      <trkpt lat="35.166045000" lon="-106.472690000">
        <ele>1946.720</ele>
        <time>2015-03-15T21:57:15.110Z</time>
        <name>WPT.1241</name>
      </trkpt>
    </trkseg>
  </trk>
</gpx>
